[[{"header":{"parameterUnit":"m.s-1","parameterCategory":1,"la1":31.0,"la2":29.5877,"lo1":-88.7671,"lo2":-86.6584,"dy":0.0162,"dx":0.0185,"nx":115,"ny":88,"refTime":"2024-08-20T12:00:00:Z","depth":0,"parameterNumber":2,"parameterNumberName":"U-component_of_WINDS"},"data":[0.0,0.0,0.0,0.0,0.0,0.0,0.0,0.0,0.0,0.0,0.0,0.0,0.0,0.0,0.0,0.0,0.0,0.0,0.0,0.0,0.0,0.0,0.0,0.0,0.0,0.0,0.0,0.0,0.0,0.0,0.0,0.0,0.0,0.0,0.0,0.0,0.0,0.0,0.0,0.0,0.0,0.0,0.0,0.0,0.0,0.0,0.0,0.0,0.0,0.0,0.0,0.0,0.0,0.0,0.0,0.0,0.0,0.0,0.0,0.0,0.0,0.0,0.0,0.0,0.0,0.0,0.0,0.0,0.0,0.0,0.0,0.0,0.0,0.0,0.0,0.0,0.0,0.0,0.0,0.0,0.0,0.0,0.0,0.0,0.0,0.0,0.0,0.0,0.0,0.0,0.0,0.0,0.0,0.0,0.0,0.0,0.0,0.0,0.0,0.0,0.0,0.0,0.0,0.0,0.0,0.0,0.0,0.0,0.0,0.0,0.0,0.0,0.0,0.0,0.0,0.0,0.0,0.0,0.0,0.0,0.0,0.0,0.0,0.0,0.0,0.0,0.0,0.0,0.0,0.0,0.0,0.0,0.0,0.0,0.0,0.0,0.0,0.0,0.0,0.0,0.0,0.0,0.0,0.0,0.0,0.0,0.0,0.0,0.0,0.0,0.0,0.0,0.0,0.0,0.0,0.0,0.0,0.0,0.0,0.0,0.0,0.0,0.0,0.0,0.0,0.0,0.0,0.0,0.0,0.0,0.0,0.0,0.0,0.0,0.0,0.0,0.0,0.0,0.0,0.0,0.0,0.0,0.0,0.0,0.0,0.0,0.0,0.0,0.0,0.0,0.0,0.0,0.0,0.0,0.0,0.0,0.0,0.0,0.0,0.0,0.0,0.0,0.0,0.0,0.0,0.0,0.0,0.0,0.0,0.0,0.0,0.0,0.0,0.0,0.0,0.0,0.0,0.0,0.0,0.0,0.0,0.0,0.0,0.0,0.0,0.0,0.0,0.0,0.0,0.0,0.0,0.0,0.0,0.0,0.0,0.0,0.0,0.0,0.0,0.0,0.0,0.0,0.0,0.0,0.0,0.0,0.0,0.0,0.0,0.0,0.0,0.0,0.0,0.0,0.0,0.0,0.0,0.0,0.0,0.0,0.0,0.0,0.0,0.0,0.0,0.0,0.0,0.0,0.0,0.0,0.0,0.0,0.0,0.0,0.0,0.0,0.0,0.0,0.0,0.0,0.0,0.0,0.0,0.0,0.0,0.0,0.0,0.0,0.0,0.0,0.0,0.0,0.0,0.0,0.0,0.0,0.0,0.0,0.0,0.0,0.0,0.0,0.0,0.0,0.0,0.0,0.0,0.0,0.0,0.0,0.0,0.0,0.0,0.0,0.0,0.0,0.0,0.0,0.0,0.0,0.0,0.0,0.0,0.0,0.0,0.0,0.0,0.0,0.0,0.0,0.0,0.0,0.0,0.0,0.0,0.0,0.0,0.0,0.0,0.0,0.0,0.0,0.0,0.0,0.0,0.0,0.0,0.0,0.0,0.0,0.0,0.0,0.0,0.0,0.0,0.0,0.0,0.0,0.0,0.0,0.0,0.0,0.0,0.0,0.0,0.0,0.0,0.0,0.0,0.0,0.0,0.0,0.0,0.0,0.0,0.0,0.0,0.0,0.0,0.0,0.0,0.0,0.0,0.0,0.0,0.0,0.0,0.0,0.0,0.0,0.0,0.0,0.0,0.0,0.0,0.0,0.0,0.0,0.0,0.0,0.0,0.0,0.0,0.0,0.0,0.0,0.0,0.0,0.0,0.0,0.0,0.0,0.0,0.0,0.0,0.0,0.0,0.0,0.0,0.0,0.0,0.0,0.0,0.0,0.0,0.0,0.0,0.0,0.0,0.0,0.0,0.0,0.0,0.0,0.0,0.0,0.0,0.0,0.0,0.0,0.0,0.0,0.0,0.0,0.0,0.0,0.0,0.0,0.0,0.0,0.0,0.0,0.0,0.0,0.0,0.0,0.0,0.0,0.0,0.0,0.0,0.0,0.0,0.0,0.0,0.0,0.0,0.0,0.0,0.0,0.0,0.0,0.0,0.0,0.0,0.0,0.0,0.0,0.0,0.0,0.0,0.0,0.0,0.0,0.0,0.0,0.0,0.0,0.0,0.0,0.0,0.0,0.0,0.0,0.0,0.0,0.0,0.0,0.0,0.0,0.0,0.0,0.0,0.0,0.0,0.0,0.0,0.0,0.0,0.0,0.0,0.0,0.0,0.0,0.0,0.0,0.0,0.0,0.0,0.0,0.0,0.0,0.0,0.0,0.0,0.0,0.0,0.0,0.0,0.0,0.0,0.0,0.0,0.0,0.0,0.0,0.0,0.0,0.0,0.0,0.0,0.0,0.0,0.0,0.0,0.0,0.0,0.0,0.0,0.0,0.0,0.0,0.0,0.0,0.0,0.0,0.0,0.0,0.0,0.0,0.0,0.0,0.0,0.0,0.0,0.0,0.0,0.0,0.0,0.0,0.0,0.0,0.0,0.0,0.0,0.0,0.0,0.0,0.0,0.0,0.0,0.0,0.0,0.0,0.0,0.0,0.0,0.0,0.0,0.0,0.0,0.0,0.0,0.0,0.0,0.0,0.0,0.0,0.0,0.0,0.0,0.0,0.0,0.0,0.0,0.0,0.0,0.0,0.0,0.0,0.0,0.0,0.0,0.0,0.0,0.0,0.0,0.0,0.0,0.0,0.0,0.0,0.0,0.0,0.0,0.0,0.0,0.0,0.0,0.0,0.0,0.0,0.0,0.0,0.0,0.0,0.0,0.0,0.0,0.0,0.0,0.0,0.0,0.0,0.0,0.0,0.0,0.0,0.0,0.0,0.0,0.0,0.0,0.0,0.0,0.0,0.0,0.0,0.0,0.0,0.0,0.0,0.0,0.0,0.0,0.0,0.0,0.0,0.0,0.0,0.0,0.0,0.0,0.0,0.0,0.0,0.0,0.0,0.0,0.0,0.0,0.0,0.0,0.0,0.0,0.0,0.0,0.0,0.0,0.0,0.0,0.0,0.0,0.0,0.0,0.0,0.0,0.0,0.0,0.0,0.0,0.0,0.0,0.0,0.0,0.0,0.0,0.0,0.0,0.0,0.0,0.0,0.0,0.0,0.0,0.0,0.0,0.0,0.0,0.0,0.0,0.0,0.0,0.0,0.0,0.0,0.0,0.0,0.0,0.0,0.0,0.0,0.0,0.0,0.0,0.0,0.0,0.0,0.0,0.0,0.0,0.0,0.0,0.0,0.0,0.0,0.0,0.0,0.0,0.0,0.0,0.0,0.0,0.0,0.0,0.0,0.0,0.0,0.0,0.0,0.0,0.0,0.0,0.0,0.0,0.0,0.0,0.0,0.0,0.0,0.0,0.0,0.0,0.0,0.0,0.0,0.0,0.0,0.0,0.0,0.0,0.0,0.0,0.0,0.0,0.0,0.0,0.0,0.0,0.0,0.0,0.0,0.0,0.0,0.0,0.0,0.0,0.0,0.0,0.0,0.0,0.0,0.0,0.0,0.0,0.0,0.0,0.0,0.0,0.0,0.0,0.0,0.0,0.0,0.0,0.0,0.0,0.0,0.0,0.0,0.0,0.0,0.0,0.0,0.0,0.0,0.0,0.0,0.0,0.0,0.0,0.0,0.0,0.0,0.0,0.0,0.0,0.0,0.0,0.0,0.0,0.0,0.0,0.0,0.0,0.0,0.0,0.0,0.0,0.0,0.0,0.0,0.0,0.0,0.0,0.0,0.0,0.0,0.0,0.0,0.0,0.0,0.0,0.0,0.0,0.0,0.0,0.0,0.0,0.0,0.0,0.0,0.0,0.0,0.0,0.0,0.0,0.0,0.0,0.0,0.0,0.0,0.0,0.0,0.0,0.0,0.0,0.0,0.0,0.0,0.0,0.0,0.0,0.0,0.0,0.0,0.0,0.0,0.0,0.0,0.0,0.0,0.0,0.0,0.0,0.0,0.0,0.0,0.0,0.0,0.0,0.0,0.0,0.0,0.0,0.0,0.0,0.0,0.0,0.0,0.0,0.0,0.0,0.0,0.0,0.0,0.0,0.0,0.0,0.0,0.0,0.0,0.0,0.0,0.0,0.0,0.0,0.0,0.0,0.0,0.0,0.0,0.0,0.0,0.0,0.0,0.0,0.0,0.0,0.0,0.0,0.0,0.0,0.0,0.0,0.0,0.0,0.0,0.0,0.0,0.0,0.0,0.0,0.0,0.0,0.0,3.7988,0.0,0.0,0.0,0.0,0.0,0.0,0.0,0.0,0.0,0.0,0.0,0.0,0.0,0.0,0.0,0.0,0.0,0.0,0.0,0.0,0.0,0.0,0.0,0.0,0.0,0.0,0.0,0.0,0.0,0.0,0.0,0.0,0.0,0.0,0.0,0.0,0.0,0.0,0.0,0.0,0.0,0.0,0.0,0.0,0.0,0.0,0.0,0.0,0.0,0.0,0.0,0.0,0.0,0.0,0.0,0.0,0.0,0.0,0.0,0.0,0.0,0.0,0.0,0.0,0.0,0.0,0.0,0.0,0.0,0.0,0.0,0.0,0.0,0.0,0.0,0.0,0.0,0.0,0.0,0.0,0.0,0.0,0.0,0.0,0.0,0.0,0.0,0.0,0.0,0.0,0.0,0.0,0.0,0.0,0.0,0.0,0.0,0.0,0.0,0.0,0.0,0.0,0.0,0.0,0.0,0.0,0.0,0.0,0.0,0.0,4.0609,4.0782,3.9649,3.8695,3.7988,0.0,0.0,0.0,0.0,0.0,0.0,0.0,0.0,0.0,0.0,0.0,0.0,0.0,0.0,0.0,0.0,0.0,0.0,0.0,0.0,0.0,0.0,0.0,0.0,0.0,0.0,0.0,0.0,0.0,0.0,0.0,0.0,0.0,0.0,0.0,0.0,0.0,0.0,0.0,0.0,0.0,0.0,0.0,0.0,0.0,0.0,0.0,0.0,0.0,0.0,0.0,0.0,0.0,0.0,0.0,0.0,0.0,0.0,0.0,0.0,0.0,0.0,0.0,0.0,0.0,0.0,0.0,0.0,0.0,0.0,0.0,0.0,0.0,0.0,0.0,0.0,0.0,0.0,0.0,0.0,0.0,0.0,0.0,0.0,0.0,0.0,0.0,0.0,0.0,0.0,0.0,0.0,0.0,0.0,0.0,0.0,0.0,0.0,0.0,0.0,0.0,0.0,0.0,0.0,0.0,0.0,0.0,0.0,0.0,0.0,0.0,0.0,4.0198,3.9099,3.7473,0.0,0.0,0.0,0.0,0.0,0.0,0.0,0.0,0.0,0.0,0.0,0.0,0.0,0.0,0.0,0.0,0.0,0.0,0.0,0.0,0.0,0.0,0.0,0.0,0.0,0.0,0.0,0.0,0.0,0.0,0.0,0.0,0.0,0.0,0.0,0.0,0.0,0.0,0.0,0.0,0.0,0.0,0.0,0.0,0.0,0.0,0.0,0.0,0.0,0.0,0.0,0.0,0.0,0.0,0.0,0.0,0.0,0.0,0.0,0.0,0.0,0.0,0.0,0.0,0.0,0.0,0.0,0.0,0.0,0.0,0.0,0.0,0.0,0.0,0.0,0.0,0.0,0.0,0.0,0.0,0.0,0.0,0.0,0.0,0.0,0.0,0.0,0.0,0.0,0.0,0.0,0.0,0.0,0.0,0.0,0.0,0.0,0.0,0.0,0.0,0.0,0.0,0.0,0.0,0.0,0.0,0.0,0.0,0.0,0.0,4.0208,4.085,4.0752,0.0,3.5926,0.0,0.0,0.0,0.0,0.0,0.0,0.0,0.0,0.0,0.0,0.0,0.0,0.0,0.0,0.0,0.0,0.0,0.0,0.0,0.0,0.0,0.0,0.0,0.0,0.0,0.0,0.0,0.0,0.0,0.0,0.0,0.0,0.0,0.0,0.0,0.0,0.0,0.0,0.0,0.0,0.0,0.0,0.0,0.0,0.0,0.0,0.0,0.0,0.0,0.0,0.0,0.0,0.0,0.0,0.0,0.0,0.0,0.0,0.0,0.0,0.0,0.0,0.0,0.0,0.0,0.0,0.0,0.0,0.0,0.0,0.0,0.0,0.0,0.0,0.0,0.0,0.0,0.0,0.0,0.0,0.0,0.0,0.0,0.0,0.0,0.0,0.0,0.0,0.0,0.0,0.0,0.0,0.0,0.0,0.0,0.0,0.0,0.0,0.0,0.0,0.0,0.0,0.0,0.0,0.0,0.0,0.0,0.0,0.0,0.0,4.014,4.0881,3.9841,3.8393,0.0,0.0,0.0,0.0,0.0,0.0,0.0,0.0,0.0,0.0,0.0,0.0,0.0,0.0,0.0,0.0,0.0,0.0,0.0,0.0,0.0,0.0,0.0,0.0,0.0,0.0,0.0,0.0,0.0,0.0,0.0,0.0,0.0,0.0,0.0,0.0,0.0,0.0,0.0,0.0,0.0,0.0,0.0,0.0,0.0,0.0,0.0,0.0,0.0,0.0,0.0,0.0,0.0,0.0,0.0,0.0,0.0,0.0,0.0,0.0,0.0,0.0,0.0,0.0,0.0,0.0,0.0,0.0,0.0,0.0,0.0,0.0,0.0,0.0,0.0,0.0,0.0,0.0,0.0,0.0,0.0,0.0,0.0,0.0,0.0,0.0,0.0,0.0,0.0,0.0,0.0,0.0,0.0,0.0,0.0,0.0,0.0,0.0,0.0,0.0,0.0,0.0,0.0,0.0,0.0,0.0,0.0,0.0,0.0,0.0,3.8843,4.0065,4.0727,3.9538,3.8024,3.6337,0.0,0.0,0.0,0.0,0.0,0.0,0.0,0.0,0.0,0.0,0.0,0.0,0.0,0.0,0.0,0.0,0.0,0.0,0.0,0.0,0.0,0.0,0.0,0.0,0.0,0.0,0.0,0.0,0.0,0.0,0.0,0.0,0.0,0.0,0.0,0.0,0.0,0.0,0.0,0.0,0.0,0.0,0.0,0.0,0.0,0.0,0.0,0.0,0.0,0.0,0.0,0.0,0.0,0.0,0.0,0.0,0.0,0.0,0.0,0.0,0.0,0.0,0.0,0.0,0.0,0.0,0.0,0.0,0.0,0.0,0.0,0.0,0.0,0.0,0.0,0.0,0.0,0.0,0.0,0.0,0.0,0.0,0.0,0.0,0.0,0.0,0.0,0.0,0.0,0.0,0.0,0.0,0.0,0.0,0.0,0.0,0.0,0.0,0.0,0.0,0.0,0.0,0.0,0.0,0.0,0.0,0.0,0.0,4.0319,3.9959,4.003,4.0735,4.0489,3.8368,0.0,0.0,0.0,0.0,0.0,0.0,0.0,0.0,0.0,0.0,0.0,0.0,0.0,0.0,0.0,0.0,0.0,0.0,0.0,0.0,0.0,0.0,0.0,0.0,0.0,0.0,0.0,0.0,0.0,0.0,0.0,0.0,0.0,0.0,0.0,0.0,0.0,0.0,0.0,0.0,0.0,0.0,0.0,0.0,0.0,0.0,0.0,0.0,0.0,0.0,0.0,0.0,0.0,0.0,0.0,0.0,0.0,0.0,0.0,0.0,0.0,0.0,0.0,0.0,0.0,0.0,0.0,0.0,0.0,0.0,0.0,0.0,0.0,0.0,0.0,0.0,0.0,0.0,0.0,0.0,0.0,0.0,0.0,0.0,0.0,0.0,0.0,0.0,0.0,0.0,0.0,0.0,0.0,0.0,0.0,0.0,0.0,0.0,0.0,0.0,0.0,0.0,0.0,0.0,0.0,0.0,0.0,0.0,0.0,3.745,3.8296,3.9865,4.1989,3.8593,3.6312,0.0,0.0,0.0,0.0,0.0,0.0,0.0,0.0,0.0,0.0,0.0,0.0,0.0,0.0,0.0,0.0,0.0,0.0,0.0,0.0,0.0,0.0,0.0,0.0,0.0,0.0,0.0,0.0,0.0,0.0,0.0,0.0,0.0,0.0,0.0,0.0,0.0,0.0,0.0,0.0,0.0,0.0,0.0,0.0,0.0,0.0,0.0,0.0,0.0,0.0,0.0,0.0,0.0,0.0,0.0,0.0,0.0,0.0,0.0,0.0,0.0,0.0,0.0,0.0,0.0,0.0,0.0,0.0,0.0,0.0,0.0,0.0,0.0,0.0,0.0,0.0,0.0,0.0,0.0,0.0,0.0,0.0,0.0,0.0,0.0,0.0,0.0,0.0,0.0,0.0,0.0,0.0,0.0,0.0,0.0,0.0,0.0,0.0,0.0,0.0,0.0,0.0,0.0,0.0,0.0,0.0,0.0,0.0,0.0,3.6484,0.0,3.9662,0.0,3.7494,3.5039,0.0,0.0,0.0,0.0,0.0,0.0,0.0,0.0,0.0,0.0,0.0,0.0,0.0,0.0,0.0,0.0,0.0,0.0,0.0,0.0,0.0,0.0,0.0,0.0,0.0,0.0,0.0,0.0,0.0,0.0,0.0,0.0,0.0,0.0,0.0,0.0,0.0,0.0,0.0,0.0,0.0,0.0,0.0,0.0,0.0,0.0,0.0,0.0,0.0,0.0,0.0,0.0,0.0,0.0,0.0,0.0,0.0,0.0,0.0,0.0,0.0,0.0,0.0,0.0,0.0,0.0,0.0,0.0,0.0,0.0,0.0,0.0,0.0,0.0,0.0,0.0,0.0,0.0,0.0,0.0,0.0,0.0,0.0,0.0,0.0,0.0,0.0,0.0,0.0,0.0,0.0,0.0,0.0,0.0,0.0,0.0,0.0,0.0,0.0,0.0,0.0,0.0,0.0,0.0,0.0,0.0,0.0,0.0,3.5717,3.8147,3.9734,3.9392,3.6949,3.745,3.4776,0.0,0.0,0.0,0.0,0.0,0.0,0.0,0.0,0.0,0.0,0.0,0.0,0.0,0.0,0.0,0.0,0.0,0.0,0.0,0.0,0.0,0.0,0.0,0.0,0.0,0.0,0.0,0.0,0.0,0.0,0.0,0.0,0.0,0.0,0.0,0.0,0.0,0.0,0.0,0.0,0.0,0.0,0.0,0.0,0.0,0.0,0.0,0.0,0.0,0.0,0.0,0.0,0.0,0.0,0.0,0.0,0.0,0.0,0.0,0.0,0.0,0.0,0.0,0.0,0.0,0.0,0.0,0.0,0.0,0.0,0.0,0.0,0.0,0.0,0.0,0.0,0.0,0.0,0.0,0.0,0.0,0.0,0.0,0.0,0.0,0.0,0.0,0.0,0.0,0.0,0.0,0.0,0.0,0.0,0.0,0.0,0.0,0.0,0.0,0.0,0.0,0.0,0.0,0.0,0.0,0.0,0.0,0.0,0.0,3.6503,3.8125,3.9104,3.92,3.6161,3.4064,0.0,0.0,0.0,0.0,0.0,0.0,0.0,0.0,0.0,0.0,0.0,0.0,0.0,0.0,0.0,0.0,0.0,0.0,0.0,0.0,0.0,0.0,0.0,0.0,0.0,0.0,0.0,0.0,0.0,0.0,0.0,0.0,0.0,0.0,0.0,0.0,0.0,0.0,0.0,0.0,0.0,0.0,0.0,0.0,0.0,0.0,0.0,0.0,0.0,0.0,0.0,0.0,0.0,0.0,0.0,0.0,0.0,0.0,0.0,0.0,0.0,0.0,0.0,0.0,0.0,0.0,0.0,0.0,0.0,0.0,0.0,0.0,0.0,0.0,0.0,0.0,0.0,0.0,0.0,0.0,0.0,0.0,0.0,0.0,0.0,0.0,0.0,0.0,0.0,0.0,0.0,0.0,0.0,0.0,0.0,0.0,0.0,0.0,0.0,0.0,0.0,0.0,0.0,0.0,0.0,0.0,0.0,0.0,0.0,3.6183,3.8017,3.9103,3.9377,3.5618,3.3655,3.3786,0.0,0.0,0.0,0.0,0.0,0.0,0.0,0.0,0.0,0.0,0.0,0.0,0.0,0.0,0.0,0.0,0.0,0.0,0.0,0.0,0.0,0.0,0.0,0.0,0.0,0.0,0.0,0.0,0.0,0.0,0.0,0.0,0.0,0.0,0.0,0.0,0.0,0.0,0.0,0.0,0.0,0.0,0.0,0.0,0.0,0.0,0.0,0.0,0.0,0.0,0.0,0.0,0.0,0.0,0.0,0.0,0.0,0.0,0.0,0.0,0.0,0.0,0.0,0.0,0.0,0.0,0.0,0.0,0.0,0.0,0.0,0.0,0.0,0.0,0.0,0.0,0.0,0.0,0.0,0.0,0.0,0.0,0.0,0.0,0.0,0.0,0.0,0.0,0.0,0.0,0.0,0.0,0.0,0.0,0.0,0.0,0.0,0.0,0.0,0.0,0.0,0.0,0.0,0.0,0.0,0.0,0.0,0.0,3.6799,3.9057,3.9361,3.77,3.5778,3.3677,0.0,0.0,0.0,0.0,0.0,0.0,0.0,0.0,0.0,0.0,0.0,0.0,0.0,0.0,0.0,0.0,0.0,0.0,0.0,0.0,0.0,0.0,0.0,0.0,0.0,0.0,0.0,0.0,0.0,0.0,0.0,0.0,0.0,0.0,0.0,0.0,0.0,0.0,0.0,0.0,0.0,0.0,0.0,0.0,0.0,0.0,0.0,0.0,0.0,0.0,0.0,0.0,0.0,0.0,0.0,0.0,0.0,0.0,0.0,0.0,0.0,0.0,0.0,0.0,0.0,0.0,0.0,0.0,0.0,0.0,0.0,0.0,0.0,0.0,0.0,0.0,0.0,0.0,0.0,0.0,0.0,0.0,0.0,0.0,0.0,0.0,0.0,0.0,0.0,0.0,0.0,0.0,0.0,0.0,0.0,0.0,0.0,0.0,0.0,0.0,0.0,0.0,0.0,0.0,0.0,0.0,0.0,0.0,0.0,3.684,3.7688,3.8344,3.8763,3.6719,3.4846,0.0,0.0,0.0,0.0,0.0,0.0,0.0,0.0,0.0,0.0,0.0,0.0,0.0,0.0,0.0,0.0,0.0,0.0,0.0,0.0,0.0,0.0,0.0,0.0,0.0,0.0,0.0,0.0,0.0,0.0,0.0,0.0,0.0,0.0,0.0,0.0,0.0,0.0,0.0,0.0,0.0,0.0,0.0,0.0,0.0,0.0,0.0,0.0,0.0,0.0,0.0,0.0,0.0,0.0,0.0,0.0,0.0,0.0,0.0,0.0,0.0,0.0,0.0,0.0,0.0,0.0,0.0,0.0,0.0,0.0,0.0,0.0,0.0,0.0,0.0,0.0,0.0,0.0,0.0,0.0,0.0,0.0,0.0,0.0,0.0,0.0,0.0,0.0,0.0,0.0,0.0,0.0,0.0,0.0,0.0,0.0,0.0,0.0,0.0,0.0,0.0,0.0,0.0,0.0,0.0,0.0,0.0,0.0,3.5601,3.6698,3.6763,3.711,3.78,3.5832,3.4201,0.0,0.0,0.0,0.0,0.0,0.0,0.0,0.0,0.0,0.0,0.0,0.0,0.0,0.0,0.0,0.0,0.0,0.0,0.0,0.0,0.0,0.0,0.0,0.0,0.0,0.0,0.0,0.0,0.0,0.0,0.0,0.0,0.0,0.0,0.0,0.0,0.0,0.0,0.0,0.0,0.0,0.0,0.0,0.0,0.0,0.0,0.0,0.0,0.0,0.0,0.0,0.0,0.0,0.0,0.0,0.0,0.0,0.0,0.0,0.0,0.0,0.0,0.0,0.0,0.0,0.0,0.0,0.0,0.0,0.0,0.0,0.0,0.0,0.0,0.0,0.0,0.0,0.0,0.0,0.0,0.0,0.0,0.0,0.0,0.0,0.0,0.0,0.0,0.0,0.0,0.0,0.0,0.0,0.0,0.0,0.0,0.0,0.0,0.0,0.0,0.0,0.0,0.0,0.0,0.0,0.0,0.0,0.0,3.577,3.6207,3.5977,3.5709,3.5306,3.3884,3.2607,0.0,0.0,0.0,0.0,0.0,0.0,0.0,0.0,0.0,0.0,0.0,0.0,0.0,0.0,0.0,0.0,0.0,0.0,0.0,0.0,0.0,0.0,0.0,0.0,0.0,0.0,0.0,0.0,0.0,0.0,0.0,0.0,0.0,0.0,0.0,0.0,0.0,0.0,0.0,0.0,0.0,0.0,0.0,0.0,0.0,0.0,0.0,0.0,0.0,0.0,0.0,0.0,0.0,0.0,0.0,0.0,0.0,0.0,0.0,0.0,0.0,0.0,0.0,0.0,0.0,0.0,0.0,0.0,0.0,0.0,0.0,0.0,0.0,0.0,0.0,0.0,0.0,0.0,0.0,0.0,0.0,0.0,0.0,0.0,0.0,0.0,0.0,0.0,0.0,0.0,0.0,0.0,0.0,0.0,0.0,0.0,0.0,0.0,0.0,0.0,0.0,0.0,0.0,0.0,0.0,0.0,0.0,0.0,3.4557,3.4456,3.4355,3.3712,3.2526,3.2508,3.1804,0.0,0.0,0.0,0.0,0.0,0.0,0.0,0.0,0.0,0.0,0.0,0.0,0.0,0.0,0.0,0.0,0.0,0.0,0.0,0.0,0.0,0.0,0.0,0.0,0.0,0.0,0.0,0.0,0.0,0.0,0.0,0.0,0.0,0.0,0.0,0.0,0.0,0.0,0.0,0.0,0.0,0.0,0.0,0.0,0.0,0.0,0.0,0.0,3.4172,0.0,0.0,0.0,0.0,0.0,0.0,0.0,0.0,0.0,0.0,0.0,0.0,0.0,0.0,0.0,0.0,0.0,0.0,0.0,0.0,0.0,0.0,0.0,0.0,0.0,0.0,0.0,0.0,0.0,0.0,0.0,0.0,0.0,0.0,0.0,0.0,0.0,0.0,0.0,0.0,0.0,0.0,0.0,0.0,0.0,0.0,0.0,0.0,0.0,0.0,0.0,0.0,0.0,0.0,0.0,0.0,0.0,0.0,0.0,3.4385,3.3772,3.3422,3.2742,3.1732,3.0894,2.9929,0.0,0.0,0.0,0.0,0.0,0.0,0.0,0.0,0.0,0.0,0.0,0.0,0.0,0.0,0.0,0.0,0.0,0.0,0.0,0.0,0.0,0.0,0.0,0.0,0.0,0.0,0.0,0.0,0.0,0.0,0.0,0.0,0.0,0.0,0.0,0.0,0.0,0.0,0.0,0.0,0.0,0.0,0.0,0.0,0.0,0.0,0.0,0.0,0.0,0.0,0.0,0.0,0.0,0.0,0.0,0.0,0.0,0.0,0.0,0.0,0.0,0.0,0.0,0.0,0.0,0.0,0.0,0.0,0.0,0.0,0.0,0.0,0.0,0.0,0.0,0.0,0.0,0.0,0.0,0.0,0.0,0.0,0.0,0.0,0.0,0.0,0.0,0.0,0.0,0.0,0.0,0.0,0.0,0.0,0.0,0.0,0.0,0.0,0.0,0.0,0.0,0.0,0.0,0.0,0.0,0.0,0.0,3.3915,3.4299,3.3429,3.2797,3.2163,3.1516,2.9612,2.8172,2.73,0.0,0.0,0.0,0.0,0.0,0.0,0.0,0.0,0.0,0.0,0.0,0.0,0.0,0.0,0.0,0.0,0.0,0.0,0.0,0.0,0.0,0.0,0.0,0.0,0.0,0.0,0.0,0.0,0.0,0.0,0.0,0.0,0.0,0.0,0.0,0.0,0.0,0.0,3.3862,3.4938,0.0,0.0,0.0,0.0,0.0,0.0,0.0,0.0,3.4909,0.0,0.0,0.0,0.0,0.0,0.0,0.0,0.0,0.0,0.0,0.0,0.0,0.0,0.0,0.0,0.0,0.0,0.0,0.0,0.0,0.0,0.0,0.0,0.0,0.0,0.0,0.0,0.0,0.0,0.0,0.0,0.0,0.0,0.0,0.0,0.0,0.0,0.0,0.0,0.0,0.0,0.0,0.0,0.0,0.0,0.0,0.0,0.0,0.0,0.0,0.0,0.0,0.0,0.0,0.0,0.0,3.3241,3.3101,3.2874,3.2616,3.2123,3.1323,3.0236,2.9732,2.8282,2.587,0.0,0.0,0.0,0.0,0.0,0.0,0.0,0.0,0.0,0.0,0.0,0.0,0.0,0.0,0.0,0.0,0.0,0.0,0.0,0.0,0.0,0.0,0.0,0.0,0.0,0.0,0.0,0.0,0.0,0.0,0.0,0.0,0.0,0.0,0.0,0.0,0.0,0.0,0.0,3.5636,3.6684,0.0,0.0,0.0,0.0,0.0,0.0,0.0,0.0,3.4948,0.0,0.0,0.0,0.0,0.0,0.0,0.0,0.0,0.0,0.0,0.0,0.0,0.0,0.0,0.0,0.0,0.0,0.0,0.0,0.0,0.0,0.0,0.0,0.0,0.0,0.0,0.0,0.0,0.0,0.0,0.0,0.0,0.0,0.0,0.0,0.0,0.0,0.0,0.0,0.0,0.0,0.0,0.0,0.0,0.0,0.0,0.0,0.0,0.0,0.0,0.0,0.0,0.0,0.0,0.0,3.2697,3.2959,3.2826,3.2411,3.1941,3.1187,3.0133,2.9098,2.77,0.0,0.0,0.0,0.0,0.0,0.0,0.0,0.0,0.0,0.0,0.0,0.0,0.0,0.0,0.0,0.0,0.0,0.0,0.0,0.0,0.0,0.0,0.0,0.0,0.0,0.0,0.0,0.0,0.0,0.0,0.0,0.0,0.0,0.0,0.0,0.0,0.0,0.0,0.0,0.0,3.5407,3.6114,3.7153,0.0,0.0,0.0,0.0,0.0,0.0,3.4056,3.4092,0.0,0.0,0.0,0.0,0.0,0.0,0.0,0.0,0.0,0.0,0.0,0.0,0.0,0.0,0.0,0.0,0.0,0.0,0.0,0.0,0.0,0.0,0.0,0.0,0.0,0.0,0.0,0.0,0.0,0.0,0.0,0.0,0.0,0.0,0.0,0.0,0.0,0.0,0.0,0.0,0.0,0.0,0.0,0.0,0.0,0.0,0.0,0.0,0.0,0.0,0.0,0.0,0.0,0.0,0.0,3.2048,3.263,3.2731,3.2374,3.176,3.0996,3.0037,2.8424,2.7045,0.0,0.0,0.0,0.0,0.0,0.0,0.0,0.0,0.0,0.0,0.0,0.0,0.0,0.0,0.0,0.0,0.0,0.0,0.0,0.0,0.0,0.0,0.0,0.0,0.0,0.0,0.0,0.0,0.0,0.0,0.0,0.0,0.0,0.0,0.0,0.0,0.0,0.0,0.0,0.0,0.0,3.598,3.6329,3.5065,0.0,0.0,0.0,0.0,3.3809,3.3633,0.0,0.0,0.0,0.0,0.0,0.0,0.0,0.0,0.0,0.0,0.0,0.0,0.0,0.0,0.0,0.0,0.0,0.0,0.0,0.0,0.0,0.0,0.0,0.0,0.0,0.0,0.0,0.0,0.0,0.0,0.0,0.0,0.0,0.0,0.0,0.0,0.0,0.0,0.0,0.0,0.0,0.0,0.0,0.0,0.0,0.0,0.0,0.0,0.0,0.0,0.0,0.0,0.0,0.0,0.0,0.0,3.1725,3.141,3.1582,3.2317,3.1197,3.0115,2.9165,2.8312,2.6728,0.0,0.0,0.0,0.0,0.0,0.0,0.0,0.0,0.0,0.0,0.0,0.0,0.0,0.0,0.0,0.0,0.0,0.0,0.0,0.0,0.0,0.0,0.0,0.0,0.0,0.0,0.0,0.0,0.0,0.0,0.0,0.0,0.0,0.0,0.0,0.0,0.0,0.0,0.0,0.0,0.0,3.7637,3.5654,3.4443,3.3618,0.0,0.0,3.2996,3.2229,3.3318,0.0,0.0,0.0,0.0,0.0,0.0,0.0,0.0,0.0,0.0,0.0,0.0,0.0,0.0,0.0,0.0,0.0,0.0,0.0,0.0,0.0,0.0,0.0,0.0,0.0,0.0,0.0,0.0,0.0,0.0,0.0,0.0,0.0,0.0,0.0,0.0,0.0,0.0,0.0,0.0,0.0,0.0,0.0,0.0,0.0,0.0,0.0,0.0,0.0,0.0,0.0,0.0,0.0,0.0,0.0,2.9777,3.107,3.1409,3.16,3.1619,3.0338,2.9517,2.9214,2.7471,2.5961,0.0,0.0,0.0,0.0,0.0,0.0,0.0,0.0,0.0,0.0,0.0,0.0,0.0,0.0,0.0,0.0,0.0,0.0,0.0,0.0,0.0,0.0,0.0,0.0,0.0,0.0,0.0,0.0,0.0,0.0,0.0,0.0,0.0,0.0,0.0,0.0,0.0,0.0,0.0,0.0,0.0,0.0,3.4677,3.3651,0.0,0.0,0.0,3.1288,3.1185,0.0,0.0,0.0,0.0,0.0,0.0,0.0,0.0,0.0,0.0,0.0,0.0,0.0,0.0,0.0,0.0,0.0,0.0,0.0,0.0,0.0,0.0,0.0,0.0,0.0,0.0,0.0,0.0,0.0,0.0,0.0,0.0,0.0,0.0,0.0,0.0,0.0,0.0,0.0,0.0,0.0,0.0,0.0,0.0,0.0,0.0,0.0,0.0,0.0,0.0,0.0,0.0,0.0,0.0,0.0,0.0,0.0,3.035,3.1293,3.1563,3.1092,2.9782,2.9096,2.9022,2.6836,0.0,0.0,0.0,0.0,0.0,0.0,0.0,0.0,0.0,0.0,0.0,0.0,0.0,0.0,0.0,0.0,0.0,0.0,0.0,0.0,0.0,0.0,0.0,0.0,0.0,0.0,0.0,2.4726,0.0,0.0,0.0,0.0,0.0,0.0,0.0,0.0,0.0,0.0,0.0,0.0,0.0,0.0,3.4775,3.411,3.3226,3.258,0.0,0.0,2.9894,3.0282,2.9487,2.8631,0.0,0.0,0.0,0.0,0.0,0.0,0.0,0.0,0.0,0.0,0.0,0.0,0.0,0.0,0.0,0.0,0.0,0.0,0.0,0.0,0.0,0.0,0.0,0.0,0.0,0.0,0.0,0.0,0.0,0.0,0.0,0.0,0.0,0.0,0.0,0.0,0.0,0.0,0.0,0.0,0.0,0.0,0.0,0.0,0.0,0.0,0.0,0.0,0.0,0.0,0.0,0.0,0.0,0.0,2.8691,2.9652,3.053,3.1035,3.1054,2.9802,2.882,2.8193,2.6746,2.5314,0.0,0.0,0.0,0.0,0.0,0.0,0.0,0.0,0.0,0.0,0.0,0.0,0.0,0.0,0.0,0.0,0.0,0.0,0.0,0.0,0.0,0.0,0.0,0.0,0.0,0.0,0.0,0.0,0.0,0.0,0.0,0.0,0.0,0.0,0.0,0.0,0.0,0.0,0.0,0.0,0.0,3.6483,3.4377,3.3462,3.2499,0.0,3.0225,2.954,2.9349,2.9051,2.8506,2.7437,0.0,0.0,0.0,0.0,0.0,0.0,0.0,0.0,0.0,0.0,0.0,0.0,0.0,0.0,0.0,0.0,0.0,0.0,0.0,0.0,0.0,0.0,0.0,0.0,0.0,0.0,0.0,0.0,0.0,0.0,0.0,0.0,0.0,0.0,0.0,0.0,0.0,0.0,0.0,0.0,0.0,0.0,0.0,0.0,0.0,0.0,0.0,0.0,0.0,0.0,0.0,0.0,0.0,2.8356,2.8861,3.0211,3.0471,2.9567,2.8767,2.8017,2.7316,2.5999,2.4891,0.0,0.0,0.0,0.0,0.0,0.0,0.0,0.0,0.0,0.0,0.0,0.0,0.0,0.0,0.0,0.0,0.0,0.0,0.0,0.0,0.0,0.0,0.0,0.0,0.0,0.0,0.0,0.0,2.6036,2.622,2.6082,0.0,0.0,0.0,0.0,0.0,0.0,0.0,0.0,0.0,0.0,3.4999,3.3555,3.2594,0.0,0.0,2.8998,2.7959,2.7484,2.6723,2.5873,2.4949,2.4134,0.0,0.0,0.0,0.0,0.0,0.0,0.0,0.0,0.0,0.0,0.0,0.0,0.0,0.0,0.0,0.0,0.0,0.0,0.0,0.0,0.0,0.0,0.0,0.0,0.0,0.0,0.0,0.0,0.0,0.0,0.0,0.0,0.0,0.0,0.0,0.0,0.0,0.0,0.0,0.0,0.0,0.0,0.0,0.0,0.0,0.0,0.0,0.0,0.0,0.0,0.0,0.0,2.7986,2.8255,2.9746,2.9908,2.8633,2.7879,2.7276,2.6786,2.5498,2.461,0.0,0.0,0.0,0.0,0.0,0.0,0.0,0.0,0.0,0.0,0.0,0.0,0.0,0.0,0.0,0.0,0.0,0.0,0.0,0.0,0.0,0.0,0.0,0.0,0.0,0.0,0.0,0.0,2.571,2.5715,2.6504,0.0,0.0,0.0,0.0,0.0,0.0,0.0,0.0,0.0,0.0,3.3925,3.2894,3.1912,3.0849,2.9549,2.7945,2.6638,2.5885,2.4655,2.3425,2.2378,0.0,0.0,0.0,0.0,0.0,0.0,0.0,0.0,0.0,0.0,0.0,0.0,0.0,0.0,0.0,0.0,0.0,0.0,0.0,0.0,0.0,0.0,0.0,0.0,0.0,0.0,0.0,2.5703,0.0,0.0,2.5703,0.0,0.0,0.0,0.0,0.0,0.0,0.0,0.0,0.0,0.0,0.0,0.0,0.0,0.0,0.0,0.0,0.0,0.0,0.0,0.0,0.0,0.0,2.7538,2.7917,2.9033,2.9286,2.858,2.731,2.6674,2.6728,2.5482,2.4495,2.3823,0.0,0.0,0.0,0.0,0.0,0.0,0.0,0.0,0.0,0.0,0.0,0.0,0.0,0.0,0.0,0.0,0.0,0.0,0.0,0.0,0.0,0.0,0.0,0.0,0.0,0.0,2.5358,2.4421,2.4554,0.0,0.0,0.0,0.0,0.0,0.0,0.0,0.0,0.0,3.2426,3.3498,3.3846,3.2562,3.1675,3.0503,2.8801,2.7169,2.574,2.4699,2.3212,2.1591,0.0,0.0,0.0,0.0,0.0,0.0,0.0,0.0,0.0,0.0,0.0,0.0,0.0,0.0,0.0,0.0,0.0,0.0,0.0,0.0,0.0,0.0,0.0,0.0,0.0,0.0,0.0,2.7625,2.7285,0.0,0.0,0.0,0.0,0.0,0.0,0.0,0.0,0.0,0.0,0.0,2.8093,3.0098,0.0,0.0,0.0,0.0,0.0,0.0,0.0,0.0,0.0,0.0,0.0,0.0,2.7459,2.7906,2.8484,2.8487,2.7803,2.7061,2.6425,2.5938,2.5189,2.4428,2.3606,0.0,0.0,0.0,0.0,0.0,0.0,0.0,0.0,0.0,0.0,0.0,0.0,0.0,0.0,0.0,0.0,0.0,0.0,0.0,0.0,0.0,0.0,0.0,0.0,0.0,2.5499,0.0,0.0,0.0,0.0,0.0,0.0,0.0,0.0,0.0,0.0,0.0,3.1971,3.229,3.3594,3.3801,3.1869,3.1166,3.0259,0.0,0.0,0.0,0.0,0.0,0.0,0.0,0.0,0.0,0.0,0.0,0.0,0.0,0.0,1.3717,1.4364,1.4898,1.4923,1.3842,0.0,0.0,0.0,0.0,0.0,0.0,0.0,0.0,0.0,0.0,0.0,0.0,0.0,0.0,2.804,2.7913,2.7646,0.0,0.0,0.0,0.0,0.0,0.0,0.0,0.0,2.7137,2.7951,2.8003,3.029,3.1352,0.0,3.1595,3.1107,0.0,0.0,0.0,0.0,0.0,0.0,0.0,0.0,2.7431,2.7752,2.8054,2.7848,2.7176,2.6562,2.5996,2.5511,2.4922,2.4348,2.375,2.3185,2.2436,0.0,0.0,0.0,0.0,0.0,0.0,0.0,0.0,0.0,0.0,0.0,0.0,0.0,0.0,0.0,0.0,0.0,0.0,0.0,0.0,0.0,0.0,0.0,2.5619,0.0,0.0,0.0,0.0,0.0,0.0,0.0,0.0,0.0,2.9282,3.03,3.1255,3.2204,3.3363,3.3378,3.1389,0.0,0.0,0.0,0.0,0.0,0.0,0.0,1.9634,1.7478,1.5594,1.3793,1.2393,1.11,1.02,0.9927,0.0,0.0,1.0641,1.1274,1.114,0.9936,0.7384,0.4787,0.2882,0.196,0.1049,0.0,0.0,0.0,0.0,0.0,0.0,0.0,0.0,2.7423,2.7058,0.0,2.724,0.0,0.0,0.0,0.0,2.4404,2.4921,0.0,0.0,2.6085,2.7416,2.8091,2.9479,3.048,3.1129,3.1707,3.1357,3.0214,2.985,0.0,0.0,0.0,0.0,0.0,0.0,2.7408,2.746,2.7651,2.7422,2.6708,2.5853,2.5437,2.5459,2.474,2.4283,2.4161,2.2997,2.1524,1.9815,1.9721,0.0,0.0,0.0,0.0,0.0,0.0,0.0,0.0,0.0,0.0,0.0,0.0,0.0,0.0,0.0,0.0,0.0,0.0,0.0,0.0,2.4996,0.0,0.0,0.0,0.0,0.0,0.0,0.0,0.0,0.0,2.7718,2.8555,2.9549,3.0641,3.22,0.0,0.0,0.0,0.0,2.8351,2.6966,2.4799,2.2746,2.097,1.9365,1.7584,1.5366,0.0,0.0,0.9849,0.9256,0.8927,0.8431,0.5849,0.4191,0.5918,0.662,0.651,0.5157,0.3197,0.145,0.0219,-0.1642,-0.3697,2.9254,0.0,0.0,0.0,0.0,2.9533,2.951,2.9787,2.844,2.7575,2.6944,2.607,0.0,0.0,0.0,0.0,0.0,0.0,2.3147,2.4164,2.5345,2.6373,2.7354,2.8459,2.9251,2.9701,2.9481,2.9162,2.88,2.8028,2.7672,2.772,0.0,0.0,0.0,0.0,2.6782,2.6785,2.6889,2.6833,2.6631,2.5885,2.5414,2.5286,2.4877,2.4522,2.4221,2.3382,2.1944,1.9814,1.9897,0.0,0.0,0.0,0.0,0.0,0.0,0.0,0.0,0.0,0.0,0.0,0.0,0.0,0.0,0.0,0.0,0.0,0.0,0.0,2.3813,2.4701,2.5351,0.0,0.0,0.0,0.0,0.0,0.0,0.0,0.0,0.0,2.0101,2.667,3.1298,0.0,0.0,3.2522,3.0432,2.9623,2.8738,2.7329,2.5538,0.0,2.1355,1.9591,1.7524,1.4814,1.1902,0.9421,0.8049,0.7405,0.6611,0.5032,0.4112,0.2543,-0.1056,0.0449,0.1734,0.0543,-0.1709,-0.3487,-0.3769,-0.4372,-0.5289,2.8856,2.9452,2.9382,2.9836,3.0515,2.916,2.868,2.8723,2.6848,2.5676,2.4996,2.4247,2.3242,2.2103,2.1527,0.0,0.0,0.0,2.1482,2.2149,2.3583,2.4486,2.4971,2.6071,2.6843,2.7131,2.6747,2.6619,2.6706,2.5942,2.5638,2.5815,0.0,0.0,2.5201,2.5605,2.6078,2.651,2.6145,2.5955,2.6087,2.5689,2.5429,2.5313,2.4967,2.4666,2.4356,2.3613,2.2262,2.0305,2.0061,1.9732,0.0,0.0,0.0,0.0,0.0,0.0,0.0,0.0,0.0,0.0,0.0,2.4526,2.3833,0.0,0.0,0.0,2.3271,2.3612,2.3974,2.4816,0.0,0.0,0.0,0.0,0.0,0.0,0.0,0.7663,0.4567,0.6636,1.4945,2.008,2.5152,3.1129,3.2408,3.2038,3.0072,0.0,2.8157,2.6667,2.4685,2.2599,2.0518,1.8696,1.6676,1.4004,1.0843,0.8472,0.7825,0.6817,0.54,0.3632,0.2597,0.0575,-0.446,-0.3444,-0.2087,-0.2811,-0.4246,-0.5303,-0.5219,-0.5443,-0.6066,2.7933,2.8048,2.842,2.9177,2.9964,2.7578,2.6488,2.6162,2.357,2.2336,2.2199,2.1917,2.1254,2.0414,1.9714,0.0,1.9207,1.9887,1.9737,1.9002,2.1142,2.1992,2.1708,2.2959,2.3712,2.4042,2.3811,2.3888,2.4164,2.3652,2.3073,2.2547,2.4609,2.514,2.4151,2.4531,2.5297,2.6402,2.5416,2.5005,2.5281,2.5359,2.5415,2.5476,2.5032,2.4749,2.4566,2.3755,2.26,2.1163,2.0137,1.9284,1.8722,0.0,0.0,0.0,0.0,0.0,0.0,0.0,0.0,0.0,0.0,0.0,0.0,0.0,0.0,0.0,2.3796,0.0,2.4315,2.4863,0.0,0.0,0.0,2.177,1.1823,1.549,1.2295,-0.4304,0.0,0.0,1.2162,1.1696,1.5274,2.9326,3.147,3.1169,2.9784,2.8354,2.6878,2.5297,2.2947,2.0706,1.894,1.7025,1.5075,1.3041,1.0342,0.8527,0.8245,0.69,0.5092,0.3639,0.1545,-0.0907,-0.4342,-0.4821,-0.5322,-0.496,-0.5076,-0.5091,-0.4963,-0.5466,-0.6174,2.7238,2.7975,2.6948,2.6703,2.6915,2.5841,2.4437,2.2787,2.1853,2.1218,2.0779,1.9529,1.868,1.8115,1.7318,1.7065,1.7214,1.7055,1.7688,1.8863,1.9094,1.9866,2.1075,2.1431,2.1847,2.2245,2.1773,2.157,2.164,2.1043,2.0641,2.0589,2.1973,2.2814,2.3074,2.3858,2.4248,2.418,2.4509,2.4857,2.5228,2.5288,2.5395,2.5495,2.5049,2.4728,2.4601,2.4172,2.3354,2.2027,1.9743,1.8714,1.9244,1.7957,0.0,0.0,0.0,0.0,0.0,0.0,0.0,0.0,0.0,2.4942,2.3846,0.0,2.5014,0.0,2.4432,2.3614,2.2154,2.2178,0.0,0.0,2.5207,2.3924,2.0799,1.3504,0.6113,-0.0352,-0.6751,-0.6419,0.4825,0.8079,1.369,2.5005,2.8471,2.9288,2.8002,2.7008,2.5887,2.4482,2.2572,2.0529,1.8267,1.5114,1.2815,1.2207,0.9582,0.7654,0.7619,0.6345,0.5152,0.4705,0.2171,-0.013,-0.1225,-0.3404,-0.5145,-0.5137,-0.5069,-0.505,-0.4931,-0.5006,-0.5462,2.6038,2.6298,2.4788,2.371,2.2996,2.3223,2.2047,1.9956,1.9208,1.8625,1.7966,1.6743,1.612,1.5859,1.5118,1.5002,1.5426,1.586,1.6505,1.7335,1.7927,1.8618,1.9323,1.98,2.0331,2.0862,2.0457,2.0414,2.0664,1.9865,1.9558,1.9786,2.0845,2.1759,2.2598,2.3277,2.3562,2.3425,2.428,2.4942,2.5312,2.5324,2.5333,2.5375,2.5006,2.4737,2.4566,2.4313,2.357,2.2152,2.0401,1.9231,1.8904,1.8007,1.7555,0.0,0.0,0.0,0.0,0.0,0.0,0.0,0.0,0.0,0.0,0.0,2.4667,2.4048,2.3018,2.1778,2.0288,2.0435,2.1151,2.2432,2.3427,2.2225,1.7797,1.1994,0.5114,-0.329,-0.7093,-0.5643,0.3214,0.6899,1.2833,2.3787,2.623,2.6725,2.6268,2.5619,2.4761,2.3396,2.1628,1.9508,1.6876,1.4237,1.2289,1.1589,0.9757,0.8142,0.7819,0.652,0.5434,0.5039,0.2948,0.0929,0.0127,-0.1486,-0.3294,-0.4739,-0.5016,-0.4878,-0.4777,-0.4654,-0.499,2.4726,2.4189,2.2682,2.0994,1.9397,2.0363,1.9468,1.7269,1.6441,1.5673,1.4963,1.4405,1.4116,1.4077,1.3476,1.3521,1.4184,1.541,1.5723,1.5437,1.7078,1.7674,1.7444,1.8361,1.9157,1.986,1.9767,1.999,2.0497,1.9513,1.9269,1.9813,2.0463,2.1315,2.2423,2.2755,2.3056,2.3402,2.4376,2.5069,2.5454,2.5356,2.5288,2.524,2.4965,2.4734,2.453,2.4333,2.3552,2.2153,2.1442,2.0246,1.8507,1.8593,1.8206,0.0,1.6885,0.0,0.0,0.0,0.0,0.0,0.0,0.0,0.0,2.3746,2.3004,2.1846,2.033,1.9033,1.8093,1.8568,1.9006,1.9294,2.1114,1.8764,1.0186,1.0795,0.6522,-0.7877,-0.683,-0.2172,0.4903,0.7701,1.3341,2.2883,2.4622,2.4441,2.4504,2.4254,2.3493,2.213,2.0353,1.8139,1.557,1.3936,1.27,1.1531,1.0143,0.9133,0.8504,0.7002,0.5705,0.4862,0.3737,0.2352,0.0594,0.0121,-0.1079,-0.368,-0.4231,-0.4363,-0.4477,-0.4529,-0.4736,2.4222,2.3714,2.2265,2.0841,1.939,1.8337,1.6507,1.4298,1.5078,1.4966,1.4337,1.4748,1.4673,1.4077,1.397,1.397,1.4111,1.4552,1.4946,1.5324,1.5846,1.6774,1.7935,1.8173,1.876,1.9708,1.9723,1.9757,1.9867,1.9225,1.9198,1.9768,2.0008,2.079,2.2125,0.0,0.0,0.0,2.4369,2.496,2.524,2.5279,2.5343,2.5435,2.5031,0.0,2.4727,2.4406,2.3822,2.2979,2.198,0.0,0.0,0.0,0.0,0.0,0.0,0.0,0.0,0.0,0.0,0.0,1.6512,1.7242,2.0042,2.0014,1.9248,1.7903,1.6852,1.5536,1.3774,1.3701,1.4299,1.5853,1.836,1.6759,0.9061,0.9587,0.6542,-0.3589,-0.2983,0.0876,0.7116,1.1687,1.645,2.1738,2.3361,2.3646,2.3209,2.2853,2.2153,2.1097,1.9181,1.7197,1.5591,1.3962,1.2744,1.1663,1.0074,0.8944,0.8584,0.7007,0.5448,0.4752,0.4366,0.3651,0.2101,0.0854,-0.0057,-0.0899,-0.1906,-0.3081,-0.4239,-0.4463,-0.468,2.3515,2.2778,2.1371,1.976,0.0,1.6545,1.4639,1.2721,1.3987,1.4133,1.3567,1.4202,1.4102,1.3516,1.3477,1.3477,1.3547,1.423,1.4729,1.5015,1.5723,1.6638,1.7716,1.7958,1.8535,1.9281,1.9773,1.9882,1.9675,1.9416,1.9404,1.9754,2.0059,2.0825,2.2074,2.2778,2.3317,2.3644,2.4412,2.4977,2.534,2.5336,2.5311,2.5332,2.4994,0.0,0.0,0.0,0.0,0.0,0.0,0.0,0.0,0.0,0.0,1.602,1.4824,1.3978,1.3432,1.3286,1.3516,1.4153,1.3355,1.3909,1.6564,1.6793,1.6738,1.6446,1.3861,1.2364,1.2928,1.2962,1.3271,1.4031,1.7852,1.7107,0.9431,1.0014,0.8463,0.1509,0.2135,0.6027,1.1112,1.5683,1.953,2.2374,2.3456,2.3634,2.279,2.2181,2.1493,2.0353,1.8841,1.7262,1.6083,1.4765,1.3392,1.2404,1.1156,1.0054,0.937,0.8053,0.6773,0.5747,0.4995,0.4177,0.3527,0.2689,0.179,0.028,-0.1178,-0.2639,-0.4144,-0.447,-0.457,2.2698,2.1728,2.0302,1.8651,1.6887,1.5448,1.3825,1.2214,1.307,0.0,0.0,1.3501,1.3511,1.32,1.3178,1.314,1.3296,1.4387,1.4858,1.4937,1.6107,1.6918,1.7475,1.7995,1.8559,1.9177,1.9919,2.0124,1.9803,1.9687,1.9649,1.9705,2.0118,2.0918,2.2109,2.342,2.4019,2.3934,2.4495,2.5038,2.5466,2.5371,2.53,2.5265,2.4968,2.4731,2.4566,2.4704,2.4396,2.3658,2.2684,2.1752,2.0767,1.9353,1.7935,1.6617,1.5475,1.4241,1.2962,1.2471,1.1889,1.1034,1.0799,1.1581,1.3656,1.3613,1.3882,1.4811,1.0946,0.9562,1.2388,1.3098,1.3378,1.3464,1.8201,1.7714,0.9576,1.128,1.1041,0.5436,0.6867,1.0962,1.5067,1.8808,2.1964,2.3581,2.4045,2.3712,2.2748,2.1876,2.0973,1.9995,1.8936,1.7825,1.6723,1.5727,1.4499,1.3205,1.2416,1.1567,1.0426,0.9347,0.8302,0.716,0.5742,0.4827,0.4639,0.4425,0.3583,0.1062,-0.0728,-0.2188,-0.3365,-0.3919,-0.4132,2.1764,2.0782,1.9476,1.8293,1.7164,1.5959,1.471,1.3443,1.2532,1.2705,1.3684,1.3768,1.405,1.4433,1.4468,1.4468,1.4479,1.5186,1.5471,1.5544,1.6675,1.749,1.7997,1.8521,1.9236,2.0058,2.0246,2.028,2.0177,1.9798,1.9624,1.9685,1.9707,2.0552,2.2031,2.2923,2.3653,2.4221,2.4591,2.5006,2.5466,2.5415,2.5404,2.5438,2.5041,2.4776,2.4743,2.422,2.3674,2.3276,2.3078,2.2337,2.1052,2.043,1.9251,1.7218,1.5953,1.4686,1.3263,1.2079,1.0621,0.908,0.9305,1.04,1.2138,0.9951,0.878,0.9453,0.8317,0.7833,0.9279,1.1128,1.326,1.5736,1.8239,1.7218,1.1445,1.336,1.3171,0.7684,0.9526,1.3256,1.7398,2.0151,2.2313,2.3906,2.4317,2.3933,2.2783,2.1357,2.0512,2.0142,1.9388,1.8408,1.7418,1.6597,1.5454,1.3918,1.3168,1.2444,1.1599,1.0112,0.8922,0.8429,0.6763,0.5588,0.5374,0.4838,0.4012,0.2558,0.1059,-0.028,-0.078,-0.1667,-0.2847,2.1162,2.0042,1.917,1.8023,1.6731,1.562,1.4778,1.4272,1.3684,1.3507,1.3862,1.4503,1.4732,1.4744,1.505,1.5017,1.4755,1.532,1.5572,1.567,1.6761,1.7584,1.8087,1.8636,1.9383,2.028,2.055,2.0698,2.0649,2.0467,2.023,2.007,2.023,2.1138,2.2634,2.3041,2.365,2.4561,2.4723,2.5025,2.5505,2.5438,2.543,2.5485,2.5139,2.4924,2.481,2.4579,2.4371,2.4193,2.3532,2.2962,2.2524,2.0926,1.9388,1.8029,1.6689,1.5336,1.401,1.2693,1.1498,1.0325,1.0447,1.1247,1.271,1.0046,0.8352,0.8699,0.9105,1.0735,1.3422,1.4443,1.5922,1.8589,2.0645,1.9835,1.5818,1.552,1.4939,1.2051,1.3227,1.5977,1.9423,2.1731,2.3411,2.4566,2.447,2.3961,2.3418,2.218,2.1198,2.0892,2.0005,1.92,1.8528,1.7271,1.6182,1.5283,1.4424,1.3504,1.258,1.1382,1.0383,0.8992,0.7776,0.7004,0.6337,0.5187,0.4401,0.395,0.3229,0.2211,0.1234,0.037,-0.075,2.0569,1.9375,1.8881,1.7799,1.6361,1.5365,1.488,1.4915,1.4869,1.4641,1.4365,1.5231,1.5421,1.5152,1.5599,1.5555,1.5197,1.5599,1.5828,1.5903,1.696,1.7701,1.8164,1.8751,1.9579,2.0416,2.0829,2.1039,2.1118,2.115,2.0943,2.0667,2.0879,2.1752,2.3173,2.3206,2.3731,2.4727,2.4804,2.5025,2.5466,2.5451,2.5442,2.5496,2.526,2.5026,2.4877,2.4855,2.4816,2.4729,2.3754,2.33,2.3379,2.1392,1.9758,1.8862,1.7745,1.646,1.4966,1.3906,1.3007,1.2349,1.2368,1.2913,1.3707,1.2159,1.06,1.0226,1.1399,1.3841,1.6971,1.8185,1.9191,2.1237,2.2805,2.2213,1.9152,1.7974,1.7023,1.5844,1.6701,1.8441,2.0829,2.3065,2.4467,2.4808,2.4526,2.4205,2.4004,2.3165,2.2439,2.187,2.0826,1.9834,1.9606,1.8307,1.7151,1.6727,1.5747,1.4738,1.3705,1.3121,1.1965,0.9969,0.8843,0.8034,0.7036,0.585,0.5101,0.4976,0.4663,0.4133,0.3001,0.265,0.1737,1.9803,1.8867,1.8377,1.7544,1.6454,1.5764,1.5499,1.5543,1.5499,1.5487,1.5454,1.5531,1.5908,1.6293,1.638,1.6337,1.6293,1.6392,1.6405,1.6534,1.7517,1.806,1.82,1.9141,2.007,2.0829,2.0959,2.1181,2.1491,2.1538,2.1538,2.1444,2.1175,2.1759,2.3023,2.3194,2.3731,2.479,2.4804,2.5019,2.5466,2.5493,2.5509,2.5585,2.5331,2.5158,2.505,2.446,2.408,2.3966,2.3495,2.2987,2.25,2.2068,2.116,1.9682,1.9375,1.8389,1.6283,1.5464,1.4806,1.4183,1.4695,1.5215,1.5753,1.629,1.5633,1.4182,1.4136,1.5588,1.7506,1.9358,2.113,2.2887,2.3463,2.2869,2.129,2.0173,1.9155,1.827,1.8882,2.0235,2.1999,2.3593,2.4629,2.512,2.4916,2.4631,2.4426,2.4022,2.359,2.3194,2.2012,2.0685,1.9928,1.9528,1.8588,1.7468,1.6696,1.5935,1.5002,1.3543,1.1945,1.1165,0.9565,0.8239,0.778,0.6956,0.6216,0.6225,0.5862,0.519,0.5004,0.4862,0.3893,1.9302,1.8324,1.7854,1.7188,1.6509,1.6238,1.6139,1.6151,1.6139,1.6139,1.6182,1.6471,1.6557,1.6522,1.6534,1.6534,1.6534,1.6534,1.6534,1.6595,1.7585,1.8087,1.8194,1.9207,2.0,2.0583,2.0862,2.1229,2.1538,2.1617,2.1617,2.1598,2.1444,2.1984,2.3117,2.3189,2.3731,2.4775,2.4804,2.5019,2.538,2.5486,2.5522,2.5527,2.5478,2.5317,2.5111,2.479,2.4473,2.4081,2.3821,2.362,2.3414,2.2778,2.2012,2.1129,2.0374,1.9118,1.7263,1.7474,1.7328,1.6417,1.7377,1.8251,1.8871,1.9462,1.9563,1.9342,1.8255,1.8304,2.008,2.1308,2.2592,2.3938,2.4256,2.3687,2.2247,2.1634,2.0918,2.0077,2.0796,2.1823,2.2993,2.4232,2.504,2.5275,2.5149,2.4965,2.4788,2.4473,2.4155,2.3832,2.3053,2.2163,2.122,2.0392,1.9626,1.8808,1.8177,1.7511,1.5797,1.5016,1.3724,1.2057,1.0535,0.9402,0.9024,0.8279,0.7578,0.7524,0.7072,0.6441,0.6421,0.6343,0.5715,1.9126,1.8288,1.7585,1.6993,1.6522,1.6534,1.6534,1.6534,1.6534,1.6534,1.6565,1.7076,1.7063,1.6752,1.6723,1.6637,1.6522,1.6534,1.6595,1.6795,1.7666,1.8207,1.8418,1.9273,1.998,2.0483,2.0829,2.1291,2.1718,2.1625,2.1642,2.1794,2.1982,2.2443,2.3153,2.3454,2.4135,2.4957,2.5084,2.5289,2.5606,2.5751,2.573,2.5547,2.5566,2.5486,2.5253,2.5166,2.4941,2.453,2.4329,2.4263,2.4321,2.348,2.2768,2.2231,2.1252,2.0149,1.8907,1.9611,1.9733,1.9007,1.9878,2.0774,2.1384,2.1793,2.2412,2.3088,2.1928,2.1518,2.2447,2.3098,2.3767,2.466,2.4746,2.4164,2.3185,2.2635,2.1973,2.1566,2.2062,2.3049,2.3928,2.4797,2.5385,2.5425,2.5346,2.5232,2.5065,2.4774,2.4509,2.4239,2.3895,2.3236,2.2399,2.146,2.0579,1.9889,1.928,1.8272,1.6447,1.5928,1.5068,1.2932,1.1934,1.1039,1.0218,0.9492,0.8786,0.8624,0.8268,0.7906,0.7841,0.7755,0.7828,1.9369,1.8727,1.7747,1.6951,1.6522,1.6534,1.6534,1.6534,1.6534,1.6534,1.6565,1.7105,1.7312,1.7229,1.7271,1.6993,1.6565,1.6565,1.6795,1.7229,1.7867,1.8366,1.8893,1.9442,2.012,2.0795,2.0926,2.1415,2.2163,2.1838,2.1832,2.2282,2.2917,2.3237,2.3478,2.4306,2.509,2.5614,2.5858,2.6027,2.6193,2.6493,2.6321,2.5723,2.5605,2.5586,2.5539,2.5331,2.5207,2.5235,2.4922,2.4762,2.4711,2.4229,2.3494,2.2693,2.2118,2.1678,2.1332,2.1574,2.1578,2.1368,2.1561,2.2097,2.2735,2.3088,2.3577,2.4265,2.4282,2.4265,2.4148,2.4286,2.4606,2.4872,2.4659,2.437,2.4195,2.2994,2.2574,2.283,2.2989,2.3589,2.4886,2.5281,2.5434,2.5527,2.5529,2.541,2.5239,2.5105,2.4943,2.4693,2.4286,2.3658,2.28,2.2112,2.1444,2.0638,1.977,1.8976,1.7557,1.618,1.498,1.3766,1.2441,1.1545,1.1197,1.0615,0.983,0.9596,0.9751,0.9597,0.9554,0.9781,0.9877,1.8688,1.7827,1.7105,1.668,1.6522,1.6534,1.6534,1.6534,1.6534,1.6534,1.668,1.7435,1.7626,1.7353,1.8013,1.7827,1.7076,1.6993,1.7105,1.7394,1.821,1.8727,1.893,1.9442,1.998,2.0528,2.0859,2.1462,2.2242,2.2587,2.2824,2.3119,2.3981,2.4512,2.4761,2.5321,2.5932,2.6433,2.6681,2.6851,2.7037,2.7363,2.714,2.6327,2.5842,2.5586,2.5547,2.5486,2.5464,2.5434,2.5149,2.5031,2.5057,2.4526,2.4007,2.3538,2.3245,2.284,2.237,2.2776,2.2893,2.2494,2.3048,2.3551,2.3989,2.4286,2.4602,2.4941,2.509,2.5069,2.4982,2.4957,2.5024,2.5155,2.4905,2.4568,2.4286,2.3775,2.3504,2.3588,2.3837,2.4465,2.5002,2.5383,2.5453,2.5473,2.5563,2.5547,2.5439,2.5364,2.5267,2.5041,2.4784,2.4454,2.3952,2.2993,2.2125,2.1094,2.0148,1.8827,1.7467,1.6564,1.544,1.4303,1.2948,1.2448,1.2258,1.1708,1.0974,1.091,1.104,1.1186,1.1337,1.1498,1.1733,1.8535,1.7598,1.7201,1.6795,1.6522,1.6534,1.6534,1.6534,1.6534,1.6534,1.6723,1.7626,1.7907,1.7747,1.8496,1.8535,1.7814,1.7666,1.7626,1.7867,1.8574,1.902,1.9207,1.953,1.9995,2.057,2.1151,2.185,2.2637,2.3142,2.3533,2.3808,2.501,2.5588,2.5656,2.6225,2.686,2.7172,2.7401,2.7593,2.7789,2.809,2.7884,2.7162,2.6609,2.6074,2.5566,2.5566,2.5582,2.5538,2.5379,2.5245,2.5196,2.4791,2.4463,2.4278,2.4155,2.3842,2.3346,2.375,2.3906,2.3469,2.4045,2.4591,2.4822,2.4964,2.5157,2.533,2.5387,2.5367,2.5344,2.5252,2.5242,2.53,2.5035,2.4708,2.4489,2.4211,2.3998,2.3998,2.4385,2.4904,2.5274,2.5408,2.5465,2.5453,2.5605,2.5644,2.5605,2.5533,2.5464,2.5262,2.5097,2.486,2.4451,2.369,2.2865,2.1888,2.0752,1.9246,1.7869,1.6985,1.5985,1.4833,1.4105,1.3684,1.3182,1.2686,1.2424,1.2302,1.2413,1.2601,1.2815,1.3121,1.3258,1.9043,1.8106,1.8092,1.7381,1.6565,1.6534,1.6534,1.6534,1.6516,1.6591,1.6771,1.7733,1.8273,1.8296,1.8931,1.9008,1.8951,1.859,1.8534,1.8879,1.9017,1.9324,1.9796,1.9972,2.0446,2.1239,2.195,2.2693,2.3393,2.3573,2.3942,2.4709,2.6045,2.6454,2.564,2.7066,2.7765,2.7871,2.8046,2.8236,2.8418,2.8704,2.8529,2.7972,2.7884,2.7219,2.582,2.5703,2.5723,2.5684,2.5601,2.5428,2.5187,2.5081,2.4992,2.4799,2.4793,2.4623,2.435,2.4579,2.4653,2.443,2.4692,2.4946,2.5089,2.5167,2.5238,2.5372,2.5434,2.5465,2.5464,2.5397,2.5356,2.5292,2.5015,2.4783,2.4651,2.4155,2.3876,2.4228,2.4632,2.4967,2.529,2.5446,2.5505,2.5548,2.5625,2.5684,2.5664,2.5605,2.5566,2.5464,2.5293,2.5053,2.4737,2.4316,2.3565,2.2729,2.1524,2.0199,1.8765,1.77,1.6747,1.5668,1.5125,1.4706,1.4398,1.3921,1.3621,1.3518,1.3761,1.3945,1.4191,1.438,1.4544,1.8727,1.8106,1.7706,1.716,1.6522,1.6534,1.6534,1.6584,1.6923,1.7115,1.7393,1.8682,1.9349,1.96,2.0338,2.0789,2.0803,2.0631,2.024,1.9759,1.9985,2.0451,2.1,2.1371,2.2043,2.2964,2.3547,2.3894,2.4218,2.4635,2.5183,2.5828,2.6908,2.7531,2.743,2.8239,2.865,2.8672,2.887,2.9038,2.912,2.9423,2.9265,2.8626,2.8668,2.8251,2.7314,2.6769,2.625,2.5742,2.5629,2.552,2.5408,2.5385,2.5273,2.513,2.522,2.5101,2.4828,2.5042,2.5165,2.5027,2.5124,2.5258,2.5334,2.5292,2.5304,2.5381,2.5388,2.5351,2.5351,2.5351,2.5351,2.5354,2.5024,2.4787,2.4734,2.4355,2.4284,2.4554,2.4737,2.4948,2.5233,2.539,2.5444,2.5486,2.5567,2.5625,2.5625,2.5625,2.5605,2.5551,2.5382,2.5216,2.4908,2.4676,2.4236,2.3363,2.2262,2.1027,1.963,1.841,1.7464,1.6624,1.6087,1.5702,1.5402,1.5125,1.48,1.4858,1.5081,1.5256,1.5433,1.5553,1.5591,1.9016,1.8728,1.8158,1.764,1.7149,1.7137,1.7131,1.7204,1.7516,1.7818,1.8278,1.9346,2.0031,2.0444,2.1304,2.1695,2.1695,2.1695,2.1431,2.0969,2.0946,2.1335,2.1768,2.2359,2.3071,2.3852,2.4298,2.4642,2.4915,2.5368,2.5868,2.6458,2.7399,2.7987,2.8272,2.8725,2.8975,2.904,2.916,2.931,2.9434,2.9644,2.9618,2.9294,2.936,2.9087,2.8478,2.7984,2.7095,2.5996,2.5664,2.5605,2.5548,2.5522,2.5471,2.5388,2.541,2.5376,2.5181,2.534,2.5449,2.5371,2.5385,2.5427,2.543,2.5324,2.5271,2.5351,2.5245,2.5226,2.5293,2.5313,2.5313,2.536,2.5019,2.476,2.461,2.4445,2.4464,2.4714,2.4818,2.5022,2.5214,2.537,2.539,2.5407,2.5499,2.557,2.5586,2.5605,2.5605,2.5586,2.5492,2.5321,2.512,2.4958,2.4812,2.3952,2.2939,2.1716,2.0406,1.927,1.8252,1.7261,1.6564,1.6363,1.6087,1.6057,1.5881,1.6139,1.6253,1.6196,1.62,1.6349,1.6427,1.985,1.983,1.9266,1.8636,1.815,1.8103,1.8124,1.8205,1.8336,1.8678,1.9243,2.0007,2.0527,2.1064,2.175,2.2009,2.1829,2.1964,2.2248,2.2342,2.2158,2.1979,2.2229,2.3005,2.3716,2.4198,2.4614,2.5063,2.5642,2.5742,2.6012,2.6768,2.7496,2.7906,2.8139,2.8651,2.8975,2.9017,2.9017,2.9156,2.9332,2.9397,2.955,2.9829,2.9855,2.9672,2.9271,2.9135,2.8109,2.6152,2.5762,2.5623,2.5605,2.5605,2.5542,2.548,2.5509,2.5508,2.5494,2.5481,2.5482,2.5479,2.5464,2.5454,2.5369,2.5243,2.516,2.5222,2.51,2.5081,2.5206,2.5233,2.5233,2.5192,2.4949,2.4654,2.4303,2.4357,2.4495,2.4716,2.4904,2.5057,2.5215,2.5332,2.537,2.5399,2.5456,2.5518,2.5566,2.5586,2.5605,2.5586,2.5547,2.5453,2.526,2.507,2.4936,2.4542,2.367,2.2685,2.127,2.009,1.9142,1.8124,1.7231,1.7025,1.6949,1.6979,1.6977,1.7082,1.7071,1.6938,1.7015,1.7182,1.7227,2.0676,1.9887,1.9727,1.9099,1.8239,1.8204,1.8465,1.8923,1.9368,1.9859,2.0509,2.1549,2.1971,2.2279,2.2786,2.3086,2.3011,2.3041,2.3146,2.3295,2.3206,2.3378,2.3724,2.4326,2.4901,2.5384,2.5765,2.6202,2.6404,2.6369,2.6619,2.7161,2.7596,2.8004,2.8316,2.8725,2.8975,2.8975,2.8975,2.9021,2.9108,2.9285,2.9439,2.9551,2.9697,2.9753,2.978,2.9982,2.8956,2.6727,2.5866,2.5554,2.5538,2.5537,2.5527,2.5504,2.5506,2.5517,2.5505,2.5506,2.5512,2.5495,2.5434,2.537,2.5199,2.5206,2.5122,2.503,2.4954,2.4962,2.4946,2.4956,2.4883,2.4741,2.4741,2.4623,2.4303,2.4228,2.4357,2.4543,2.4741,2.493,2.5077,2.5216,2.5322,2.5341,2.538,2.5447,2.5517,2.5566,2.5586,2.5644,2.5625,2.5527,2.541,2.5206,2.5064,2.4953,2.44,2.3839,2.2315,2.0818,2.0025,1.921,1.822,1.7788,1.7961,1.8113,1.8093,1.7846,1.7899,1.783,1.8023,1.8181,1.8113,2.0909,2.0265,1.9987,1.9495,1.8918,1.9175,1.951,1.9863,2.0433,2.1088,2.1721,2.2369,2.283,2.3098,2.3465,2.3595,2.3595,2.3595,2.358,2.358,2.355,2.3958,2.461,2.5066,2.5559,2.6243,2.6556,2.6641,2.6674,2.6708,2.6858,2.7051,2.7439,2.7805,2.8156,2.854,2.8858,2.8952,2.8975,2.8975,2.9035,2.9145,2.9307,2.9372,2.9512,2.9657,2.9865,3.0194,2.9398,2.7531,2.6164,2.5427,2.5492,2.5512,2.5516,2.5507,2.5503,2.5515,2.5495,2.5415,2.534,2.5308,2.5222,2.5101,2.498,2.4981,2.4855,2.4855,2.4818,2.4788,2.4809,2.4799,2.4711,2.4578,2.4607,2.4545,2.4246,2.4284,2.4375,2.4512,2.4666,2.4834,2.4983,2.5126,2.5214,2.5283,2.5332,2.539,2.5444,2.5513,2.5586,2.5625,2.5644,2.5566,2.5505,2.5359,2.5255,2.5144,2.4905,2.4409,2.3244,2.1641,2.0699,1.9938,1.918,1.8729,1.8887,1.887,1.8471,1.8365,1.8573,1.8649,1.869,1.8765,1.8735,2.1021,2.0832,2.0232,1.9888,1.9851,2.0383,2.061,2.0933,2.1369,2.2041,2.2644,2.2803,2.3098,2.3595,2.3551,2.3595,2.3595,2.3595,2.3595,2.3595,2.3711,2.4173,2.5268,2.5399,2.594,2.6668,2.6843,2.7063,2.7199,2.7097,2.7012,2.73,2.7543,2.7814,2.8397,2.8551,2.8735,2.9112,2.9049,2.8994,2.8975,2.9035,2.9149,2.9307,2.9397,2.9514,2.9734,2.9981,2.9594,2.8272,2.6348,2.5553,2.5563,2.5621,2.5457,2.5418,2.5399,2.5395,2.5395,2.5175,2.5082,2.5063,2.4926,2.479,2.476,2.47,2.467,2.4654,2.4574,2.4613,2.4659,2.4711,2.4638,2.4481,2.4461,2.4375,2.4303,2.4375,2.4461,2.4495,2.4654,2.4847,2.4929,2.5019,2.5111,2.5293,2.5332,2.5351,2.539,2.5444,2.5542,2.5605,2.5605,2.5605,2.5554,2.5493,2.5418,2.5329,2.5154,2.4713,2.3922,2.2578,2.1435,2.0613,2.0466,2.0078,1.9705,1.9471,1.9235,1.9295,1.976,1.9376,1.8974,1.9063,1.9062,2.2386,2.1472,2.1376,2.0706,1.9901,1.994,2.0636,2.1561,2.167,2.2526,2.3231,2.3421,2.3524,2.3655,2.3729,2.3595,2.3714,2.3714,2.3595,2.3595,2.3595,2.4575,2.5746,2.6045,2.6438,2.7158,2.807,2.8433,2.8452,2.8334,2.8467,2.8454,2.8613,2.9231,2.9513,2.9319,2.9526,2.9747,2.9342,2.903,2.8989,2.8975,2.9021,2.9134,2.9291,2.9414,2.955,2.9756,2.9723,2.8886,2.709,2.5836,2.606,2.5744,2.5408,2.5252,2.5196,2.5156,2.501,2.5026,2.4884,2.4932,2.4907,2.4731,2.4575,2.4748,2.4634,2.4459,2.4437,2.4601,2.4482,2.4394,2.434,2.4303,2.4284,2.4247,2.4209,2.4228,2.4266,2.4339,2.4561,2.4806,2.4856,2.5075,2.5176,2.5283,2.5313,2.5332,2.5361,2.5406,2.5492,2.5564,2.5605,2.5598,2.5612,2.5544,2.5495,2.5428,2.5293,2.5158,2.4362,2.379,2.2736,2.229,2.2154,2.1604,2.0749,2.1092,2.1025,2.1036,2.0859,2.0503,2.0164,1.9899,1.9757,2.1979,2.0855,2.0805,2.0589,2.0371,2.09,2.174,2.2602,2.3307,2.39,2.4447,2.4537,2.4537,2.4537,2.4552,2.4552,2.4537,2.4537,2.4372,2.4265,2.4387,2.5227,2.6255,2.6992,2.7547,2.8065,2.8605,2.8989,2.8991,2.9045,2.8926,2.9011,2.921,2.9351,2.9884,2.9864,2.988,2.9846,2.9539,2.9192,2.9016,2.8808,2.8847,2.898,2.9134,2.9222,2.9262,2.9303,2.942,2.9042,2.7919,2.6694,2.6422,2.623,2.5975,2.5578,2.5887,2.5972,2.5942,2.5489,2.5239,2.522,2.5138,2.5055,2.5097,2.5335,2.5542,2.5392,2.5393,2.5353,2.4819,2.4319,2.4264,2.419,2.419,2.419,2.419,2.419,2.419,2.4228,2.4375,2.4599,2.4787,2.4994,2.5179,2.5234,2.5284,2.5313,2.5332,2.537,2.5462,2.5521,2.5572,2.5605,2.5623,2.5606,2.555,2.5484,2.539,2.5332,2.5011,2.458,2.4148,2.3662,2.3057,2.2426,2.1816,2.2289,2.2461,2.199,2.1696,2.1618,2.1487,2.1197,2.113,2.1233,2.0091,2.0167,2.0496,2.1102,2.2146,2.299,2.3881,2.4966,2.5198,2.5595,2.5612,2.5405,2.554,2.551,2.557,2.554,2.548,2.5122,2.4881,2.5198,2.586,2.6734,2.7683,2.8573,2.9164,2.9437,2.9458,2.9482,2.933,2.96,2.9397,2.9417,2.9824,2.9989,2.9887,3.0101,3.0116,2.9471,2.8959,2.8738,2.8492,2.8638,2.892,2.8998,2.9021,2.9048,2.9055,2.9031,2.8996,2.8989,2.7993,2.6973,2.67,2.6915,2.6186,2.665,2.6784,2.6626,2.6262,2.5838,2.5838,2.5706,2.5607,2.5735,2.6068,2.6305,2.6436,2.637,2.617,2.5612,2.4947,2.4521,2.4411,2.4318,2.419,2.419,2.419,2.419,2.4209,2.4339,2.4515,2.4682,2.4866,2.5046,2.5186,2.5244,2.5313,2.5332,2.5341,2.5427,2.5484,2.555,2.5622,2.5644,2.5625,2.5566,2.5527,2.5469,2.5423,2.5416,2.5128,2.47,2.4236,2.3656,2.3179,2.3034,2.3358,2.3282,2.2766,2.2622,2.2656,2.2577,2.2473,2.2418,2.2448,2.1355,2.1772,2.21,2.2259,2.2538,2.3385,2.4408,2.4896,2.5179,2.5628,2.5649,2.5719,2.5689,2.563,2.563,2.5719,2.5764,2.5661,2.5438,2.5751,2.6261,2.7243,2.8113,2.8997,2.9972,3.0442,3.061,3.07,3.0835,3.0565,3.0734,3.07,3.0866,3.0748,3.0421,3.0226,3.0255,2.929,2.8401,2.7968,2.821,2.8499,2.8839,2.8905,2.8965,2.8989,2.898,2.8989,2.8993,2.9001,2.8415,2.7688,2.7381,2.714,2.6914,2.7009,2.72,2.6999,2.6683,2.6452,2.6434,2.6413,2.6392,2.6447,2.6594,2.6906,2.6796,2.6762,2.656,2.6405,2.5676,2.5295,2.5054,2.4686,2.4319,2.4263,2.4226,2.4208,2.4209,2.4321,2.4445,2.4601,2.4747,2.4903,2.5056,2.5186,2.5254,2.5303,2.5322,2.538,2.544,2.5512,2.5603,2.5663,2.5625,2.5586,2.5586,2.5527,2.5488,2.5467,2.5427,2.511,2.4724,2.4656,2.4541,2.4511,2.4473,2.4406,2.4091,2.3919,2.3727,2.3582,2.3437,2.3283,2.2402,2.1568,2.1838,2.2395,2.3001,2.3433,2.4364,2.5586,2.6054,2.6356,2.6574,2.6639,2.6617,2.6617,2.6617,2.6467,2.6228,2.6527,2.6444,2.6251,2.6504,2.6871,2.765,2.8449,2.9147,2.994,3.0683,3.119,3.119,3.1157,3.119,3.1173,3.119,3.1314,3.1397,3.1055,3.0422,3.0138,2.9201,2.8185,2.7303,2.777,2.8255,2.8404,2.863,2.8803,2.8925,2.8669,2.8749,2.8868,2.8742,2.8565,2.8374,2.8178,2.7881,2.751,2.7677,2.7903,2.7725,2.7523,2.7236,2.7218,2.7236,2.7218,2.7346,2.7585,2.7728,2.7728,2.7336,2.7222,2.7196,2.6472,2.6106,2.5894,2.5311,2.4908,2.4742,2.4447,2.4355,2.43,2.4321,2.4431,2.4495,2.4651,2.4797,2.4935,2.5086,2.5186,2.5274,2.5322,2.5351,2.5412,2.5506,2.5574,2.5641,2.5644,2.5605,2.5605,2.5605,2.5566,2.552,2.5486,2.547,2.5264,2.5351,2.5331,2.5207,2.4898,2.5158,2.5313,2.487,2.4534,2.4495,2.4399,2.4197,2.2231,2.1669,2.1939,2.2713,2.3792,2.4584,2.5607,2.6662,2.7277,2.75,2.756,2.753,2.75,2.7545,2.752,2.726,2.6841,2.7385,2.7214,2.6977,2.721,2.7545,2.7929,2.867,2.9419,2.9625,3.0658,3.119,3.119,3.119,3.119,3.119,3.119,3.119,3.1223,3.1093,3.0377,3.0011,2.9282,2.8537,2.7624,2.7613,2.7964,2.7897,2.8164,2.8479,2.8684,2.8513,2.8402,2.8511,2.8449,2.8406,2.8707,2.8779,2.8489,2.8066,2.8558,2.8906,2.8792,2.8466,2.8044,2.8044,2.8044,2.8026,2.8117,2.8466,2.8847,2.8865,2.8489,2.8041,2.7949,2.7301,2.6936,2.6684,2.6172,2.5628,2.5495,2.5254,2.4869,2.4722,2.4483,2.445,2.4541,2.4524,2.4686,2.4854,2.5003,2.5165,2.5253,2.5303,2.5332,2.5401,2.548,2.558,2.5618,2.5643,2.5625,2.5625,2.5644,2.5625,2.5586,2.5561,2.5523,2.55,2.5437,2.5376,2.5348,2.5332,2.537,2.537,2.5351,2.5245,2.5053,2.4995,2.4889,2.2799,2.2317,2.3482,2.4463,2.5149,2.5859,2.6686,2.7401,2.7539,2.756,2.756,2.756,2.756,2.756,2.756,2.7565,2.7535,2.7505,2.752,2.739,2.752,2.756,2.7745,2.8857,2.9225,2.9496,3.0559,3.1095,3.1134,3.1134,3.119,3.119,3.119,3.119,3.1179,3.0921,3.0544,3.0598,2.9734,2.8819,2.8283,2.8259,2.8198,2.8053,2.8021,2.8167,2.8365,2.8253,2.8174,2.7851,2.82,2.8219,2.8102,2.804,2.8019,2.8111,2.8489,2.8975,2.8915,2.8792,2.8723,2.8705,2.8741,2.8851,2.8773,2.8755,2.8938,2.8975,2.8782,2.8644,2.8461,2.804,2.7724,2.7323,2.6818,2.6469,2.631,2.5807,2.5463,2.5439,2.5274,2.4852,2.469,2.4612,2.4572,2.4766,2.4943,2.5153,2.5224,2.5274,2.5332,2.5406,2.5445,2.5532,2.5574,2.5606,2.5625,2.5625,2.5644,2.5644,2.5625,2.5605,2.56,2.555,2.5499,2.5478,2.5474,2.5466,2.5466,2.5453,2.5425,2.5448,2.5457,2.5447,2.538,2.2997,2.2799,2.3382,2.4323,2.5398,2.5728,2.6549,2.7458,2.756,2.756,2.756,2.756,2.756,2.756,2.756,2.756,2.756,2.759,2.7625,2.759,2.759,2.7575,2.781,2.8415,2.8889,2.9225,2.9978,3.0617,3.074,3.1015,3.119,3.119,3.119,3.119,3.119,3.0886,3.0925,3.0738,3.0061,2.92,2.8885,2.875,2.8665,2.8505,2.8303,2.8289,2.8259,2.7871,2.783,2.7654,2.7872,2.7833,2.788,2.7903,2.7906,2.7929,2.8162,2.8452,2.8627,2.8855,2.8934,2.8994,2.8994,2.8957,2.8938,2.8805,2.8675,2.8658,2.8464,2.8402,2.8424,2.8084,2.794,2.7655,2.7227,2.7085,2.6835,2.6368,2.6004,2.603,2.6066,2.5737,2.5406,2.5299,2.5335,2.5437,2.5537,2.5577,2.5474,2.5284,2.5332,2.538,2.5436,2.5472,2.5507,2.5543,2.5576,2.5586,2.5605,2.5605,2.5644,2.5633,2.5625,2.5644,2.5619,2.5595,2.5588,2.5551,2.5514,2.5505,2.5511,2.5527,2.5527,2.5504,2.5446,2.3477,2.3339,2.3368,2.4163,2.5342,2.5398,2.6269,2.7509,2.7357,2.7408,2.756,2.756,2.756,2.756,2.756,2.756,2.764,2.779,2.773,2.7664,2.7709,2.7724,2.7871,2.8238,2.8574,2.8527,2.9805,3.0208,3.0351,3.074,3.119,3.119,3.119,3.119,3.119,3.114,3.114,3.1111,3.0509,2.9888,2.9417,2.9299,2.9183,2.8966,2.8749,2.8562,2.8423,2.801,2.7837,2.7747,2.7805,2.7753,2.7569,2.7975,2.8047,2.8018,2.8056,2.825,2.8415,2.858,2.8749,2.8863,2.8994,2.8975,2.8957,2.8695,2.8461,2.8469,2.8308,2.8084,2.7933,2.7906,2.7886,2.7756,2.7536,2.746,2.7381,2.7133,2.6877,2.6856,2.6893,2.6898,2.6585,2.6307,2.6208,2.6204,2.6158,2.6077,2.5952,2.577,2.6005,2.6236,2.6294,2.6217,2.5889,2.5858,2.5759,2.5641,2.5668,2.5619,2.5662,2.5684,2.5664,2.5684,2.5684,2.5678,2.5644,2.5593,2.5547,2.5586,2.5586,2.5566,2.5566,2.5547,2.5519,2.4406,2.3953,2.4144,2.465,2.5398,2.5398,2.6229,2.7512,2.6907,2.7078,2.7664,2.7604,2.7664,2.7604,2.767,2.7655,2.7685,2.8248,2.8158,2.8053,2.8128,2.8173,2.8182,2.832,2.8523,2.8684,2.9483,2.9717,2.9821,3.0435,3.0918,3.119,3.1095,3.1151,3.119,3.119,3.119,3.119,3.0937,3.0649,3.0209,2.9956,2.9756,2.9253,2.9066,2.8965,2.8935,2.8528,2.8201,2.7998,2.8166,2.7942,2.7703,2.8278,2.8444,2.8199,2.8253,2.8406,2.8488,2.8382,2.8264,2.8471,2.8755,2.8949,2.8773,2.891,2.874,2.83,2.8014,2.7943,2.7888,2.787,2.7679,2.7622,2.7512,2.7713,2.7843,2.8207,2.7978,2.7775,2.7699,2.7724,2.7727,2.7408,2.7031,2.7004,2.6669,2.6588,2.6906,2.6866,2.7193,2.7428,2.7525,2.7276,2.6651,2.6516,2.6494,2.6223,2.6047,2.5894,2.5751,2.5742,2.5664,2.5664,2.5644,2.5663,2.5684,2.5625,2.5605,2.5664,2.5684,2.5644,2.5625,2.5605,2.5566,2.4707,2.4481,2.4569,2.4939,2.5398,2.5398,2.6269,2.7409,2.7306,2.7573,2.8203,2.8203,2.8203,2.8113,2.779,2.7829,2.8188,2.8427,2.8607,2.8861,2.9026,2.9026,2.8869,2.8604,2.8546,2.869,2.9061,2.915,2.9012,2.9951,3.0011,3.0251,3.084,3.1134,3.119,3.119,3.119,3.119,3.119,3.0987,3.092,3.0768,3.0654,3.0383,2.979,2.9722,2.959,2.907,2.8779,2.8625,2.8714,2.8405,2.815,2.8802,2.887,2.8589,2.8738,2.8789,2.8796,2.8645,2.8655,2.8703,2.8881,2.8856,2.8513,2.8152,2.7932,2.7705,2.7582,2.7487,2.7265,2.7172,2.7091,2.7178,2.7385,2.7701,2.801,2.8308,2.8578,2.8177,2.8343,2.8521,2.8544,2.8507,2.8105,2.7757,2.7395,2.719,2.7551,2.7793,2.8039,2.8192,2.8241,2.811,2.7486,2.7353,2.7296,2.6901,2.6496,2.6299,2.6119,2.5644,2.5586,2.5586,2.5595,2.5605,2.5625,2.5625,2.5644,2.5684,2.5703,2.5684,2.5684,2.5664,2.5644,2.5209,2.5059,2.5046,2.541,2.5878,2.5709,2.6596,2.7992,2.7963,2.8226,2.8891,2.8891,2.8891,2.8742,2.8472,2.8412,2.8876,2.9146,2.9325,2.952,2.9684,2.9764,2.9516,2.9227,2.8982,2.8914,2.9088,2.9208,2.8989,2.9643,2.9844,3.0071,3.056,3.104,3.0918,3.1095,3.119,3.119,3.119,3.119,3.1173,3.1157,3.1157,3.1038,3.0615,3.0463,3.0226,2.981,2.9401,2.9313,2.9316,2.9197,2.9219,2.9326,2.9479,2.9411,2.9336,2.9309,2.9319,2.9206,2.9145,2.9148,2.9001,2.8758,2.8269,2.7766,2.7646,2.7397,2.71,2.6928,2.6928,2.6996,2.7097,2.7284,2.719,2.7409,2.7666,2.7982,2.836,2.8512,2.8676,2.873,2.887,2.8796,2.8645,2.8416,2.8408,2.82,2.8295,2.8512,2.8602,2.8709,2.8783,2.8564,2.8288,2.8206,2.8065,2.7536,2.7171,2.6882,2.6594,2.614,2.5659,2.5553,2.5543,2.5542,2.5566,2.5625,2.5664,2.5684,2.5703,2.5703,2.5703,2.5684,2.5684,2.6063,2.5598,2.5586,2.6179,2.6927,2.6371,2.7321,2.9005,2.8741,2.8884,2.9549,2.9549,2.9564,2.9505,2.931,2.934,2.9594,3.0028,3.0178,3.0013,3.0328,3.0152,2.9903,2.9633,2.9549,2.9696,2.9742,2.9709,2.9501,3.0188,3.0203,3.0078,3.0529,3.0997,3.0441,3.0878,3.1151,3.119,3.1151,3.119,3.119,3.119,3.119,3.114,3.1072,3.0954,3.0801,3.0429,3.0108,3.0074,3.0074,2.9837,2.9468,3.0366,3.0556,3.0149,3.009,3.0073,3.0065,2.9711,2.961,2.9522,2.9338,2.9057,2.8815,2.8363,2.7849,2.7739,2.7483,2.7555,2.7433,2.7314,2.7467,2.7538,2.7519,2.7489,2.7774,2.787,2.8312,2.8536,2.8515,2.854,2.8821,2.898,2.898,2.8975,2.9223,2.9215,2.902,2.9026,2.9039,2.9095,2.916,2.9121,2.8957,2.9017,2.8824,2.8277,2.7883,2.7691,2.7354,2.6959,2.6439,2.5842,2.5925,2.6316,2.5984,2.5644,2.6055,2.6445,2.582,2.5703,2.5703,2.5703,2.5703,2.642,2.6163,2.6163,2.6696,2.7293,2.6423,2.7055,2.8686,2.9457,2.9965,3.0152,3.0178,3.0193,3.0088,2.9849,2.9864,3.0223,3.0298,3.0387,3.0896,3.1061,3.1036,3.08,3.0369,3.0208,3.0113,3.0135,2.9977,2.9589,3.0348,3.0158,2.9901,3.0366,3.0602,3.0461,3.056,3.0593,3.07,3.0945,3.119,3.119,3.1151,3.1151,3.1151,3.1151,3.1151,3.119,3.0818,3.0751,3.0734,3.0734,3.0565,3.0328,3.114,3.1021,3.0806,3.0808,3.083,3.0823,3.0632,3.0381,3.0065,2.9745,2.9455,2.9059,2.8819,2.8545,2.8408,2.8288,2.8364,2.8477,2.8412,2.8482,2.8518,2.844,2.8288,2.8332,2.8268,2.8403,2.8434,2.842,2.8633,2.8863,2.8975,2.8975,2.8975,2.9127,2.9145,2.8993,2.9165,2.927,2.9363,2.9451,2.9534,2.957,2.9464,2.9513,2.918,2.8852,2.8648,2.8264,2.7755,2.74,2.6929,2.7026,2.7103,2.6848,2.6734,2.716,2.7266,2.6621,2.6016,2.5898,2.582,2.5703,2.6521,2.6521,2.6521,2.6973,2.7486,2.6841,2.7461,2.9002,3.0032,3.0557,3.0768,3.0866,3.0866,3.0731,3.0522,3.0387,3.0866,3.0881,3.0956,3.1452,3.1452,3.1407,3.1258,3.1106,3.0911,3.0717,3.0522,3.0298,3.0387,3.0298,3.0368,3.0388,3.0221,3.0287,3.0339,3.0417,3.0228,3.0207,3.0284,3.0435,3.0477,3.0518,3.0658,3.0781,3.0878,3.0975,3.1112,3.119,3.119,3.119,3.119,3.119,3.119,3.119,3.119,3.119,3.119,3.1173,3.1123,3.1106,3.0806,3.0552,3.0311,2.9888,2.9381,2.9151,2.8982,2.8914,2.9045,2.9228,2.9323,2.9313,2.9194,2.9178,2.9115,2.8902,2.8682,2.8595,2.836,2.8382,2.8396,2.8619,2.8905,2.8929,2.8975,2.8975,2.9017,2.8975,2.8975,2.9138,2.9328,2.9429,2.9492,2.9533,2.9619,2.9709,2.9798,2.9966,2.9685,2.9325,2.8979,2.8445,2.8245,2.8005,2.7775,2.767,2.7804,2.7941,2.7988,2.7809,2.7363,2.6797,2.6269,2.625,2.6328,2.6521,2.6521,2.6521,2.6973,2.7604,2.7683,2.8639,3.0211,3.036,3.0807,3.1452,3.1392,3.1405,3.1465,3.145,3.1405,3.139,3.1362,3.1407,3.1452,3.1467,3.1467,3.1467,3.145,3.133,3.142,3.133,3.1091,3.1362,3.1195,3.1225,3.1135,3.0483,3.0383,3.0464,3.0251,3.0021,2.9779,2.9665,2.9782,2.9798,2.9645,2.9935,3.0149,3.0393,3.0658,3.0878,3.1112,3.119,3.119,3.119,3.119,3.119,3.119,3.119,3.119,3.119,3.119,3.119,3.119,3.1173,3.0937,3.0548,3.0243,3.004,2.9736,2.9621,2.9519,2.955,2.9786,2.9989,2.9786,2.9617,2.9583,2.955,2.9353,2.9028,2.8781,2.8476,2.8345,2.8266,2.845,2.8858,2.8975,2.8975,2.8975,2.8975,2.8975,2.8975,2.8998,2.9149,2.9285,2.9357,2.9448,2.9551,2.9626,2.9717,2.977,2.9939,2.9694,2.9375,2.9171,2.906,2.8794,2.8294,2.8236,2.867,2.8648,2.8418,2.8225,2.8335,2.7754,2.7305,2.75,2.7578,2.6521,2.6521,2.6521,2.6973,2.7736,2.8363,2.924,3.0269,3.0896,3.1351,3.1467,3.1467,3.1467,3.1467,3.1467,3.1467,3.1467,3.1467,3.1452,3.1467,3.1467,3.1467,3.1467,3.1467,3.1467,3.1467,3.1467,3.1467,3.1437,3.1467,3.1467,3.136,3.1016,3.0821,3.0423,3.0046,2.9776,2.9526,2.9469,2.9373,2.9404,2.9388,2.9598,2.9806,3.019,3.0465,3.0675,3.1143,3.1223,3.1252,3.1224,3.1207,3.119,3.119,3.119,3.119,3.119,3.119,3.119,3.119,3.119,3.119,3.092,3.0954,3.0818,3.0598,3.0378,3.026,3.0226,3.048,3.0581,3.0446,3.0328,3.0311,3.026,3.0091,2.9803,2.9417,2.9108,2.8809,2.8703,2.8691,2.907,2.8975,2.8975,2.8975,2.8994,2.903,2.903,2.903,2.9017,2.915,2.9195,2.928,2.9292,2.9342,2.9458,2.9563,2.976,2.9946,2.98,2.9665,2.979,2.9629,2.9236,2.939,2.9763,2.9567,2.921,2.9625,2.9727,2.8977,2.8457,2.8613,2.8555,2.6521,2.6521,2.6837,2.7604,2.8748,2.9628,3.0315,3.0777,3.097,3.1161,3.1467,3.1467,3.1467,3.1467,3.1467,3.1467,3.1467,3.1467,3.1467,3.1467,3.1467,3.1467,3.1467,3.1467,3.1467,3.1467,3.1467,3.1467,3.1467,3.1467,3.1467,3.1467,3.1467,3.1285,3.0893,3.0423,3.0051,2.9703,2.9473,2.9332,2.9368,2.9479,2.956,2.9801,3.0204,3.0387,3.0717,3.1255,3.1575,3.1633,3.1681,3.163,3.1529,3.141,3.1207,3.119,3.119,3.119,3.119,3.119,3.119,3.1207,3.1224,3.1157,3.1157,3.1004,3.0987,3.0987,3.1072,3.1157,3.1173,3.1173,3.1157,3.114,3.1055,3.097,3.0615,3.0243,2.9902,2.9523,2.9372,2.9279,2.9229,2.9117,2.8975,2.8975,2.9104,2.9287,2.925,2.9195,2.9067,2.9053,2.9053,2.9062,2.9127,2.9278,2.937,2.9522,2.9684,2.9832,2.9928,3.0075,3.0086,3.0186,3.0244,3.034,3.034,3.0302,3.0148,3.0544,3.0641,2.9988,2.9513,2.957,2.9394,2.6589,2.6714,2.7537,2.8812,3.0254,3.1014,3.1409,3.1409,3.0837,3.0837,3.1409,3.1467,3.1467,3.1467,3.1467,3.1467,3.1467,3.1467,3.1467,3.1467,3.1467,3.1467,3.1467,3.1467,3.1467,3.1467,3.1467,3.1467,3.1467,3.1467,3.1467,3.1467,3.1467,3.142,3.127,3.0687,3.0383,3.0463,2.9765,2.9342,2.9509,2.9636,2.9818,3.0243,3.0452,3.0704,3.1246,3.1834,3.2331,3.2354,3.2247,3.211,3.1823,3.1732,3.1444,3.141,3.1512,3.1579,3.1613,3.1647,3.1529,3.1461,3.1309,3.1275,3.1292,3.1207,3.119,3.119,3.119,3.119,3.119,3.119,3.119,3.119,3.114,3.1089,3.0937,3.0683,3.0472,3.0187,3.0098,3.0023,3.0125,3.0087,2.9971,2.9531,2.9531,2.98,2.9819,2.9727,2.9677,2.9512,2.9641,2.9714,2.9457,2.9554,2.9425,2.9522,2.972,2.9665,2.9737,2.9999,3.0355,3.0475,3.0583,3.066,3.0679,3.0871,3.1076,3.1076,3.1076,3.0737,3.0567,3.0497,3.0156,2.7417,2.755,2.9066,2.995,3.0404,3.1146,3.1467,3.1467,3.1336,3.1292,3.1467,3.1467,3.1467,3.1467,3.1467,3.1467,3.1467,3.1467,3.1467,3.1467,3.1467,3.1467,3.1467,3.1467,3.1467,3.1467,3.1467,3.1467,3.1467,3.1467,3.1467,3.1467,3.1467,3.1467,3.1495,3.0881,3.0761,3.1046,3.0507,2.9819,2.9759,2.9654,2.9726,3.0023,3.0234,3.0608,3.1087,3.1371,3.1947,3.2233,3.1846,3.1638,3.1483,3.1825,3.1692,3.1495,3.2013,3.2107,3.2101,3.2135,3.2259,3.2063,3.1935,3.1613,3.141,3.1275,3.119,3.1207,3.119,3.119,3.119,3.119,3.119,3.119,3.119,3.119,3.119,3.1093,3.0975,3.0959,3.0861,3.0858,3.0954,3.0931,3.0889,3.0852,3.087,3.098,3.0962,3.0925,3.0999,3.0889,3.0815,3.0742,3.0325,3.0055,3.0042,2.9968,3.012,2.9907,2.9662,3.0181,3.0734,3.0746,3.0814,3.1121,3.1557,3.2042,3.2139,3.1896,3.1691,3.1468,3.1229,3.1118,3.0752,2.8312,2.8441,2.9704,3.0524,3.0896,3.1351,3.1467,3.1467,3.1467,3.1467,3.1467,3.1467,3.1467,3.1467,3.1467,3.1467,3.1467,3.1467,3.1467,3.1467,3.1467,3.1467,3.1467,3.1467,3.1467,3.1467,3.1467,3.1467,3.1467,3.1467,3.1467,3.1467,3.1467,3.1452,3.148,3.1165,3.1106,3.1407,3.1076,3.0746,3.0372,3.0387,3.0432,3.0584,3.0719,3.0945,3.1205,3.156,3.206,3.2367,3.2141,3.171,3.1616,3.166,3.1633,3.159,3.1849,3.2353,3.2266,3.2492,3.283,3.2538,3.2334,3.1945,3.1901,3.1749,3.1461,3.1427,3.1224,3.119,3.119,3.119,3.119,3.119,3.119,3.119,3.1173,3.1125,3.141,3.1788,3.1637,3.1418,3.1443,3.1336,3.1274,3.1187,3.1378,3.1788,3.1843,3.1953,3.2063,3.2082,3.1916,3.1513,3.0987,3.0833,3.0867,3.0751,3.057,3.0782,3.0865,3.0957,3.114,3.1341,3.1648,3.2038,3.2492,3.2897,3.282,3.2519,3.2372,3.2244,3.2006,3.1826,3.1638,2.9254,2.9456,3.0147,3.0837,3.1409,3.1467,3.1467,3.1467,3.1467,3.1467,3.1467,3.1467,3.1467,3.1467,3.1467,3.1467,3.1467,3.1467,3.1467,3.1467,3.1467,3.1467,3.1467,3.1467,3.1467,3.1467,3.1467,3.1467,3.1467,3.1467,3.1467,3.1467,3.1467,3.1467,3.1467,3.1452,3.1467,3.1467,3.139,3.1407,3.1422,3.1467,3.139,3.1377,3.1467,3.1467,3.1739,3.1992,3.2407,3.2522,3.242,3.1974,3.1741,3.1675,3.1589,3.1638,3.1978,3.2085,3.1933,3.2432,3.2626,3.2613,3.2488,3.2444,3.2452,3.229,3.2002,3.1782,3.1579,3.1309,3.1309,3.1258,3.1258,3.1258,3.1258,3.1258,3.1263,3.1269,3.1793,3.2364,3.2222,3.1975,3.1937,3.1832,3.1799,3.1693,3.1821,3.2195,3.2515,3.2706,3.2852,3.2816,3.2687,3.221,3.1685,3.1765,3.1875,3.1385,3.1268,3.1704,3.1967,3.1714,3.1779,3.2244,3.2556,3.2948,3.3205,3.3532,3.3359,3.3333,3.3147,3.3077,3.2936,3.2763,3.2705,3.045,3.1029,3.1204,3.1336,3.1467,3.1467,3.1467,3.1467,3.1467,3.1467,3.1467,3.1467,3.1467,3.1467,3.1467,3.1467,3.1467,3.1467,3.1467,3.1467,3.1467,3.1467,3.1467,3.1467,3.1467,3.1467,3.1467,3.1467,3.1467,3.1467,3.1467,3.1467,3.1467,3.1467,3.1467,3.1467,3.1467,3.1467,3.1467,3.1467,3.1467,3.1467,3.1467,3.1467,3.1467,3.1467,3.1582,3.164,3.208,3.241,3.2429,3.1992,3.1829,3.1757,3.1756,3.1774,3.214,3.2315,3.2368,3.2898,3.3209,3.3135,3.3134,3.3242,3.3237,3.3186,3.2949,3.278,3.25,3.1907,3.1755,3.1529,3.1478,3.1478,3.1478,3.1478,3.1461,3.1611,3.1908,3.2298,3.2464,3.2491,3.2673,3.2764,3.3002,3.292,3.2965,3.3266,3.3238,3.3421,3.355,3.3458,3.333,3.3025,3.2529,3.2871,3.2923,3.232,3.1935,3.2323,3.243,3.2125,3.2316,3.2949,3.3444,3.3851,3.4095,3.423,3.4532,3.4526,3.4153,3.3928,3.3807,3.3673,3.3615]},{"header":{"parameterUnit":"m.s-1","parameterCategory":1,"la1":31.0,"la2":29.5877,"lo1":-88.7671,"lo2":-86.6584,"dy":0.0162,"dx":0.0185,"nx":115,"ny":88,"refTime":"2024-08-20T12:00:00:Z","depth":0,"parameterNumber":3,"parameterNumberName":"V-component_of_WINDS"},"data":[0.0,0.0,0.0,0.0,0.0,0.0,0.0,0.0,0.0,0.0,0.0,0.0,0.0,0.0,0.0,0.0,0.0,0.0,0.0,0.0,0.0,0.0,0.0,0.0,0.0,0.0,0.0,0.0,0.0,0.0,0.0,0.0,0.0,0.0,0.0,0.0,0.0,0.0,0.0,0.0,0.0,0.0,0.0,0.0,0.0,0.0,0.0,0.0,0.0,0.0,0.0,0.0,0.0,0.0,0.0,0.0,0.0,0.0,0.0,0.0,0.0,0.0,0.0,0.0,0.0,0.0,0.0,0.0,0.0,0.0,0.0,0.0,0.0,0.0,0.0,0.0,0.0,0.0,0.0,0.0,0.0,0.0,0.0,0.0,0.0,0.0,0.0,0.0,0.0,0.0,0.0,0.0,0.0,0.0,0.0,0.0,0.0,0.0,0.0,0.0,0.0,0.0,0.0,0.0,0.0,0.0,0.0,0.0,0.0,0.0,0.0,0.0,0.0,0.0,0.0,0.0,0.0,0.0,0.0,0.0,0.0,0.0,0.0,0.0,0.0,0.0,0.0,0.0,0.0,0.0,0.0,0.0,0.0,0.0,0.0,0.0,0.0,0.0,0.0,0.0,0.0,0.0,0.0,0.0,0.0,0.0,0.0,0.0,0.0,0.0,0.0,0.0,0.0,0.0,0.0,0.0,0.0,0.0,0.0,0.0,0.0,0.0,0.0,0.0,0.0,0.0,0.0,0.0,0.0,0.0,0.0,0.0,0.0,0.0,0.0,0.0,0.0,0.0,0.0,0.0,0.0,0.0,0.0,0.0,0.0,0.0,0.0,0.0,0.0,0.0,0.0,0.0,0.0,0.0,0.0,0.0,0.0,0.0,0.0,0.0,0.0,0.0,0.0,0.0,0.0,0.0,0.0,0.0,0.0,0.0,0.0,0.0,0.0,0.0,0.0,0.0,0.0,0.0,0.0,0.0,0.0,0.0,0.0,0.0,0.0,0.0,0.0,0.0,0.0,0.0,0.0,0.0,0.0,0.0,0.0,0.0,0.0,0.0,0.0,0.0,0.0,0.0,0.0,0.0,0.0,0.0,0.0,0.0,0.0,0.0,0.0,0.0,0.0,0.0,0.0,0.0,0.0,0.0,0.0,0.0,0.0,0.0,0.0,0.0,0.0,0.0,0.0,0.0,0.0,0.0,0.0,0.0,0.0,0.0,0.0,0.0,0.0,0.0,0.0,0.0,0.0,0.0,0.0,0.0,0.0,0.0,0.0,0.0,0.0,0.0,0.0,0.0,0.0,0.0,0.0,0.0,0.0,0.0,0.0,0.0,0.0,0.0,0.0,0.0,0.0,0.0,0.0,0.0,0.0,0.0,0.0,0.0,0.0,0.0,0.0,0.0,0.0,0.0,0.0,0.0,0.0,0.0,0.0,0.0,0.0,0.0,0.0,0.0,0.0,0.0,0.0,0.0,0.0,0.0,0.0,0.0,0.0,0.0,0.0,0.0,0.0,0.0,0.0,0.0,0.0,0.0,0.0,0.0,0.0,0.0,0.0,0.0,0.0,0.0,0.0,0.0,0.0,0.0,0.0,0.0,0.0,0.0,0.0,0.0,0.0,0.0,0.0,0.0,0.0,0.0,0.0,0.0,0.0,0.0,0.0,0.0,0.0,0.0,0.0,0.0,0.0,0.0,0.0,0.0,0.0,0.0,0.0,0.0,0.0,0.0,0.0,0.0,0.0,0.0,0.0,0.0,0.0,0.0,0.0,0.0,0.0,0.0,0.0,0.0,0.0,0.0,0.0,0.0,0.0,0.0,0.0,0.0,0.0,0.0,0.0,0.0,0.0,0.0,0.0,0.0,0.0,0.0,0.0,0.0,0.0,0.0,0.0,0.0,0.0,0.0,0.0,0.0,0.0,0.0,0.0,0.0,0.0,0.0,0.0,0.0,0.0,0.0,0.0,0.0,0.0,0.0,0.0,0.0,0.0,0.0,0.0,0.0,0.0,0.0,0.0,0.0,0.0,0.0,0.0,0.0,0.0,0.0,0.0,0.0,0.0,0.0,0.0,0.0,0.0,0.0,0.0,0.0,0.0,0.0,0.0,0.0,0.0,0.0,0.0,0.0,0.0,0.0,0.0,0.0,0.0,0.0,0.0,0.0,0.0,0.0,0.0,0.0,0.0,0.0,0.0,0.0,0.0,0.0,0.0,0.0,0.0,0.0,0.0,0.0,0.0,0.0,0.0,0.0,0.0,0.0,0.0,0.0,0.0,0.0,0.0,0.0,0.0,0.0,0.0,0.0,0.0,0.0,0.0,0.0,0.0,0.0,0.0,0.0,0.0,0.0,0.0,0.0,0.0,0.0,0.0,0.0,0.0,0.0,0.0,0.0,0.0,0.0,0.0,0.0,0.0,0.0,0.0,0.0,0.0,0.0,0.0,0.0,0.0,0.0,0.0,0.0,0.0,0.0,0.0,0.0,0.0,0.0,0.0,0.0,0.0,0.0,0.0,0.0,0.0,0.0,0.0,0.0,0.0,0.0,0.0,0.0,0.0,0.0,0.0,0.0,0.0,0.0,0.0,0.0,0.0,0.0,0.0,0.0,0.0,0.0,0.0,0.0,0.0,0.0,0.0,0.0,0.0,0.0,0.0,0.0,0.0,0.0,0.0,0.0,0.0,0.0,0.0,0.0,0.0,0.0,0.0,0.0,0.0,0.0,0.0,0.0,0.0,0.0,0.0,0.0,0.0,0.0,0.0,0.0,0.0,0.0,0.0,0.0,0.0,0.0,0.0,0.0,0.0,0.0,0.0,0.0,0.0,0.0,0.0,0.0,0.0,0.0,0.0,0.0,0.0,0.0,0.0,0.0,0.0,0.0,0.0,0.0,0.0,0.0,0.0,0.0,0.0,0.0,0.0,0.0,0.0,0.0,0.0,0.0,0.0,0.0,0.0,0.0,0.0,0.0,0.0,0.0,0.0,0.0,0.0,0.0,0.0,0.0,0.0,0.0,0.0,0.0,0.0,0.0,0.0,0.0,0.0,0.0,0.0,0.0,0.0,0.0,0.0,0.0,0.0,0.0,0.0,0.0,0.0,0.0,0.0,0.0,0.0,0.0,0.0,0.0,0.0,0.0,0.0,0.0,0.0,0.0,0.0,0.0,0.0,0.0,0.0,0.0,0.0,0.0,0.0,0.0,0.0,0.0,0.0,0.0,0.0,0.0,0.0,0.0,0.0,0.0,0.0,0.0,0.0,0.0,0.0,0.0,0.0,0.0,0.0,0.0,0.0,0.0,0.0,0.0,0.0,0.0,0.0,0.0,0.0,0.0,0.0,0.0,0.0,0.0,0.0,0.0,0.0,0.0,0.0,0.0,0.0,0.0,0.0,0.0,0.0,0.0,0.0,0.0,0.0,0.0,0.0,0.0,0.0,0.0,0.0,0.0,0.0,0.0,0.0,0.0,0.0,0.0,0.0,0.0,0.0,0.0,0.0,0.0,0.0,0.0,0.0,0.0,0.0,0.0,0.0,0.0,0.0,0.0,0.0,0.0,0.0,0.0,0.0,0.0,0.0,0.0,0.0,0.0,0.0,0.0,0.0,0.0,0.0,0.0,0.0,0.0,0.0,0.0,0.0,0.0,0.0,0.0,0.0,0.0,0.0,0.0,0.0,0.0,0.0,0.0,0.0,0.0,0.0,0.0,0.0,0.0,0.0,0.0,0.0,0.0,0.0,0.0,0.0,0.0,0.0,0.0,0.0,0.0,0.0,0.0,0.0,0.0,0.0,0.0,0.0,0.0,0.0,0.0,0.0,0.0,0.0,0.0,0.0,0.0,0.0,0.0,0.0,0.0,0.0,0.0,0.0,0.0,0.0,0.0,0.0,0.0,0.0,0.0,0.0,0.0,0.0,0.0,0.0,0.0,0.0,0.0,0.0,0.0,0.0,0.0,0.0,0.0,0.0,0.0,0.0,0.0,0.0,0.0,0.0,0.0,0.0,0.0,0.0,0.0,0.0,0.0,0.0,0.0,0.0,0.0,0.0,0.0,0.0,0.0,0.0,0.0,0.0,0.0,0.0,0.0,0.0,0.0,0.0,0.0,0.0,0.0,0.0,0.0,0.0,0.0,0.0,0.0,0.0,0.0,0.0,0.0,0.0,0.0,0.0,0.0,0.0,0.0,0.0,0.0,0.0,0.0,0.0,0.0,0.0,0.0,0.0,0.0,0.0,0.0,0.0,0.0,0.0,0.0,0.0,0.0,0.0,0.0,0.0,0.0,-0.6698,0.0,0.0,0.0,0.0,0.0,0.0,0.0,0.0,0.0,0.0,0.0,0.0,0.0,0.0,0.0,0.0,0.0,0.0,0.0,0.0,0.0,0.0,0.0,0.0,0.0,0.0,0.0,0.0,0.0,0.0,0.0,0.0,0.0,0.0,0.0,0.0,0.0,0.0,0.0,0.0,0.0,0.0,0.0,0.0,0.0,0.0,0.0,0.0,0.0,0.0,0.0,0.0,0.0,0.0,0.0,0.0,0.0,0.0,0.0,0.0,0.0,0.0,0.0,0.0,0.0,0.0,0.0,0.0,0.0,0.0,0.0,0.0,0.0,0.0,0.0,0.0,0.0,0.0,0.0,0.0,0.0,0.0,0.0,0.0,0.0,0.0,0.0,0.0,0.0,0.0,0.0,0.0,0.0,0.0,0.0,0.0,0.0,0.0,0.0,0.0,0.0,0.0,0.0,0.0,0.0,0.0,0.0,0.0,0.0,0.0,-0.1152,-0.3568,-0.5572,-0.6736,-0.6698,0.0,0.0,0.0,0.0,0.0,0.0,0.0,0.0,0.0,0.0,0.0,0.0,0.0,0.0,0.0,0.0,0.0,0.0,0.0,0.0,0.0,0.0,0.0,0.0,0.0,0.0,0.0,0.0,0.0,0.0,0.0,0.0,0.0,0.0,0.0,0.0,0.0,0.0,0.0,0.0,0.0,0.0,0.0,0.0,0.0,0.0,0.0,0.0,0.0,0.0,0.0,0.0,0.0,0.0,0.0,0.0,0.0,0.0,0.0,0.0,0.0,0.0,0.0,0.0,0.0,0.0,0.0,0.0,0.0,0.0,0.0,0.0,0.0,0.0,0.0,0.0,0.0,0.0,0.0,0.0,0.0,0.0,0.0,0.0,0.0,0.0,0.0,0.0,0.0,0.0,0.0,0.0,0.0,0.0,0.0,0.0,0.0,0.0,0.0,0.0,0.0,0.0,0.0,0.0,0.0,0.0,0.0,0.0,0.0,0.0,0.0,0.0,-0.5739,-0.6806,-0.6692,0.0,0.0,0.0,0.0,0.0,0.0,0.0,0.0,0.0,0.0,0.0,0.0,0.0,0.0,0.0,0.0,0.0,0.0,0.0,0.0,0.0,0.0,0.0,0.0,0.0,0.0,0.0,0.0,0.0,0.0,0.0,0.0,0.0,0.0,0.0,0.0,0.0,0.0,0.0,0.0,0.0,0.0,0.0,0.0,0.0,0.0,0.0,0.0,0.0,0.0,0.0,0.0,0.0,0.0,0.0,0.0,0.0,0.0,0.0,0.0,0.0,0.0,0.0,0.0,0.0,0.0,0.0,0.0,0.0,0.0,0.0,0.0,0.0,0.0,0.0,0.0,0.0,0.0,0.0,0.0,0.0,0.0,0.0,0.0,0.0,0.0,0.0,0.0,0.0,0.0,0.0,0.0,0.0,0.0,0.0,0.0,0.0,0.0,0.0,0.0,0.0,0.0,0.0,0.0,0.0,0.0,0.0,0.0,0.0,0.0,-0.29,-0.3215,-0.6,0.0,-0.6577,0.0,0.0,0.0,0.0,0.0,0.0,0.0,0.0,0.0,0.0,0.0,0.0,0.0,0.0,0.0,0.0,0.0,0.0,0.0,0.0,0.0,0.0,0.0,0.0,0.0,0.0,0.0,0.0,0.0,0.0,0.0,0.0,0.0,0.0,0.0,0.0,0.0,0.0,0.0,0.0,0.0,0.0,0.0,0.0,0.0,0.0,0.0,0.0,0.0,0.0,0.0,0.0,0.0,0.0,0.0,0.0,0.0,0.0,0.0,0.0,0.0,0.0,0.0,0.0,0.0,0.0,0.0,0.0,0.0,0.0,0.0,0.0,0.0,0.0,0.0,0.0,0.0,0.0,0.0,0.0,0.0,0.0,0.0,0.0,0.0,0.0,0.0,0.0,0.0,0.0,0.0,0.0,0.0,0.0,0.0,0.0,0.0,0.0,0.0,0.0,0.0,0.0,0.0,0.0,0.0,0.0,0.0,0.0,0.0,0.0,-0.5731,-0.5201,-0.6757,-0.7202,0.0,0.0,0.0,0.0,0.0,0.0,0.0,0.0,0.0,0.0,0.0,0.0,0.0,0.0,0.0,0.0,0.0,0.0,0.0,0.0,0.0,0.0,0.0,0.0,0.0,0.0,0.0,0.0,0.0,0.0,0.0,0.0,0.0,0.0,0.0,0.0,0.0,0.0,0.0,0.0,0.0,0.0,0.0,0.0,0.0,0.0,0.0,0.0,0.0,0.0,0.0,0.0,0.0,0.0,0.0,0.0,0.0,0.0,0.0,0.0,0.0,0.0,0.0,0.0,0.0,0.0,0.0,0.0,0.0,0.0,0.0,0.0,0.0,0.0,0.0,0.0,0.0,0.0,0.0,0.0,0.0,0.0,0.0,0.0,0.0,0.0,0.0,0.0,0.0,0.0,0.0,0.0,0.0,0.0,0.0,0.0,0.0,0.0,0.0,0.0,0.0,0.0,0.0,0.0,0.0,0.0,0.0,0.0,0.0,0.0,-0.755,-0.7607,-0.6907,-0.7239,-0.7047,-0.6162,0.0,0.0,0.0,0.0,0.0,0.0,0.0,0.0,0.0,0.0,0.0,0.0,0.0,0.0,0.0,0.0,0.0,0.0,0.0,0.0,0.0,0.0,0.0,0.0,0.0,0.0,0.0,0.0,0.0,0.0,0.0,0.0,0.0,0.0,0.0,0.0,0.0,0.0,0.0,0.0,0.0,0.0,0.0,0.0,0.0,0.0,0.0,0.0,0.0,0.0,0.0,0.0,0.0,0.0,0.0,0.0,0.0,0.0,0.0,0.0,0.0,0.0,0.0,0.0,0.0,0.0,0.0,0.0,0.0,0.0,0.0,0.0,0.0,0.0,0.0,0.0,0.0,0.0,0.0,0.0,0.0,0.0,0.0,0.0,0.0,0.0,0.0,0.0,0.0,0.0,0.0,0.0,0.0,0.0,0.0,0.0,0.0,0.0,0.0,0.0,0.0,0.0,0.0,0.0,0.0,0.0,0.0,0.0,-0.7837,-0.7948,-0.769,-0.7091,-0.7139,-0.6679,0.0,0.0,0.0,0.0,0.0,0.0,0.0,0.0,0.0,0.0,0.0,0.0,0.0,0.0,0.0,0.0,0.0,0.0,0.0,0.0,0.0,0.0,0.0,0.0,0.0,0.0,0.0,0.0,0.0,0.0,0.0,0.0,0.0,0.0,0.0,0.0,0.0,0.0,0.0,0.0,0.0,0.0,0.0,0.0,0.0,0.0,0.0,0.0,0.0,0.0,0.0,0.0,0.0,0.0,0.0,0.0,0.0,0.0,0.0,0.0,0.0,0.0,0.0,0.0,0.0,0.0,0.0,0.0,0.0,0.0,0.0,0.0,0.0,0.0,0.0,0.0,0.0,0.0,0.0,0.0,0.0,0.0,0.0,0.0,0.0,0.0,0.0,0.0,0.0,0.0,0.0,0.0,0.0,0.0,0.0,0.0,0.0,0.0,0.0,0.0,0.0,0.0,0.0,0.0,0.0,0.0,0.0,0.0,0.0,-0.493,-0.6408,-0.7299,-0.7404,-0.6285,-0.5832,0.0,0.0,0.0,0.0,0.0,0.0,0.0,0.0,0.0,0.0,0.0,0.0,0.0,0.0,0.0,0.0,0.0,0.0,0.0,0.0,0.0,0.0,0.0,0.0,0.0,0.0,0.0,0.0,0.0,0.0,0.0,0.0,0.0,0.0,0.0,0.0,0.0,0.0,0.0,0.0,0.0,0.0,0.0,0.0,0.0,0.0,0.0,0.0,0.0,0.0,0.0,0.0,0.0,0.0,0.0,0.0,0.0,0.0,0.0,0.0,0.0,0.0,0.0,0.0,0.0,0.0,0.0,0.0,0.0,0.0,0.0,0.0,0.0,0.0,0.0,0.0,0.0,0.0,0.0,0.0,0.0,0.0,0.0,0.0,0.0,0.0,0.0,0.0,0.0,0.0,0.0,0.0,0.0,0.0,0.0,0.0,0.0,0.0,0.0,0.0,0.0,0.0,0.0,0.0,0.0,0.0,0.0,0.0,0.0,-0.4318,0.0,-0.6993,0.0,-0.6106,-0.5628,0.0,0.0,0.0,0.0,0.0,0.0,0.0,0.0,0.0,0.0,0.0,0.0,0.0,0.0,0.0,0.0,0.0,0.0,0.0,0.0,0.0,0.0,0.0,0.0,0.0,0.0,0.0,0.0,0.0,0.0,0.0,0.0,0.0,0.0,0.0,0.0,0.0,0.0,0.0,0.0,0.0,0.0,0.0,0.0,0.0,0.0,0.0,0.0,0.0,0.0,0.0,0.0,0.0,0.0,0.0,0.0,0.0,0.0,0.0,0.0,0.0,0.0,0.0,0.0,0.0,0.0,0.0,0.0,0.0,0.0,0.0,0.0,0.0,0.0,0.0,0.0,0.0,0.0,0.0,0.0,0.0,0.0,0.0,0.0,0.0,0.0,0.0,0.0,0.0,0.0,0.0,0.0,0.0,0.0,0.0,0.0,0.0,0.0,0.0,0.0,0.0,0.0,0.0,0.0,0.0,0.0,0.0,0.0,-0.4148,-0.6469,-0.6917,-0.6946,-0.6515,-0.6603,-0.6132,0.0,0.0,0.0,0.0,0.0,0.0,0.0,0.0,0.0,0.0,0.0,0.0,0.0,0.0,0.0,0.0,0.0,0.0,0.0,0.0,0.0,0.0,0.0,0.0,0.0,0.0,0.0,0.0,0.0,0.0,0.0,0.0,0.0,0.0,0.0,0.0,0.0,0.0,0.0,0.0,0.0,0.0,0.0,0.0,0.0,0.0,0.0,0.0,0.0,0.0,0.0,0.0,0.0,0.0,0.0,0.0,0.0,0.0,0.0,0.0,0.0,0.0,0.0,0.0,0.0,0.0,0.0,0.0,0.0,0.0,0.0,0.0,0.0,0.0,0.0,0.0,0.0,0.0,0.0,0.0,0.0,0.0,0.0,0.0,0.0,0.0,0.0,0.0,0.0,0.0,0.0,0.0,0.0,0.0,0.0,0.0,0.0,0.0,0.0,0.0,0.0,0.0,0.0,0.0,0.0,0.0,0.0,0.0,0.0,-0.4482,-0.6124,-0.6895,-0.6912,-0.6376,-0.6006,0.0,0.0,0.0,0.0,0.0,0.0,0.0,0.0,0.0,0.0,0.0,0.0,0.0,0.0,0.0,0.0,0.0,0.0,0.0,0.0,0.0,0.0,0.0,0.0,0.0,0.0,0.0,0.0,0.0,0.0,0.0,0.0,0.0,0.0,0.0,0.0,0.0,0.0,0.0,0.0,0.0,0.0,0.0,0.0,0.0,0.0,0.0,0.0,0.0,0.0,0.0,0.0,0.0,0.0,0.0,0.0,0.0,0.0,0.0,0.0,0.0,0.0,0.0,0.0,0.0,0.0,0.0,0.0,0.0,0.0,0.0,0.0,0.0,0.0,0.0,0.0,0.0,0.0,0.0,0.0,0.0,0.0,0.0,0.0,0.0,0.0,0.0,0.0,0.0,0.0,0.0,0.0,0.0,0.0,0.0,0.0,0.0,0.0,0.0,0.0,0.0,0.0,0.0,0.0,0.0,0.0,0.0,0.0,0.0,-0.3245,-0.6533,-0.8044,-0.7565,-0.7247,-0.7,-0.6644,0.0,0.0,0.0,0.0,0.0,0.0,0.0,0.0,0.0,0.0,0.0,0.0,0.0,0.0,0.0,0.0,0.0,0.0,0.0,0.0,0.0,0.0,0.0,0.0,0.0,0.0,0.0,0.0,0.0,0.0,0.0,0.0,0.0,0.0,0.0,0.0,0.0,0.0,0.0,0.0,0.0,0.0,0.0,0.0,0.0,0.0,0.0,0.0,0.0,0.0,0.0,0.0,0.0,0.0,0.0,0.0,0.0,0.0,0.0,0.0,0.0,0.0,0.0,0.0,0.0,0.0,0.0,0.0,0.0,0.0,0.0,0.0,0.0,0.0,0.0,0.0,0.0,0.0,0.0,0.0,0.0,0.0,0.0,0.0,0.0,0.0,0.0,0.0,0.0,0.0,0.0,0.0,0.0,0.0,0.0,0.0,0.0,0.0,0.0,0.0,0.0,0.0,0.0,0.0,0.0,0.0,0.0,0.0,-0.2654,-0.768,-0.9814,-0.879,-0.9086,-0.8788,0.0,0.0,0.0,0.0,0.0,0.0,0.0,0.0,0.0,0.0,0.0,0.0,0.0,0.0,0.0,0.0,0.0,0.0,0.0,0.0,0.0,0.0,0.0,0.0,0.0,0.0,0.0,0.0,0.0,0.0,0.0,0.0,0.0,0.0,0.0,0.0,0.0,0.0,0.0,0.0,0.0,0.0,0.0,0.0,0.0,0.0,0.0,0.0,0.0,0.0,0.0,0.0,0.0,0.0,0.0,0.0,0.0,0.0,0.0,0.0,0.0,0.0,0.0,0.0,0.0,0.0,0.0,0.0,0.0,0.0,0.0,0.0,0.0,0.0,0.0,0.0,0.0,0.0,0.0,0.0,0.0,0.0,0.0,0.0,0.0,0.0,0.0,0.0,0.0,0.0,0.0,0.0,0.0,0.0,0.0,0.0,0.0,0.0,0.0,0.0,0.0,0.0,0.0,0.0,0.0,0.0,0.0,0.0,0.0,-0.2334,-0.5885,-0.9206,-1.2222,-1.0616,-0.9992,0.0,0.0,0.0,0.0,0.0,0.0,0.0,0.0,0.0,0.0,0.0,0.0,0.0,0.0,0.0,0.0,0.0,0.0,0.0,0.0,0.0,0.0,0.0,0.0,0.0,0.0,0.0,0.0,0.0,0.0,0.0,0.0,0.0,0.0,0.0,0.0,0.0,0.0,0.0,0.0,0.0,0.0,0.0,0.0,0.0,0.0,0.0,0.0,0.0,0.0,0.0,0.0,0.0,0.0,0.0,0.0,0.0,0.0,0.0,0.0,0.0,0.0,0.0,0.0,0.0,0.0,0.0,0.0,0.0,0.0,0.0,0.0,0.0,0.0,0.0,0.0,0.0,0.0,0.0,0.0,0.0,0.0,0.0,0.0,0.0,0.0,0.0,0.0,0.0,0.0,0.0,0.0,0.0,0.0,0.0,0.0,0.0,0.0,0.0,0.0,0.0,0.0,0.0,0.0,0.0,0.0,0.0,0.0,0.4292,0.024,-0.4107,-0.8653,-1.32,-1.2076,-1.1776,0.0,0.0,0.0,0.0,0.0,0.0,0.0,0.0,0.0,0.0,0.0,0.0,0.0,0.0,0.0,0.0,0.0,0.0,0.0,0.0,0.0,0.0,0.0,0.0,0.0,0.0,0.0,0.0,0.0,0.0,0.0,0.0,0.0,0.0,0.0,0.0,0.0,0.0,0.0,0.0,0.0,0.0,0.0,0.0,0.0,0.0,0.0,0.0,0.0,0.0,0.0,0.0,0.0,0.0,0.0,0.0,0.0,0.0,0.0,0.0,0.0,0.0,0.0,0.0,0.0,0.0,0.0,0.0,0.0,0.0,0.0,0.0,0.0,0.0,0.0,0.0,0.0,0.0,0.0,0.0,0.0,0.0,0.0,0.0,0.0,0.0,0.0,0.0,0.0,0.0,0.0,0.0,0.0,0.0,0.0,0.0,0.0,0.0,0.0,0.0,0.0,0.0,0.0,0.0,0.0,0.0,0.0,0.0,0.5506,0.3805,-0.2358,-0.7672,-1.1985,-1.3262,-1.3757,0.0,0.0,0.0,0.0,0.0,0.0,0.0,0.0,0.0,0.0,0.0,0.0,0.0,0.0,0.0,0.0,0.0,0.0,0.0,0.0,0.0,0.0,0.0,0.0,0.0,0.0,0.0,0.0,0.0,0.0,0.0,0.0,0.0,0.0,0.0,0.0,0.0,0.0,0.0,0.0,0.0,0.0,0.0,0.0,0.0,0.0,0.0,0.0,0.0,0.0,0.0,0.0,0.0,0.0,0.0,0.0,0.0,0.0,0.0,0.0,0.0,0.0,0.0,0.0,0.0,0.0,0.0,0.0,0.0,0.0,0.0,0.0,0.0,0.0,0.0,0.0,0.0,0.0,0.0,0.0,0.0,0.0,0.0,0.0,0.0,0.0,0.0,0.0,0.0,0.0,0.0,0.0,0.0,0.0,0.0,0.0,0.0,0.0,0.0,0.0,0.0,0.0,0.0,0.0,0.0,0.0,0.0,0.0,0.5551,0.4002,-0.015,-0.4738,-0.9712,-1.2969,-1.5255,0.0,0.0,0.0,0.0,0.0,0.0,0.0,0.0,0.0,0.0,0.0,0.0,0.0,0.0,0.0,0.0,0.0,0.0,0.0,0.0,0.0,0.0,0.0,0.0,0.0,0.0,0.0,0.0,0.0,0.0,0.0,0.0,0.0,0.0,0.0,0.0,0.0,0.0,0.0,0.0,0.0,0.0,0.0,0.0,0.0,0.0,0.0,0.0,-1.3806,0.0,0.0,0.0,0.0,0.0,0.0,0.0,0.0,0.0,0.0,0.0,0.0,0.0,0.0,0.0,0.0,0.0,0.0,0.0,0.0,0.0,0.0,0.0,0.0,0.0,0.0,0.0,0.0,0.0,0.0,0.0,0.0,0.0,0.0,0.0,0.0,0.0,0.0,0.0,0.0,0.0,0.0,0.0,0.0,0.0,0.0,0.0,0.0,0.0,0.0,0.0,0.0,0.0,0.0,0.0,0.0,0.0,0.0,0.0,0.684,0.6412,0.1532,-0.3514,-0.8428,-1.2325,-1.5085,0.0,0.0,0.0,0.0,0.0,0.0,0.0,0.0,0.0,0.0,0.0,0.0,0.0,0.0,0.0,0.0,0.0,0.0,0.0,0.0,0.0,0.0,0.0,0.0,0.0,0.0,0.0,0.0,0.0,0.0,0.0,0.0,0.0,0.0,0.0,0.0,0.0,0.0,0.0,0.0,0.0,0.0,0.0,0.0,0.0,0.0,0.0,0.0,0.0,0.0,0.0,0.0,0.0,0.0,0.0,0.0,0.0,0.0,0.0,0.0,0.0,0.0,0.0,0.0,0.0,0.0,0.0,0.0,0.0,0.0,0.0,0.0,0.0,0.0,0.0,0.0,0.0,0.0,0.0,0.0,0.0,0.0,0.0,0.0,0.0,0.0,0.0,0.0,0.0,0.0,0.0,0.0,0.0,0.0,0.0,0.0,0.0,0.0,0.0,0.0,0.0,0.0,0.0,0.0,0.0,0.0,0.0,0.69,0.8234,0.9036,0.2725,-0.3026,-0.7858,-1.1367,-1.3969,-1.5683,0.0,0.0,0.0,0.0,0.0,0.0,0.0,0.0,0.0,0.0,0.0,0.0,0.0,0.0,0.0,0.0,0.0,0.0,0.0,0.0,0.0,0.0,0.0,0.0,0.0,0.0,0.0,0.0,0.0,0.0,0.0,0.0,0.0,0.0,0.0,0.0,0.0,0.0,-1.2325,-1.4204,0.0,0.0,0.0,0.0,0.0,0.0,0.0,0.0,-1.5179,0.0,0.0,0.0,0.0,0.0,0.0,0.0,0.0,0.0,0.0,0.0,0.0,0.0,0.0,0.0,0.0,0.0,0.0,0.0,0.0,0.0,0.0,0.0,0.0,0.0,0.0,0.0,0.0,0.0,0.0,0.0,0.0,0.0,0.0,0.0,0.0,0.0,0.0,0.0,0.0,0.0,0.0,0.0,0.0,0.0,0.0,0.0,0.0,0.0,0.0,0.0,0.0,0.0,0.0,0.0,0.0,0.8985,0.787,0.7892,0.9122,0.3235,-0.2534,-0.7819,-1.0238,-1.2444,-1.4562,0.0,0.0,0.0,0.0,0.0,0.0,0.0,0.0,0.0,0.0,0.0,0.0,0.0,0.0,0.0,0.0,0.0,0.0,0.0,0.0,0.0,0.0,0.0,0.0,0.0,0.0,0.0,0.0,0.0,0.0,0.0,0.0,0.0,0.0,0.0,0.0,0.0,0.0,0.0,-1.4037,-1.6429,0.0,0.0,0.0,0.0,0.0,0.0,0.0,0.0,-1.4386,0.0,0.0,0.0,0.0,0.0,0.0,0.0,0.0,0.0,0.0,0.0,0.0,0.0,0.0,0.0,0.0,0.0,0.0,0.0,0.0,0.0,0.0,0.0,0.0,0.0,0.0,0.0,0.0,0.0,0.0,0.0,0.0,0.0,0.0,0.0,0.0,0.0,0.0,0.0,0.0,0.0,0.0,0.0,0.0,0.0,0.0,0.0,0.0,0.0,0.0,0.0,0.0,0.0,0.0,0.0,0.9685,0.8754,0.8413,0.8836,0.3287,-0.1976,-0.6474,-0.9035,-1.1262,0.0,0.0,0.0,0.0,0.0,0.0,0.0,0.0,0.0,0.0,0.0,0.0,0.0,0.0,0.0,0.0,0.0,0.0,0.0,0.0,0.0,0.0,0.0,0.0,0.0,0.0,0.0,0.0,0.0,0.0,0.0,0.0,0.0,0.0,0.0,0.0,0.0,0.0,0.0,0.0,-1.3326,-1.6363,-2.0068,0.0,0.0,0.0,0.0,0.0,0.0,-1.4544,-1.4559,0.0,0.0,0.0,0.0,0.0,0.0,0.0,0.0,0.0,0.0,0.0,0.0,0.0,0.0,0.0,0.0,0.0,0.0,0.0,0.0,0.0,0.0,0.0,0.0,0.0,0.0,0.0,0.0,0.0,0.0,0.0,0.0,0.0,0.0,0.0,0.0,0.0,0.0,0.0,0.0,0.0,0.0,0.0,0.0,0.0,0.0,0.0,0.0,0.0,0.0,0.0,0.0,0.0,0.0,0.0,0.9875,0.9357,0.8924,0.8599,0.3128,-0.1557,-0.5229,-0.8083,-1.0314,0.0,0.0,0.0,0.0,0.0,0.0,0.0,0.0,0.0,0.0,0.0,0.0,0.0,0.0,0.0,0.0,0.0,0.0,0.0,0.0,0.0,0.0,0.0,0.0,0.0,0.0,0.0,0.0,0.0,0.0,0.0,0.0,0.0,0.0,0.0,0.0,0.0,0.0,0.0,0.0,0.0,-1.5458,-1.8912,-1.8253,0.0,0.0,0.0,0.0,-1.4525,-1.4975,0.0,0.0,0.0,0.0,0.0,0.0,0.0,0.0,0.0,0.0,0.0,0.0,0.0,0.0,0.0,0.0,0.0,0.0,0.0,0.0,0.0,0.0,0.0,0.0,0.0,0.0,0.0,0.0,0.0,0.0,0.0,0.0,0.0,0.0,0.0,0.0,0.0,0.0,0.0,0.0,0.0,0.0,0.0,0.0,0.0,0.0,0.0,0.0,0.0,0.0,0.0,0.0,0.0,0.0,0.0,0.0,0.9927,0.9007,0.861,0.8508,0.3073,-0.1578,-0.488,-0.7454,-0.9596,0.0,0.0,0.0,0.0,0.0,0.0,0.0,0.0,0.0,0.0,0.0,0.0,0.0,0.0,0.0,0.0,0.0,0.0,0.0,0.0,0.0,0.0,0.0,0.0,0.0,0.0,0.0,0.0,0.0,0.0,0.0,0.0,0.0,0.0,0.0,0.0,0.0,0.0,0.0,0.0,0.0,-1.2593,-1.5226,-1.5697,-1.6125,0.0,0.0,-1.4091,-1.5632,-1.5892,0.0,0.0,0.0,0.0,0.0,0.0,0.0,0.0,0.0,0.0,0.0,0.0,0.0,0.0,0.0,0.0,0.0,0.0,0.0,0.0,0.0,0.0,0.0,0.0,0.0,0.0,0.0,0.0,0.0,0.0,0.0,0.0,0.0,0.0,0.0,0.0,0.0,0.0,0.0,0.0,0.0,0.0,0.0,0.0,0.0,0.0,0.0,0.0,0.0,0.0,0.0,0.0,0.0,0.0,0.0,0.8609,0.9796,0.9081,0.8689,0.862,0.3725,-0.0902,-0.4823,-0.6469,-0.7875,0.0,0.0,0.0,0.0,0.0,0.0,0.0,0.0,0.0,0.0,0.0,0.0,0.0,0.0,0.0,0.0,0.0,0.0,0.0,0.0,0.0,0.0,0.0,0.0,0.0,0.0,0.0,0.0,0.0,0.0,0.0,0.0,0.0,0.0,0.0,0.0,0.0,0.0,0.0,0.0,0.0,0.0,-1.4275,-1.5781,0.0,0.0,0.0,-1.5685,-1.6061,0.0,0.0,0.0,0.0,0.0,0.0,0.0,0.0,0.0,0.0,0.0,0.0,0.0,0.0,0.0,0.0,0.0,0.0,0.0,0.0,0.0,0.0,0.0,0.0,0.0,0.0,0.0,0.0,0.0,0.0,0.0,0.0,0.0,0.0,0.0,0.0,0.0,0.0,0.0,0.0,0.0,0.0,0.0,0.0,0.0,0.0,0.0,0.0,0.0,0.0,0.0,0.0,0.0,0.0,0.0,0.0,0.0,1.0302,0.9269,0.8753,0.8623,0.3921,-0.0571,-0.4662,-0.5827,0.0,0.0,0.0,0.0,0.0,0.0,0.0,0.0,0.0,0.0,0.0,0.0,0.0,0.0,0.0,0.0,0.0,0.0,0.0,0.0,0.0,0.0,0.0,0.0,0.0,0.0,0.0,-0.8695,0.0,0.0,0.0,0.0,0.0,0.0,0.0,0.0,0.0,0.0,0.0,0.0,0.0,0.0,-0.8509,-1.2668,-1.488,-1.6422,0.0,0.0,-1.6571,-1.6186,-1.5432,-1.5707,0.0,0.0,0.0,0.0,0.0,0.0,0.0,0.0,0.0,0.0,0.0,0.0,0.0,0.0,0.0,0.0,0.0,0.0,0.0,0.0,0.0,0.0,0.0,0.0,0.0,0.0,0.0,0.0,0.0,0.0,0.0,0.0,0.0,0.0,0.0,0.0,0.0,0.0,0.0,0.0,0.0,0.0,0.0,0.0,0.0,0.0,0.0,0.0,0.0,0.0,0.0,0.0,0.0,0.0,1.0019,1.1905,0.9626,0.8534,0.8612,0.3264,-0.1258,-0.4402,-0.6052,-0.7378,0.0,0.0,0.0,0.0,0.0,0.0,0.0,0.0,0.0,0.0,0.0,0.0,0.0,0.0,0.0,0.0,0.0,0.0,0.0,0.0,0.0,0.0,0.0,0.0,0.0,0.0,0.0,0.0,0.0,0.0,0.0,0.0,0.0,0.0,0.0,0.0,0.0,0.0,0.0,0.0,0.0,-0.8759,-0.8731,-1.1522,-1.464,0.0,-1.6496,-1.5624,-1.6185,-1.5043,-1.5157,-1.842,0.0,0.0,0.0,0.0,0.0,0.0,0.0,0.0,0.0,0.0,0.0,0.0,0.0,0.0,0.0,0.0,0.0,0.0,0.0,0.0,0.0,0.0,0.0,0.0,0.0,0.0,0.0,0.0,0.0,0.0,0.0,0.0,0.0,0.0,0.0,0.0,0.0,0.0,0.0,0.0,0.0,0.0,0.0,0.0,0.0,0.0,0.0,0.0,0.0,0.0,0.0,0.0,0.0,0.9972,1.1881,0.9598,0.8379,0.813,0.3024,-0.1285,-0.4449,-0.6242,-0.7432,0.0,0.0,0.0,0.0,0.0,0.0,0.0,0.0,0.0,0.0,0.0,0.0,0.0,0.0,0.0,0.0,0.0,0.0,0.0,0.0,0.0,0.0,0.0,0.0,0.0,0.0,0.0,0.0,-0.967,-1.0065,-0.9429,0.0,0.0,0.0,0.0,0.0,0.0,0.0,0.0,0.0,0.0,-0.7439,-0.7901,-1.0355,0.0,0.0,-1.7683,-1.7471,-1.6678,-1.6537,-1.6963,-1.8294,-2.1826,0.0,0.0,0.0,0.0,0.0,0.0,0.0,0.0,0.0,0.0,0.0,0.0,0.0,0.0,0.0,0.0,0.0,0.0,0.0,0.0,0.0,0.0,0.0,0.0,0.0,0.0,0.0,0.0,0.0,0.0,0.0,0.0,0.0,0.0,0.0,0.0,0.0,0.0,0.0,0.0,0.0,0.0,0.0,0.0,0.0,0.0,0.0,0.0,0.0,0.0,0.0,0.0,1.0533,1.2359,0.9953,0.8717,0.8754,0.3238,-0.1251,-0.4422,-0.6239,-0.7348,0.0,0.0,0.0,0.0,0.0,0.0,0.0,0.0,0.0,0.0,0.0,0.0,0.0,0.0,0.0,0.0,0.0,0.0,0.0,0.0,0.0,0.0,0.0,0.0,0.0,0.0,0.0,0.0,-0.9869,-1.0389,-1.0307,0.0,0.0,0.0,0.0,0.0,0.0,0.0,0.0,0.0,0.0,-0.6441,-0.6917,-0.9377,-1.2542,-1.6548,-1.8148,-1.8652,-1.7957,-1.8494,-1.9054,-1.9029,0.0,0.0,0.0,0.0,0.0,0.0,0.0,0.0,0.0,0.0,0.0,0.0,0.0,0.0,0.0,0.0,0.0,0.0,0.0,0.0,0.0,0.0,0.0,0.0,0.0,0.0,0.0,0.0,0.0,0.0,0.0,0.0,0.0,0.0,0.0,0.0,0.0,0.0,0.0,0.0,0.0,0.0,0.0,0.0,0.0,0.0,0.0,0.0,0.0,0.0,0.0,0.0,0.0,1.1902,1.3692,1.0855,0.9728,1.0332,0.3838,-0.1165,-0.4413,-0.5883,-0.7256,-0.8671,0.0,0.0,0.0,0.0,0.0,0.0,0.0,0.0,0.0,0.0,0.0,0.0,0.0,0.0,0.0,0.0,0.0,0.0,0.0,0.0,0.0,0.0,0.0,0.0,0.0,0.0,-0.9418,-0.9681,-1.0486,0.0,0.0,0.0,0.0,0.0,0.0,0.0,0.0,0.0,-0.6671,-0.6284,-0.612,-0.5522,-0.8413,-1.2092,-1.5965,-1.7476,-1.8701,-2.018,-2.0718,-2.0941,0.0,0.0,0.0,0.0,0.0,0.0,0.0,0.0,0.0,0.0,0.0,0.0,0.0,0.0,0.0,0.0,0.0,0.0,0.0,0.0,0.0,0.0,0.0,0.0,0.0,0.0,0.0,0.3698,0.2928,0.0,0.0,0.0,0.0,0.0,0.0,0.0,0.0,0.0,0.0,0.0,0.9536,0.6811,0.0,0.0,0.0,0.0,0.0,0.0,0.0,0.0,0.0,0.0,0.0,0.0,1.2082,1.3535,1.065,0.9532,1.0464,0.4893,-0.0115,-0.4399,-0.5584,-0.741,-1.002,0.0,0.0,0.0,0.0,0.0,0.0,0.0,0.0,0.0,0.0,0.0,0.0,0.0,0.0,0.0,0.0,0.0,0.0,0.0,0.0,0.0,0.0,0.0,0.0,0.0,-0.998,0.0,0.0,0.0,0.0,0.0,0.0,0.0,0.0,0.0,0.0,0.0,-1.1637,-0.6937,-0.6302,-0.6036,-0.5405,-0.8351,-1.2072,0.0,0.0,0.0,0.0,0.0,0.0,0.0,0.0,0.0,0.0,0.0,0.0,0.0,0.0,-3.3322,-2.8499,-2.7581,-2.8364,-3.0909,0.0,0.0,0.0,0.0,0.0,0.0,0.0,0.0,0.0,0.0,0.0,0.0,0.0,0.0,0.945,1.0506,0.6319,0.0,0.0,0.0,0.0,0.0,0.0,0.0,0.0,1.1449,1.2371,1.3058,0.9478,0.7022,0.0,0.8024,0.8117,0.0,0.0,0.0,0.0,0.0,0.0,0.0,0.0,1.2574,1.3089,1.035,0.878,0.8309,0.4088,0.0,-0.3585,-0.5525,-0.7735,-1.0327,-1.1497,-1.2501,0.0,0.0,0.0,0.0,0.0,0.0,0.0,0.0,0.0,0.0,0.0,0.0,0.0,0.0,0.0,0.0,0.0,0.0,0.0,0.0,0.0,0.0,0.0,-0.9834,0.0,0.0,0.0,0.0,0.0,0.0,0.0,0.0,0.0,-1.557,-1.5773,-1.2154,-0.1195,-0.358,-0.5735,-0.4132,0.0,0.0,0.0,0.0,0.0,0.0,0.0,-2.5358,-2.4503,-2.7845,-3.2104,-3.6509,-3.6881,-3.6471,-3.6101,0.0,0.0,-3.2994,-3.206,-3.19,-3.2499,-3.3653,-3.4612,-3.4685,-3.3243,-3.2034,0.0,0.0,0.0,0.0,0.0,0.0,0.0,0.0,1.101,1.6663,0.0,1.2847,0.0,0.0,0.0,0.0,1.4447,1.4099,0.0,0.0,1.3077,1.5119,1.6382,1.2971,1.0644,0.974,1.2972,1.5549,1.692,1.0133,0.0,0.0,0.0,0.0,0.0,0.0,1.3442,1.2226,1.0201,0.7605,0.4649,0.1525,-0.0777,-0.2339,-0.5712,-0.8184,-0.97,-1.1654,-1.332,-1.4529,-1.527,0.0,0.0,0.0,0.0,0.0,0.0,0.0,0.0,0.0,0.0,0.0,0.0,0.0,0.0,0.0,0.0,0.0,0.0,0.0,0.0,-0.9658,0.0,0.0,0.0,0.0,0.0,0.0,0.0,0.0,0.0,-2.1753,-1.7843,-1.7755,-1.0775,0.9157,0.0,0.0,0.0,0.0,-1.3145,-1.3888,-1.7124,-2.0213,-2.2292,-2.4675,-2.6069,-2.5447,0.0,0.0,-3.5515,-3.6783,-3.7185,-3.652,-3.5913,-3.6085,-3.7366,-3.6157,-3.429,-3.1237,-3.3206,-3.497,-3.3437,-3.1324,-3.0106,-0.4699,0.0,0.0,0.0,0.0,1.0968,1.2755,1.4447,1.5281,1.86,2.3216,1.817,0.0,0.0,0.0,0.0,0.0,0.0,1.6587,1.5469,1.7015,1.7622,1.7259,1.5452,1.403,1.3146,1.4538,1.5587,1.6046,1.5139,1.5181,1.6166,0.0,0.0,0.0,0.0,1.424,1.2848,1.012,0.7316,0.4516,0.0847,-0.1944,-0.3779,-0.5458,-0.7439,-0.9602,-1.109,-1.2733,-1.4595,-1.5615,0.0,0.0,0.0,0.0,0.0,0.0,0.0,0.0,0.0,0.0,0.0,0.0,0.0,0.0,0.0,0.0,0.0,0.0,0.0,-1.32,-1.1453,-1.0957,0.0,0.0,0.0,0.0,0.0,0.0,0.0,0.0,0.0,-2.4712,-1.8159,-0.8386,0.0,0.0,0.4209,-0.3064,-0.8146,-1.2125,-1.4993,-1.7634,0.0,-2.3926,-2.5416,-2.6602,-2.7715,-3.041,-3.2856,-3.4182,-3.4467,-3.441,-3.4182,-3.4108,-3.4222,-3.4574,-3.4274,-3.308,-3.1089,-3.1301,-3.1841,-3.1258,-2.9699,-2.8537,-0.4829,-0.2641,0.3153,0.7647,1.0956,1.3443,1.5411,1.7004,1.828,2.145,2.5548,2.1641,1.9245,1.814,1.7825,0.0,0.0,0.0,2.0121,1.9943,1.9354,1.862,1.773,1.6291,1.5498,1.5507,1.6311,1.6958,1.7509,1.9284,1.9941,1.9453,0.0,0.0,1.7159,1.6078,1.483,1.3362,1.0365,0.7688,0.5307,0.0841,-0.2449,-0.4463,-0.5592,-0.7015,-0.8805,-1.0637,-1.2531,-1.4551,-1.5533,-1.6411,0.0,0.0,0.0,0.0,0.0,0.0,0.0,0.0,0.0,0.0,0.0,-1.0601,-1.0861,0.0,0.0,0.0,-1.2767,-1.3359,-1.4405,-1.44,0.0,0.0,0.0,0.0,0.0,0.0,0.0,-1.7518,-1.8487,-2.0577,-2.4629,-1.6999,-0.6798,0.4306,0.5496,0.3297,-0.1971,0.0,-1.1591,-1.3956,-1.6807,-1.9819,-2.2788,-2.4256,-2.5803,-2.8242,-2.9995,-3.1619,-3.2911,-3.3134,-3.3157,-3.3161,-3.3003,-3.2964,-3.3316,-3.2769,-3.1846,-3.0594,-2.9284,-2.8614,-2.9225,-2.833,-2.7363,-0.4299,-0.3134,0.0992,0.7546,1.5103,1.6407,1.6471,1.6032,2.0399,2.4699,2.8286,2.3918,2.1913,2.1796,2.1327,0.0,2.3299,2.2877,2.3007,2.3466,2.0506,1.87,1.7974,1.6076,1.5769,1.6912,1.8024,1.9258,2.0547,2.2347,2.2972,2.2254,1.9575,1.8265,1.8448,1.6859,1.5275,1.3744,1.0854,0.8427,0.6303,0.1274,-0.2391,-0.4435,-0.5837,-0.6864,-0.7628,-1.0267,-1.2527,-1.4275,-1.5175,-1.6397,-1.7923,0.0,0.0,0.0,0.0,0.0,0.0,0.0,0.0,0.0,0.0,0.0,0.0,0.0,0.0,0.0,-1.319,0.0,-1.512,-1.8147,0.0,0.0,0.0,0.5986,0.9072,0.8675,0.5799,-0.0329,0.0,0.0,-1.9944,-1.4704,-0.6405,0.3471,-0.0961,-0.3689,0.0195,-0.6286,-1.1409,-1.2066,-1.5332,-1.8481,-2.0579,-2.2288,-2.4481,-2.7342,-2.8805,-2.9983,-3.1316,-3.2119,-3.2613,-3.2571,-3.217,-3.1979,-3.2977,-3.1785,-3.0575,-3.0458,-2.7723,-2.5891,-2.7445,-2.717,-2.6477,-0.1905,-0.0855,0.313,0.7846,1.2982,1.6069,1.8165,1.9722,2.2828,2.4953,2.6123,2.6392,2.6188,2.5632,2.5918,2.5782,2.5282,2.4585,2.4013,2.3503,2.1677,1.9437,1.699,1.7666,1.7929,1.7934,1.8595,1.9593,2.0806,2.1791,2.2624,2.317,2.1973,2.0723,1.9447,1.7897,1.6126,1.4172,1.1494,0.8438,0.5018,0.1491,-0.1664,-0.4438,-0.5496,-0.6568,-0.758,-1.0136,-1.2028,-1.317,-1.5081,-1.634,-1.6802,-1.7646,0.0,0.0,0.0,0.0,0.0,0.0,0.0,0.0,0.0,-1.3123,-1.248,0.0,-1.2814,0.0,-1.3613,-1.4471,-1.8262,-2.0863,0.0,0.0,-1.2431,0.0261,2.1538,2.4871,2.0474,0.7687,0.0784,-0.6589,-1.5905,-1.3715,-1.0648,-0.8488,-0.4764,-0.2498,-0.319,-0.8257,-1.2417,-1.3362,-1.5879,-1.8648,-2.0739,-2.2834,-2.475,-2.6632,-2.7438,-2.7834,-2.7945,-2.8621,-2.9217,-2.9292,-2.9216,-2.9707,-3.1187,-3.1084,-3.0744,-3.029,-2.7684,-2.568,-2.6935,-2.6365,-2.5695,0.1707,0.3872,0.618,0.9459,1.3411,1.6413,1.8664,2.0396,2.2993,2.4163,2.439,2.5783,2.6177,2.5879,2.6318,2.6115,2.5296,2.4423,2.4015,2.386,2.1747,1.9705,1.794,1.8143,1.8226,1.8215,1.8582,1.9204,2.013,2.1025,2.2204,2.358,2.3151,2.1855,1.9731,1.8268,1.6269,1.3799,1.0431,0.7329,0.4577,0.1549,-0.1716,-0.5278,-0.5946,-0.6686,-0.7628,-0.9947,-1.1687,-1.2725,-1.4552,-1.6065,-1.7096,-1.7928,-1.81,0.0,0.0,0.0,0.0,0.0,0.0,0.0,0.0,0.0,0.0,0.0,-1.3673,-1.5468,-1.582,-1.7015,-1.9591,-2.3098,-2.4547,-2.2728,-1.3525,0.0242,1.9508,2.6472,2.6006,1.6173,1.0717,0.5058,-0.1893,-0.246,-0.3985,-0.8423,-0.7583,-0.6725,-0.7594,-1.0156,-1.2143,-1.3304,-1.5285,-1.7797,-2.084,-2.2564,-2.3989,-2.5283,-2.5753,-2.6021,-2.6609,-2.7158,-2.7635,-2.7868,-2.8049,-2.8364,-2.9199,-2.9592,-2.9484,-2.8317,-2.6741,-2.5693,-2.609,-2.5735,-2.5373,0.5595,0.8864,0.9395,1.1637,1.5018,1.7087,1.8555,1.9692,2.2117,2.3236,2.3375,2.3974,2.4326,2.4506,2.482,2.4773,2.4444,2.3504,2.3531,2.4115,2.1279,1.9803,1.9459,1.8043,1.7631,1.7961,1.8034,1.8398,1.903,2.0119,2.1495,2.3096,2.3437,2.2072,1.9067,1.7699,1.5625,1.2772,0.8692,0.6018,0.4775,0.1662,-0.2046,-0.606,-0.6514,-0.6918,-0.7676,-0.9585,-1.1234,-1.2406,-1.3924,-1.5676,-1.7639,-1.8113,-1.8446,0.0,-2.0758,0.0,0.0,0.0,0.0,0.0,0.0,0.0,0.0,-1.5717,-1.5736,-1.6991,-1.9293,-2.068,-2.0631,-2.5208,-2.7653,-2.5837,-1.3129,-0.045,0.9582,2.0848,2.6655,2.3541,2.15,1.8702,1.4548,1.2506,0.7395,-0.3471,-0.9267,-1.1592,-1.1688,-1.1439,-1.1841,-1.2841,-1.445,-1.7289,-2.0475,-2.1875,-2.2794,-2.3907,-2.4338,-2.4756,-2.6173,-2.6594,-2.6842,-2.7225,-2.7462,-2.7576,-2.722,-2.7636,-2.7459,-2.6188,-2.563,-2.539,-2.539,-2.536,-2.5243,0.787,0.9762,1.1283,1.3086,1.5217,1.7477,1.8905,1.9861,2.2459,2.3835,2.4219,2.3948,2.4062,2.4506,2.4567,2.4567,2.4441,2.3288,2.3014,2.3373,2.1221,1.9553,1.8411,1.8094,1.757,1.6832,1.6845,1.7402,1.8445,1.9141,1.988,2.0741,2.2615,2.0973,1.6001,0.0,0.0,0.0,0.7859,0.6455,0.606,0.2156,-0.155,-0.4772,-0.6009,0.0,-0.7501,-0.9064,-1.0358,-1.1208,-1.3734,0.0,0.0,0.0,0.0,0.0,0.0,0.0,0.0,0.0,0.0,0.0,-2.1229,-2.064,-2.0394,-2.0367,-2.0641,-2.1335,-2.3845,-2.5229,-2.4722,-2.7782,-2.8837,-2.5997,-2.4365,-1.6469,0.17,1.7841,2.6992,2.5944,2.4743,2.3597,2.2064,1.9546,1.0888,-0.4819,-0.9796,-1.1533,-1.2471,-1.2473,-1.2919,-1.4163,-1.6095,-1.8361,-2.041,-2.1603,-2.2411,-2.3014,-2.3732,-2.4243,-2.4579,-2.5054,-2.5359,-2.5638,-2.5746,-2.5975,-2.597,-2.608,-2.6172,-2.5746,-2.5652,-2.5557,-2.5331,-2.5313,-2.5253,0.968,1.1481,1.316,1.5026,0.0,1.895,2.0242,2.1067,2.2167,2.295,2.338,2.2839,2.2901,2.341,2.3342,2.3342,2.3346,2.2337,2.194,2.2053,2.0677,1.9309,1.8107,1.8115,1.7666,1.6909,1.6299,1.6535,1.7407,1.7636,1.8254,1.916,2.0323,1.925,1.6038,1.389,1.1626,0.9254,0.7463,0.6228,0.5444,0.1938,-0.1437,-0.4353,-0.5828,0.0,0.0,0.0,0.0,0.0,0.0,0.0,0.0,0.0,0.0,-2.005,-2.0686,-2.1941,-2.4108,-2.5386,-2.5286,-2.3555,-2.3726,-2.3496,-2.2488,-2.2488,-2.3038,-2.4269,-2.6914,-2.7933,-2.6507,-2.7639,-2.7513,-2.5183,-2.3057,-1.5268,0.0226,1.5201,2.458,2.558,2.4399,2.3517,2.4105,1.8121,0.8952,-0.4248,-0.8479,-1.0399,-1.1927,-1.2871,-1.3627,-1.4585,-1.6669,-1.8674,-1.9949,-2.1087,-2.1961,-2.2378,-2.2874,-2.34,-2.3787,-2.4244,-2.4633,-2.4892,-2.5113,-2.5302,-2.5499,-2.5582,-2.5601,-2.5682,-2.5696,-2.5646,-2.5446,-2.5351,-2.5274,1.1379,1.325,1.4954,1.6794,1.8672,2.0224,2.139,2.2148,2.1859,0.0,0.0,2.1711,2.1728,2.2077,2.1931,2.1977,2.202,2.1229,2.0926,2.0941,1.998,1.9038,1.8096,1.7995,1.7612,1.6967,1.6058,1.5864,1.6324,1.6373,1.6931,1.7899,1.7878,1.7244,1.599,1.2982,1.0444,0.8534,0.7256,0.5896,0.449,0.1719,-0.1271,-0.4398,-0.5764,-0.6858,-0.7628,-0.9919,-1.1506,-1.212,-1.3969,-1.5516,-1.6593,-1.6676,-1.7779,-2.0068,-2.1397,-2.2353,-2.3028,-2.5013,-2.579,-2.4783,-2.544,-2.5265,-2.3892,-2.3939,-2.4662,-2.6179,-2.833,-2.8785,-2.6872,-2.6271,-2.5293,-2.3439,-1.7731,-0.9819,0.1176,1.3149,2.1906,2.4022,2.2817,2.1749,2.2443,1.5504,0.6091,-0.2478,-0.7123,-0.94,-1.128,-1.308,-1.4415,-1.5136,-1.6679,-1.8218,-1.9493,-2.0404,-2.1294,-2.1869,-2.217,-2.2581,-2.328,-2.3881,-2.4284,-2.4564,-2.4873,-2.5126,-2.534,-2.5418,-2.5492,-2.5603,-2.5654,-2.5649,-2.5561,-2.5462,-2.5369,1.3077,1.4417,1.6198,1.7665,1.8896,1.9974,2.0911,2.1724,2.2038,2.2006,2.1688,2.1612,2.143,2.1197,2.115,2.115,2.1166,2.0616,2.0624,2.091,1.9611,1.8674,1.8076,1.7653,1.687,1.5884,1.5676,1.5632,1.5764,1.6176,1.6539,1.6739,1.6683,1.5207,1.2464,1.1366,0.9858,0.7811,0.6993,0.5946,0.449,0.2391,-0.0554,-0.4314,-0.5437,-0.6465,-0.7447,-0.9116,-1.0355,-1.104,-1.2793,-1.423,-1.5017,-1.6544,-1.7874,-1.8873,-2.0327,-2.1875,-2.3442,-2.4226,-2.5175,-2.6371,-2.6458,-2.6068,-2.5306,-2.6264,-2.6822,-2.6696,-2.6785,-2.6442,-2.5846,-2.4848,-2.3083,-2.0323,-1.5785,-0.8538,0.2329,1.2734,2.0185,2.2637,2.1777,2.0315,1.9237,1.5254,0.7847,-0.1934,-0.703,-0.9427,-1.1297,-1.3803,-1.5457,-1.6093,-1.6486,-1.7545,-1.9008,-1.9779,-2.0416,-2.133,-2.1915,-2.2334,-2.2521,-2.3396,-2.4022,-2.4137,-2.4595,-2.4948,-2.5015,-2.5184,-2.5329,-2.5399,-2.5544,-2.5643,-2.5515,-2.5434,-2.5486,1.4207,1.5588,1.6738,1.8023,1.9332,2.0265,2.091,2.1259,2.148,2.1615,2.1552,2.1102,2.0943,2.0959,2.0715,2.0764,2.0975,2.0516,2.0571,2.0889,1.9538,1.8289,1.7315,1.7302,1.6701,1.5632,1.5276,1.5107,1.5141,1.5353,1.5664,1.5964,1.5664,1.3925,1.0978,1.0806,0.9555,0.7101,0.674,0.595,0.4497,0.2561,-0.0,-0.3186,-0.4433,-0.5697,-0.6939,-0.8644,-0.9909,-1.0582,-1.2447,-1.3661,-1.4006,-1.5913,-1.7229,-1.7795,-1.9368,-2.0821,-2.1991,-2.2664,-2.3445,-2.4473,-2.4316,-2.3848,-2.3168,-2.5179,-2.6692,-2.7177,-2.6631,-2.5445,-2.3845,-2.1615,-1.9928,-1.9165,-1.1502,-0.3587,0.3362,1.2017,1.8614,2.0873,1.9796,1.846,1.8033,1.2865,0.5729,-0.3836,-0.754,-0.9138,-1.0061,-1.2358,-1.4501,-1.5601,-1.62,-1.6764,-1.7814,-1.893,-1.9718,-2.0374,-2.1486,-2.2145,-2.2235,-2.2828,-2.332,-2.3891,-2.4293,-2.4629,-2.495,-2.5214,-2.5284,-2.5299,-2.5381,-2.5274,-2.4578,-2.4235,-2.4539,1.5151,1.6621,1.7151,1.8271,1.9671,2.0483,2.0862,2.0813,2.0846,2.1007,2.1197,2.0583,2.0465,2.0665,2.033,2.0364,2.0632,2.033,2.035,2.0539,1.9339,1.8012,1.6864,1.7032,1.6502,1.5454,1.4926,1.4663,1.4514,1.4468,1.4732,1.5084,1.4755,1.3135,1.0378,1.0637,0.9408,0.6799,0.6588,0.595,0.449,0.2619,0.0611,-0.1615,-0.355,-0.5035,-0.6145,-0.8136,-0.9526,-1.0117,-1.1843,-1.2916,-1.3295,-1.4771,-1.6071,-1.6909,-1.8215,-1.9358,-2.0317,-2.101,-2.1647,-2.2051,-2.1861,-2.1384,-2.0907,-2.2512,-2.4377,-2.5633,-2.5305,-2.3853,-2.0864,-1.8027,-1.6174,-1.5429,-0.6701,0.0776,0.5042,1.184,1.7172,1.9135,1.7754,1.6531,1.5554,1.0755,0.3439,-0.3929,-0.7149,-0.7923,-0.8856,-1.0679,-1.2374,-1.3799,-1.5131,-1.6133,-1.6378,-1.7678,-1.8881,-1.9413,-2.0708,-2.1344,-2.1513,-2.1623,-2.2151,-2.2926,-2.3342,-2.3839,-2.4742,-2.5089,-2.5072,-2.5018,-2.5157,-2.4696,-2.2792,-2.2815,-2.3373,1.6108,1.7137,1.7746,1.865,1.9696,2.0177,2.0382,2.0348,2.0382,2.0366,2.0416,2.0333,2.0089,1.9854,1.9782,1.9818,1.9854,1.9797,1.9812,1.9705,1.8703,1.7903,1.7423,1.686,1.5964,1.4926,1.4744,1.4422,1.3956,1.392,1.392,1.3993,1.4082,1.301,1.0981,1.0754,0.9408,0.6642,0.6588,0.5891,0.449,0.2961,0.1393,-0.0167,-0.2998,-0.4549,-0.4812,-0.7304,-0.8764,-0.896,-1.0277,-1.1586,-1.2665,-1.3064,-1.4139,-1.6225,-1.6621,-1.7451,-1.915,-1.9793,-2.0193,-2.054,-2.0225,-1.9739,-1.911,-1.8576,-1.888,-2.016,-2.1256,-2.0314,-1.6905,-1.4587,-1.1955,-0.85,-0.2829,0.2859,0.7749,1.2423,1.579,1.7037,1.6055,1.511,1.4286,1.0443,0.462,-0.3698,-0.5183,-0.6084,-0.7937,-0.8922,-0.9651,-1.0754,-1.2773,-1.4959,-1.5922,-1.6532,-1.7639,-1.9147,-1.9722,-1.9943,-1.9999,-2.0173,-2.0482,-2.1448,-2.1739,-2.2483,-2.3594,-2.446,-2.4477,-2.4071,-2.4183,-2.4156,-2.1676,-2.1488,-2.2656,1.6705,1.7773,1.8327,1.9006,1.9675,1.9874,1.9929,1.9945,1.9929,1.9929,1.9894,1.963,1.9558,1.969,1.9705,1.9705,1.9705,1.9705,1.9705,1.9603,1.8612,1.793,1.757,1.6844,1.6051,1.5231,1.488,1.4387,1.392,1.3905,1.3905,1.3826,1.3993,1.3014,1.0965,1.0813,0.9408,0.6696,0.6588,0.5891,0.4532,0.3016,0.1505,0.0056,-0.1224,-0.2773,-0.4371,-0.5666,-0.6615,-0.7477,-0.8788,-0.9784,-1.0364,-1.1481,-1.2773,-1.4185,-1.5283,-1.6619,-1.8271,-1.8016,-1.8101,-1.8802,-1.7838,-1.6798,-1.5765,-1.4934,-1.4344,-1.4182,-1.7023,-1.7143,-1.2426,-1.0221,-0.8111,-0.5088,-0.1006,0.4123,1.0197,1.2054,1.3584,1.506,1.4293,1.3505,1.2419,0.7582,0.1696,-0.344,-0.4491,-0.5136,-0.618,-0.7191,-0.8258,-0.9148,-1.0689,-1.2349,-1.3979,-1.5647,-1.6688,-1.7462,-1.7784,-1.7897,-1.8743,-1.8877,-1.924,-2.0166,-2.0454,-2.0871,-2.1652,-2.2593,-2.2982,-2.265,-2.1606,-2.1069,-1.9908,-2.0117,-2.0609,1.6995,1.7894,1.8612,1.9207,1.969,1.9705,1.9705,1.9705,1.9705,1.9705,1.9654,1.9132,1.9118,1.9442,1.9493,1.9566,1.969,1.9705,1.9603,1.9406,1.8535,1.7892,1.7478,1.6828,1.6107,1.5365,1.4926,1.4294,1.3637,1.3711,1.3721,1.3552,1.3471,1.2569,1.0981,1.0751,0.9446,0.7274,0.6898,0.6188,0.4919,0.3562,0.1912,0.0,0.0,-0.1057,-0.3157,-0.4042,-0.4961,-0.6002,-0.7264,-0.8059,-0.8434,-0.9967,-1.1414,-1.2706,-1.4,-1.5321,-1.6654,-1.588,-1.5697,-1.645,-1.5322,-1.4013,-1.2913,-1.233,-1.1296,-1.0039,-1.2916,-1.2993,-0.9298,-0.6952,-0.5323,-0.3466,0.0162,0.4861,0.9961,1.1286,1.2368,1.3216,1.2996,1.2191,1.0842,0.5896,0.0554,-0.228,-0.3901,-0.3996,-0.3802,-0.5097,-0.6854,-0.7817,-0.8756,-1.0285,-1.2162,-1.4003,-1.5367,-1.6034,-1.625,-1.689,-1.7484,-1.7459,-1.7799,-1.8555,-1.9005,-1.9314,-1.9629,-2.0356,-2.1475,-2.095,-2.021,-1.9324,-1.8929,-1.8837,-1.8553,1.6837,1.7463,1.8458,1.9244,1.969,1.9705,1.9705,1.9705,1.9705,1.9705,1.9654,1.908,1.8893,1.8968,1.893,1.9207,1.9654,1.9654,1.9406,1.8968,1.8341,1.7814,1.7312,1.6752,1.5932,1.504,1.4789,1.4107,1.3055,1.2992,1.2924,1.2929,1.2314,1.1523,1.0886,1.0568,0.9631,0.8199,0.7537,0.6852,0.5927,0.485,0.2941,0.0,0.0,0.0,-0.0613,-0.2998,-0.4501,-0.4563,-0.5525,-0.6519,-0.7555,-0.8402,-1.0033,-1.2194,-1.2706,-1.3219,-1.3986,-1.3351,-1.3158,-1.3678,-1.3148,-1.2186,-1.0905,-1.0705,-0.9887,-0.8712,-0.8778,-0.8652,-0.7325,-0.5328,-0.3568,-0.1576,0.1184,0.4407,0.7571,1.0722,1.1877,1.1507,1.1713,1.1063,0.9119,0.6303,0.2785,-0.0111,-0.2627,-0.3458,-0.1654,-0.2916,-0.4848,-0.6157,-0.7541,-0.9379,-1.1306,-1.2638,-1.3596,-1.4384,-1.5238,-1.6065,-1.5878,-1.5831,-1.642,-1.6849,-1.7203,-1.7443,-1.7576,-1.8386,-1.9716,-2.0005,-2.0104,-1.9461,-1.7969,-1.7736,-1.7369,1.7504,1.838,1.908,1.953,1.969,1.9705,1.9705,1.9705,1.9705,1.9705,1.953,1.8779,1.8574,1.8855,1.8171,1.838,1.9132,1.9207,1.908,1.8817,1.7973,1.7463,1.7271,1.6752,1.6324,1.5823,1.5085,1.4071,1.3036,1.2909,1.3045,1.308,1.2219,1.1626,1.1415,1.0879,0.989,0.8525,0.7714,0.6944,0.618,0.5195,0.4056,0.2883,0.0959,0.0,0.0,-0.1057,-0.206,-0.2954,-0.4265,-0.5206,-0.5727,-0.7149,-0.8619,-0.9931,-1.0167,-1.059,-1.1336,-1.0681,-1.0615,-1.1523,-1.0322,-0.9277,-0.8377,-0.7136,-0.5342,-0.3839,-0.4142,-0.4027,-0.2957,-0.2019,-0.1311,-0.022,0.2179,0.4831,0.7136,0.9186,1.0159,1.0012,0.951,0.8008,0.6292,0.3511,0.1668,0.1335,-0.039,0.0,-0.0722,-0.1829,-0.3495,-0.4754,-0.595,-0.7186,-0.8659,-1.0539,-1.1888,-1.2863,-1.3718,-1.4317,-1.4399,-1.4849,-1.544,-1.561,-1.5777,-1.615,-1.649,-1.7358,-1.8538,-1.8802,-1.893,-1.8525,-1.6807,-1.6269,-1.5785,1.7666,1.8626,1.902,1.9406,1.969,1.9705,1.9705,1.9705,1.9705,1.9705,1.9493,1.8574,1.8302,1.8458,1.7706,1.7666,1.8366,1.8535,1.8574,1.8341,1.7626,1.7201,1.6993,1.668,1.6337,1.5927,1.4741,1.372,1.3135,1.296,1.3179,1.3607,1.2606,1.2,1.176,1.0997,0.9976,0.9092,0.8443,0.7717,0.6736,0.5843,0.5168,0.4424,0.2621,0.1024,0.0,0.0,-0.0447,-0.1562,-0.3398,-0.4508,-0.467,-0.5837,-0.7015,-0.7888,-0.8495,-0.856,-0.8439,-0.8586,-0.9117,-0.9841,-0.8397,-0.6993,-0.5959,-0.4066,-0.198,-0.0332,0.0443,0.0443,0.1162,0.1434,0.1268,0.1271,0.3463,0.5761,0.7138,0.8396,0.9152,0.9152,0.7747,0.6036,0.457,0.2839,0.1781,0.1668,0.0,0.0,0.0,-0.0836,-0.2284,-0.4058,-0.4878,-0.5797,-0.7127,-0.8916,-1.0061,-1.1033,-1.2102,-1.2678,-1.3283,-1.3816,-1.4267,-1.4387,-1.467,-1.5065,-1.571,-1.6533,-1.7022,-1.7327,-1.7727,-1.7666,-1.6111,-1.4573,-1.4342,1.7146,1.8106,1.8092,1.8803,1.9654,1.9705,1.9705,1.9705,1.9771,1.9861,1.9811,1.8687,1.8353,1.8137,1.7731,1.7418,1.7595,1.8031,1.7977,1.7528,1.735,1.7096,1.6759,1.661,1.6118,1.536,1.3782,1.3234,1.3506,1.3269,1.3408,1.3838,1.3199,1.2406,1.1888,1.0798,1.0174,0.9938,0.9794,0.9106,0.7814,0.7024,0.6129,0.5121,0.4604,0.3161,0.0,0.0,0.0,0.0,-0.2691,-0.4369,-0.4271,-0.4648,-0.5198,-0.6529,-0.7817,-0.7235,-0.5398,-0.7106,-0.8309,-0.8174,-0.7139,-0.5132,-0.3359,-0.2313,-0.0881,0.1385,0.2954,0.4147,0.4033,0.4079,0.3564,0.2826,0.5089,0.6815,0.7069,0.8495,0.9465,0.8639,0.7063,0.5592,0.4802,0.4144,0.3188,0.1395,0.0,0.0,0.0,0.0,0.0,-0.3352,-0.446,-0.5097,-0.6225,-0.7376,-0.8229,-0.9125,-1.0267,-1.1139,-1.184,-1.2451,-1.3143,-1.3382,-1.3559,-1.3955,-1.4273,-1.5059,-1.5669,-1.6039,-1.6473,-1.6472,-1.502,-1.3646,-1.3327,1.7463,1.8106,1.8496,1.9058,1.969,1.9705,1.9705,1.9765,2.0168,2.067,2.082,1.9859,1.9349,1.9094,1.8393,1.7913,1.7925,1.8093,1.8065,1.7869,1.7527,1.7467,1.7543,1.7152,1.6311,1.52,1.443,1.4004,1.3912,1.4009,1.4031,1.3661,1.2907,1.2258,1.1856,1.0911,1.0428,1.0365,0.98,0.9225,0.8695,0.7609,0.6689,0.5954,0.5443,0.4538,0.3354,0.1227,0.0,0.0,-0.0895,-0.184,-0.2839,-0.3907,-0.4684,-0.5113,-0.5534,-0.5622,-0.4826,-0.5152,-0.5694,-0.532,-0.3531,-0.1932,-0.094,0.0166,0.1548,0.3229,0.4135,0.447,0.447,0.447,0.4242,0.3846,0.5605,0.6874,0.6918,0.809,0.854,0.786,0.6686,0.5588,0.4791,0.4477,0.403,0.3016,0.1396,0.0,0.0,0.0,0.0,-0.1339,-0.2724,-0.4446,-0.5408,-0.6382,-0.7236,-0.8273,-0.9335,-1.0086,-1.0714,-1.1337,-1.2003,-1.247,-1.2625,-1.2886,-1.3213,-1.3559,-1.4168,-1.4474,-1.4692,-1.4226,-1.3416,-1.2821,-1.2402,1.8124,1.881,1.9387,1.9938,2.0438,2.0423,2.0147,1.9878,2.0691,2.133,2.1401,2.0387,1.977,1.94,1.8601,1.8204,1.8204,1.8204,1.8304,1.839,1.7969,1.7903,1.8024,1.7157,1.6154,1.5269,1.4963,1.4733,1.4385,1.4499,1.4487,1.4142,1.2922,1.2242,1.2074,1.117,1.0618,1.0498,1.004,0.9594,0.9139,0.8291,0.7316,0.6561,0.5773,0.5325,0.4957,0.3003,0.1361,0.0,0.0,0.0,-0.1395,-0.2289,-0.3297,-0.4135,-0.3458,-0.2779,-0.2758,-0.1605,-0.1724,-0.1997,-0.0554,0.1055,0.1722,0.2885,0.4003,0.4356,0.4508,0.4505,0.446,0.4463,0.4463,0.4529,0.5719,0.675,0.7348,0.7943,0.7949,0.7203,0.6303,0.5433,0.4787,0.4473,0.4477,0.4138,0.2905,0.0893,0.0,0.0,0.0,0.0,-0.195,-0.339,-0.4429,-0.5362,-0.6244,-0.7495,-0.8748,-0.9274,-0.9843,-1.0517,-1.1185,-1.1643,-1.1925,-1.233,-1.2625,-1.2377,-1.2633,-1.278,-1.3044,-1.226,-1.1662,-1.1554,-1.1237,1.8919,1.9917,2.057,2.1064,2.1535,2.1575,2.0941,2.0219,2.1093,2.1676,2.1465,2.0538,1.9737,1.9134,1.8741,1.8468,1.8317,1.843,1.8668,1.883,1.8593,1.8442,1.8324,1.7178,1.6148,1.5416,1.5306,1.5134,1.4805,1.4788,1.4867,1.4838,1.3262,1.2425,1.2381,1.1358,1.0618,1.0561,1.0561,1.011,0.946,0.9128,0.8334,0.7024,0.6278,0.5701,0.5293,0.4941,0.3451,0.0,0.0,0.028,0.0112,0.0056,-0.1506,-0.3524,-0.1393,-0.0056,0.0835,0.1838,0.251,0.0667,0.1502,0.2956,0.4132,0.4736,0.5062,0.4846,0.4652,0.4535,0.4615,0.4791,0.4791,0.4897,0.5932,0.7128,0.8427,0.8209,0.7723,0.6912,0.6036,0.5269,0.4673,0.4467,0.4473,0.4421,0.4203,0.2907,0.0,0.0,0.0,0.0,0.0,-0.2788,-0.3944,-0.4703,-0.5642,-0.6806,-0.7862,-0.8257,-0.8974,-0.969,-1.0178,-1.0676,-1.1084,-1.1538,-1.1649,-1.1291,-1.1505,-1.2073,-1.1678,-1.0635,-1.0325,-1.0426,-1.0198,1.8864,1.9887,2.0074,2.0752,2.164,2.1695,2.1524,2.1201,2.1511,2.1672,2.1518,2.09,2.0399,2.0237,1.9634,1.9371,1.9309,1.9334,1.9422,1.9547,1.9472,1.9357,1.9211,1.8248,1.7114,1.6171,1.5558,1.5357,1.5244,1.5148,1.4984,1.4442,1.3459,1.2541,1.202,1.117,1.0618,1.0618,1.0618,1.0491,1.0308,1.0155,0.9637,0.8683,0.8096,0.7006,0.5654,0.5422,0.4327,0.1928,0.1639,0.1619,0.1562,0.0724,-0.0167,-0.0445,0.1448,0.3246,0.3188,0.3019,0.2963,0.3413,0.3574,0.4359,0.5356,0.5128,0.534,0.5492,0.519,0.4852,0.5416,0.5819,0.6204,0.6745,0.6745,0.7235,0.8368,0.8639,0.8209,0.7503,0.6745,0.5756,0.4875,0.456,0.4522,0.4525,0.4418,0.4258,0.2738,0.0,0.0,0.0,0.0,0.0,-0.3458,-0.4161,-0.5042,-0.6164,-0.6881,-0.7062,-0.7957,-0.889,-0.9232,-0.9578,-0.979,-1.0167,-1.0059,-0.9783,-1.0498,-1.1098,-1.0596,-0.9731,-0.9785,-0.982,-0.9279,2.0016,2.1076,2.134,2.1843,2.2446,2.2253,2.2247,2.2352,2.1912,2.1365,2.0975,2.086,2.0646,2.0346,1.9952,1.9798,1.9798,1.9798,1.9786,1.9786,1.9761,1.9574,1.9227,1.8889,1.798,1.6161,1.5642,1.5459,1.54,1.542,1.5118,1.4688,1.3906,1.3114,1.2389,1.1531,1.0933,1.0681,1.0618,1.0618,1.0568,1.0608,1.0091,0.9402,0.8952,0.7947,0.6689,0.628,0.525,0.3808,0.327,0.3178,0.313,0.24,0.1896,0.2007,0.3641,0.4442,0.4438,0.3968,0.4184,0.4919,0.5246,0.5622,0.6055,0.5882,0.6312,0.6312,0.6303,0.618,0.6013,0.6529,0.7144,0.7456,0.7289,0.7563,0.8705,0.848,0.8156,0.767,0.7015,0.6077,0.4743,0.4827,0.4787,0.4629,0.4467,0.4477,0.403,0.2176,0.0,0.0,0.0,0.0,-0.3188,-0.4073,-0.4453,-0.5517,-0.5864,-0.6086,-0.694,-0.7984,-0.831,-0.8514,-0.859,-0.8684,-0.8807,-0.8799,-0.891,-0.9257,-0.9059,-0.8945,-0.8815,-0.87,-0.8195,2.1485,2.2634,2.3172,2.3493,2.3448,2.3039,2.2889,2.3045,2.2128,2.1008,2.0211,2.0442,2.0346,1.9798,1.985,1.9798,1.9798,1.9798,1.9798,1.9798,1.972,1.9401,1.8783,1.8966,1.7912,1.6103,1.5576,1.5625,1.5703,1.5644,1.5596,1.5367,1.4722,1.3943,1.3091,1.2266,1.1464,1.0812,1.0645,1.0624,1.0618,1.0568,1.0251,0.9664,0.9128,0.8672,0.8037,0.7475,0.6561,0.5432,0.4883,0.4448,0.4392,0.4402,0.4317,0.4311,0.4536,0.4879,0.4879,0.5466,0.5791,0.5959,0.6273,0.6642,0.675,0.6966,0.7074,0.7128,0.7925,0.7408,0.6897,0.7144,0.7591,0.7895,0.783,0.8156,0.8487,0.8215,0.783,0.7723,0.7128,0.6023,0.5584,0.5261,0.5395,0.4574,0.4467,0.447,0.4363,0.335,0.1506,0.0,0.0,0.0,-0.2573,-0.4095,-0.4311,-0.4809,-0.4889,-0.5197,-0.602,-0.6849,-0.7276,-0.7553,-0.75,-0.7808,-0.8212,-0.8165,-0.7918,-0.7504,-0.7437,-0.7293,-0.7141,-0.7127,-0.6844,2.0784,2.1946,2.2039,2.2696,2.3508,2.345,2.2918,2.2133,2.186,2.1006,2.0105,2.0003,2.0003,1.9849,1.9911,1.9798,1.9899,1.9899,1.9798,1.9798,1.9798,1.9461,1.8792,1.8578,1.7665,1.6724,1.6535,1.6416,1.6344,1.6276,1.6436,1.6263,1.5536,1.4734,1.3841,1.29,1.1854,1.1122,1.0752,1.0638,1.0694,1.0618,1.0491,1.0174,0.9588,0.9204,0.8894,0.8252,0.7618,0.6935,0.5758,0.4964,0.483,0.4713,0.4595,0.4794,0.5644,0.6156,0.6178,0.6356,0.6436,0.6564,0.6732,0.6858,0.7396,0.7155,0.7473,0.7771,0.7646,0.758,0.7955,0.8281,0.844,0.8427,0.848,0.8586,0.8692,0.8639,0.8474,0.8262,0.7509,0.6879,0.7481,0.5559,0.5179,0.4629,0.4463,0.4467,0.4301,0.4024,0.2792,0.106,-0.0168,-0.0614,-0.1286,-0.2854,-0.3697,-0.4255,-0.446,-0.4549,-0.5345,-0.5821,-0.6305,-0.6444,-0.6353,-0.676,-0.7348,-0.7314,-0.7086,-0.6481,-0.5981,-0.622,-0.6261,-0.5989,-0.5852,2.1411,2.256,2.2606,2.317,2.3852,2.3416,2.2909,2.2504,2.183,2.1238,2.0696,2.0589,2.0589,2.0589,2.0602,2.0602,2.0589,2.0589,2.027,2.0092,2.0282,2.0428,1.9875,1.8725,1.7719,1.7114,1.6934,1.6821,1.6738,1.6685,1.6617,1.6665,1.6275,1.5606,1.4737,1.3688,1.2683,1.1682,1.1118,1.0987,1.1284,1.0843,1.0571,1.0548,1.0174,0.9919,0.9862,0.9099,0.8645,0.8122,0.7026,0.6102,0.5797,0.5575,0.5167,0.4856,0.6454,0.7632,0.7869,0.7611,0.7356,0.7351,0.7626,0.796,0.8336,0.811,0.8422,0.8805,0.8435,0.8055,0.8667,0.8791,0.8771,0.8804,0.8804,0.8804,0.8804,0.8804,0.8804,0.8699,0.8156,0.7521,0.6874,0.5828,0.5066,0.4677,0.4515,0.4463,0.4467,0.4245,0.3919,0.2514,0.0837,-0.0056,-0.0335,-0.1398,-0.2798,-0.3638,-0.4477,-0.4467,-0.4805,-0.5169,-0.5409,-0.5517,-0.5695,-0.58,-0.6256,-0.6234,-0.6124,-0.5534,-0.5259,-0.549,-0.5607,-0.5482,-0.5268,2.2473,2.3628,2.3718,2.4104,2.4382,2.3439,2.3192,2.3264,2.2185,2.1712,2.1668,2.1587,2.1317,2.143,2.1405,2.1455,2.143,2.138,2.0894,2.0419,2.0957,2.1412,2.1076,1.9746,1.8291,1.7179,1.7254,1.7179,1.7021,1.6934,1.709,1.6973,1.6899,1.6617,1.5862,1.482,1.3639,1.2475,1.1832,1.1848,1.2125,1.1439,1.085,1.0598,1.0555,1.0491,1.0358,0.9863,0.9503,0.9421,0.8656,0.8027,0.7544,0.6905,0.6276,0.5209,0.7391,0.8832,0.9298,0.8915,0.8395,0.8458,0.8851,0.9194,0.924,0.9295,0.9444,0.9426,0.9144,0.8884,0.8944,0.8834,0.8864,0.8825,0.8851,0.8804,0.8804,0.8804,0.8804,0.8752,0.8321,0.7788,0.6961,0.6027,0.5324,0.4725,0.4622,0.4463,0.4467,0.4411,0.4141,0.3638,0.1955,0.0391,-0.0056,0.0,0.0,0.0,0.0,-0.3913,-0.4082,-0.4714,-0.4969,-0.5096,-0.519,-0.5351,-0.5371,-0.5446,-0.5162,-0.458,-0.4603,-0.4919,-0.5005,-0.4931,-0.4816,2.2547,2.3717,2.4287,2.4544,2.4505,2.4275,2.39,2.3366,2.2614,2.2473,2.2674,2.1906,2.1581,2.1556,2.1506,2.1506,2.1581,2.1619,2.1437,2.1156,2.1512,2.1938,2.2159,2.0519,1.9284,1.882,1.8201,1.7762,1.7725,1.7803,1.7646,1.7744,1.7725,1.7552,1.7044,1.609,1.4661,1.3629,1.2964,1.2943,1.3042,1.2266,1.137,1.0926,1.0807,1.0758,1.0694,1.0548,1.0408,1.0338,1.0199,0.9923,0.9332,0.8306,0.7527,0.7464,0.8581,0.99,1.0162,0.9778,0.9497,0.9491,0.9548,0.9606,0.9626,0.9679,0.9793,0.9753,0.9674,0.9601,0.9741,0.9345,0.902,0.9057,0.8924,0.8791,0.8831,0.8818,0.8811,0.8752,0.8374,0.7943,0.7171,0.6342,0.5521,0.4984,0.4725,0.4567,0.4519,0.4522,0.4418,0.3802,0.2963,0.1454,0.0224,0.0,0.0,0.0,0.0,0.0,-0.3014,-0.4141,-0.4597,-0.475,-0.4793,-0.477,-0.482,-0.4812,-0.4744,-0.4519,-0.4487,-0.4451,-0.4584,-0.4715,-0.4684,2.3814,2.4702,2.5011,2.5092,2.4991,2.4586,2.447,2.4281,2.3254,2.2911,2.2898,2.2551,2.2334,2.2334,2.2334,2.2209,2.2008,2.2259,2.1993,2.1736,2.2043,2.2548,2.2895,2.1051,2.0314,1.9629,1.871,1.8008,1.8008,1.7988,1.8008,1.7998,1.8008,1.7988,1.7764,1.6686,1.5921,1.5191,1.44,1.3899,1.4213,1.3097,1.2212,1.1911,1.1567,1.1346,1.1248,1.1365,1.1108,1.0793,1.0961,1.0822,1.0327,0.9771,0.9059,0.8939,0.9665,1.0363,1.0504,1.0154,0.9913,0.9907,0.9913,0.9907,0.9953,1.004,1.0161,1.0161,1.0152,1.0178,1.0303,0.9897,0.9761,0.9489,0.915,0.8943,0.8944,0.8898,0.8864,0.8844,0.8612,0.8234,0.7723,0.6779,0.5725,0.5186,0.4933,0.4725,0.457,0.4522,0.447,0.3855,0.3019,0.162,0.0448,0.0,0.0,0.0,0.0,0.0,-0.184,-0.2847,-0.3863,-0.4512,-0.447,-0.4239,-0.4501,-0.4671,-0.4549,-0.4463,-0.4497,-0.4492,-0.4485,-0.4467,-0.4485,2.5238,2.5824,2.5801,2.5672,2.5403,2.4692,2.4514,2.4646,2.3607,2.3075,2.3125,2.31,2.3075,2.3113,2.299,2.2874,2.2523,2.2877,2.2533,2.2238,2.263,2.3113,2.2616,2.1604,2.0504,2.0171,1.8787,1.8008,1.8008,1.8008,1.8008,1.8008,1.8008,1.8008,1.7755,1.7147,1.7187,1.6721,1.5899,1.5014,1.4611,1.3994,1.3189,1.3009,1.2613,1.2235,1.2102,1.1956,1.1764,1.1447,1.1494,1.1549,1.1163,1.0975,1.0581,1.0146,1.0394,1.0521,1.0551,1.0361,1.0207,1.0207,1.0207,1.02,1.0234,1.0361,1.0571,1.0577,1.0581,1.0554,1.0519,1.0412,1.0272,1.011,0.9526,0.9075,0.9216,0.9192,0.9051,0.8998,0.8911,0.8598,0.8152,0.7498,0.6499,0.5738,0.5429,0.4835,0.468,0.4519,0.4353,0.3796,0.2903,0.1509,0.0615,0.028,0.0,0.0,0.0,0.0,0.0,-0.1507,-0.2683,-0.3925,-0.3688,-0.3566,-0.4015,-0.4467,-0.4473,-0.4473,-0.447,-0.4508,-0.4474,-0.4464,-0.4501,2.5883,2.6479,2.6426,2.6005,2.537,2.4646,2.3923,2.3403,2.321,2.3125,2.3125,2.3125,2.3125,2.3125,2.3125,2.3027,2.3002,2.2977,2.299,2.278,2.299,2.3125,2.2871,2.1353,2.0846,2.0462,1.8911,1.8134,1.8066,1.8066,1.8008,1.8008,1.8008,1.8008,1.791,1.7494,1.7369,1.7312,1.6737,1.5892,1.5118,1.4789,1.4136,1.3456,1.3066,1.2985,1.2927,1.2653,1.2251,1.2546,1.2043,1.2197,1.2512,1.2265,1.1463,1.0861,1.0581,1.0618,1.0667,1.0551,1.0454,1.0448,1.0461,1.0501,1.0544,1.0537,1.0604,1.0618,1.069,1.0781,1.0712,1.0275,1.0228,1.0352,1.0362,0.9962,0.9772,0.9778,0.9584,0.9196,0.9137,0.8984,0.8622,0.7997,0.7337,0.6578,0.5873,0.5289,0.4732,0.457,0.4467,0.4024,0.3633,0.2402,0.19,0.1398,0.0,0.0,0.0,0.0,0.0,-0.1006,-0.2296,-0.3137,-0.2905,-0.3241,-0.4092,-0.449,-0.449,-0.3974,-0.3347,-0.3747,-0.4432,-0.4487,-0.4418,2.6926,2.7171,2.7136,2.6428,2.5398,2.5063,2.4221,2.3245,2.3125,2.3125,2.3125,2.3125,2.3125,2.3125,2.3125,2.3125,2.3125,2.315,2.3078,2.315,2.315,2.3138,2.2823,2.2002,2.1376,2.0846,1.9748,1.8854,1.8654,1.8269,1.8008,1.8008,1.8008,1.8008,1.8008,1.7832,1.7765,1.7658,1.7268,1.6689,1.6094,1.5855,1.5645,1.5076,1.4577,1.4259,1.4013,1.4048,1.3424,1.3339,1.2923,1.3053,1.3,1.2716,1.2279,1.1783,1.276,1.2445,1.0989,1.0717,1.0674,1.0624,1.0624,1.0611,1.0604,1.0627,1.0864,1.1288,1.1717,1.1764,1.1556,1.1561,1.1502,1.1526,1.1487,1.1012,1.0638,1.0387,1.0243,0.9797,0.9359,0.9177,0.9059,0.8773,0.811,0.7234,0.6486,0.5905,0.5183,0.4515,0.4467,0.4418,0.4086,0.358,0.3471,0.3193,0.235,0.0,0.0,0.0,0.0,-0.0783,0.0,0.0,-0.2073,-0.2747,-0.3996,-0.4104,-0.3699,-0.285,-0.1952,0.0,0.0,-0.4154,-0.4144,2.7979,2.7814,2.7482,2.6602,2.5453,2.5398,2.4496,2.3185,2.3365,2.3305,2.3125,2.3125,2.3125,2.3125,2.3125,2.3125,2.309,2.3215,2.3165,2.3213,2.3251,2.3263,2.2873,2.2261,2.1827,2.1889,2.0009,1.9431,1.9243,1.8654,1.8008,1.8008,1.8008,1.8008,1.8008,1.7978,1.7978,1.7872,1.7703,1.7256,1.6899,1.6831,1.6679,1.6388,1.6018,1.5589,1.5352,1.505,1.4414,1.4291,1.4091,1.4065,1.3821,1.3796,1.3604,1.3439,1.4373,1.4162,1.2577,1.1692,1.1108,1.0863,1.0624,1.0618,1.0611,1.0586,1.0712,1.1286,1.253,1.2504,1.2218,1.2425,1.3078,1.2943,1.2767,1.2226,1.1623,1.1101,1.0587,1.0041,0.9656,0.9525,0.9414,0.9381,0.8833,0.7949,0.7193,0.6502,0.5753,0.4893,0.4585,0.4626,0.4518,0.427,0.4216,0.4038,0.3506,0.3035,0.1682,0.0559,0.028,0.0,0.0,0.0,0.0,-0.1514,-0.2244,-0.2577,0.0,0.0,0.0,0.0,0.0,0.0,-0.353,2.9086,2.842,2.717,2.6204,2.5398,2.5398,2.4567,2.3394,2.391,2.3747,2.3213,2.3163,2.3213,2.3163,2.3115,2.3103,2.3128,2.3703,2.3627,2.354,2.3602,2.364,2.3232,2.2628,2.2085,2.1812,2.0549,2.0139,2.002,1.911,1.8395,1.8008,1.8134,1.8076,1.8008,1.8008,1.8008,1.8008,1.7861,1.7695,1.7441,1.7295,1.7093,1.6635,1.6529,1.6471,1.6205,1.557,1.5312,1.552,1.5213,1.5093,1.5042,1.4878,1.4728,1.5152,1.542,1.5343,1.4515,1.331,1.2143,1.1648,1.1254,1.0968,1.1045,1.0737,1.0746,1.129,1.2989,1.2956,1.2417,1.2409,1.3951,1.415,1.3717,1.2849,1.2179,1.1468,1.088,1.0316,1.0013,0.9886,0.9819,0.984,0.9905,0.9101,0.7963,0.7249,0.6398,0.5588,0.504,0.4836,0.4853,0.4687,0.452,0.4259,0.4019,0.3978,0.3256,0.1811,0.0731,0.0,0.0,0.0,0.0056,-0.0168,0.0,0.0,0.0,0.0,0.0,0.0,0.0,0.0,0.0,2.9445,2.9175,2.864,2.7216,2.5398,2.5398,2.5037,2.4463,2.3842,2.3653,2.3665,2.3665,2.3665,2.359,2.3215,2.3351,2.3653,2.3853,2.4004,2.4217,2.4356,2.4356,2.3903,2.358,2.3219,2.2821,2.1701,2.0985,2.1175,2.0107,1.977,1.9365,1.8714,1.8066,1.8008,1.8008,1.8008,1.8008,1.8008,1.7891,1.7852,1.7764,1.7609,1.7453,1.7113,1.7074,1.6912,1.6364,1.6283,1.6278,1.6081,1.6071,1.6007,1.572,1.5839,1.634,1.6592,1.6621,1.6292,1.5311,1.4444,1.3081,1.2633,1.2248,1.1956,1.1805,1.2073,1.2772,1.3752,1.3855,1.4118,1.4296,1.494,1.5065,1.4561,1.3511,1.2765,1.2089,1.1329,1.0746,1.0526,1.0381,1.0319,1.0305,1.0438,1.0309,0.91,0.799,0.7125,0.6289,0.5705,0.5225,0.5171,0.502,0.4847,0.47,0.4568,0.4562,0.4612,0.3287,0.1941,0.0,0.0,0.0,0.1229,0.1006,0.0,0.0,0.0,0.0,0.0,0.0,0.0,0.0,0.0,3.0043,2.9864,2.9849,2.8344,2.6105,2.6162,2.5796,2.4984,2.4307,2.4001,2.4243,2.4243,2.4243,2.4117,2.3891,2.3841,2.423,2.4456,2.4607,2.477,2.4908,2.5086,2.4987,2.4633,2.4104,2.3941,2.3138,2.2412,2.2853,2.1636,2.119,2.0764,2.0036,1.9396,1.8395,1.8134,1.8008,1.8008,1.8008,1.8008,1.7998,1.7988,1.7988,1.792,1.7676,1.7588,1.7451,1.7038,1.6889,1.6924,1.684,1.6772,1.6616,1.6507,1.6593,1.7066,1.754,1.7698,1.7184,1.644,1.5742,1.4374,1.36,1.3334,1.3182,1.2874,1.3039,1.3511,1.4638,1.5469,1.5625,1.5508,1.5487,1.5515,1.484,1.3965,1.3494,1.2826,1.1965,1.1231,1.108,1.0885,1.0508,1.0481,1.0497,1.0554,1.006,0.9027,0.8247,0.7307,0.6341,0.5841,0.5465,0.5359,0.5243,0.5037,0.4822,0.467,0.4608,0.4318,0.3738,0.4374,0.4409,0.3421,0.2685,0.2291,0.0,0.0,0.0,0.0,0.0,0.0,0.0,0.0,0.0,3.1061,3.0507,3.0492,2.9202,2.7402,2.7911,2.6731,2.4773,2.5316,2.5331,2.4795,2.4795,2.4808,2.4757,2.4594,2.4619,2.4833,2.5197,2.5322,2.5184,2.5448,2.5866,2.5766,2.5421,2.4795,2.4589,2.3977,2.3737,2.4427,2.306,2.2554,2.246,2.1978,2.1105,1.9393,1.8462,1.8076,1.8008,1.8076,1.8008,1.8008,1.8008,1.8008,1.7978,1.7939,1.7871,1.7783,1.7568,1.7383,1.7363,1.7363,1.7227,1.6928,1.7444,1.7464,1.7232,1.7724,1.7714,1.7183,1.6216,1.5744,1.545,1.4868,1.4251,1.3899,1.3757,1.3961,1.4517,1.5078,1.5829,1.5999,1.6009,1.6018,1.5819,1.5175,1.4616,1.4152,1.3744,1.2902,1.1747,1.1593,1.1531,1.0919,1.0548,1.0548,1.0618,1.0564,1.006,0.922,0.8392,0.7375,0.6985,0.6531,0.6256,0.6089,0.5378,0.5018,0.4859,0.4729,0.4572,0.4455,0.4572,0.4484,0.4266,0.399,0.3465,0.2788,0.0,0.0,0.0,0.0,0.0,0.0,0.0,0.0,3.1347,3.118,3.118,3.0441,2.9268,2.8584,2.7055,2.5379,2.5833,2.5934,2.5413,2.5322,2.5335,2.5247,2.5046,2.5059,2.536,2.5423,2.5498,2.5925,2.6063,2.6274,2.619,2.5823,2.5347,2.5156,2.4731,2.4493,2.4718,2.4032,2.3989,2.3998,2.3406,2.2541,2.123,2.0036,1.8931,1.8906,1.8502,1.8008,1.8008,1.8076,1.8076,1.8076,1.8076,1.8076,1.8008,1.7793,1.7754,1.7744,1.7744,1.7646,1.751,1.7978,1.791,1.7696,1.7967,1.789,1.7706,1.7331,1.7101,1.6665,1.6234,1.5744,1.5696,1.5729,1.566,1.5504,1.5761,1.6458,1.6691,1.6569,1.6527,1.6465,1.6009,1.5439,1.4985,1.4559,1.3853,1.2437,1.1772,1.1351,1.0863,1.0618,1.0618,1.0618,1.0601,1.0608,0.9983,0.9406,0.8601,0.835,0.796,0.7569,0.7099,0.633,0.5804,0.5672,0.5413,0.5116,0.5047,0.4894,0.477,0.4627,0.4644,0.4657,0.3893,0.3105,0.1899,0.0,0.0,0.0,0.0,0.0,0.0,3.1467,3.1467,3.1467,3.1029,3.0259,2.942,2.7945,2.6459,2.6687,2.6563,2.6047,2.59,2.59,2.5787,2.5611,2.5498,2.59,2.5912,2.5975,2.6508,2.6508,2.6471,2.6345,2.6101,2.5937,2.5774,2.5611,2.5423,2.5498,2.5423,2.5369,2.5162,2.4472,2.3983,2.2862,2.1597,2.0008,1.9899,1.9386,1.911,1.9044,1.8977,1.8787,1.8586,1.8462,1.8337,1.8144,1.8008,1.8008,1.8008,1.8008,1.8008,1.8008,1.8008,1.8008,1.8008,1.8008,1.7998,1.7969,1.7959,1.7696,1.7551,1.75,1.7256,1.6963,1.6577,1.6481,1.6442,1.6685,1.6875,1.7101,1.6924,1.6855,1.6846,1.6641,1.6103,1.5817,1.5445,1.4763,1.331,1.1981,1.149,1.0807,1.0744,1.0618,1.0618,1.0561,1.0618,1.0618,1.0104,0.96,0.935,0.9017,0.8538,0.7936,0.727,0.6811,0.6506,0.6039,0.5435,0.5371,0.5144,0.5044,0.4938,0.4897,0.4817,0.484,0.4114,0.3313,0.2128,0.0,0.0,0.0,0.0,0.0,3.1467,3.1467,3.1467,3.1029,3.0389,3.0079,2.9143,2.7683,2.7577,2.7136,2.6508,2.6458,2.6352,2.6402,2.6389,2.6352,2.6339,2.6433,2.6471,2.6508,2.6521,2.6521,2.6521,2.6389,2.6289,2.6364,2.6289,2.6088,2.6433,2.6176,2.6201,2.6126,2.5353,2.5046,2.4232,2.3107,2.1513,2.1045,2.0388,2.0183,2.0194,2.0279,1.9814,1.9486,1.9177,1.8787,1.8462,1.8144,1.8008,1.8008,1.8008,1.8008,1.8008,1.8008,1.8008,1.8008,1.8008,1.8008,1.8008,1.8008,1.7998,1.7861,1.7637,1.7461,1.7344,1.7168,1.7015,1.6957,1.7061,1.7197,1.7314,1.7197,1.71,1.708,1.7061,1.6776,1.6675,1.6201,1.5542,1.4365,1.2956,1.2003,1.0933,1.0618,1.0618,1.0618,1.0618,1.0618,1.0618,1.0555,1.0251,1.0155,0.9823,0.9356,0.8753,0.8355,0.8172,0.7977,0.6159,0.537,0.5378,0.5407,0.5255,0.5077,0.4989,0.4979,0.4991,0.5116,0.5075,0.3779,0.2417,0.0,0.0,0.0,0.0,3.1467,3.1467,3.1467,3.1029,3.0269,2.9628,2.8734,2.7736,2.7095,2.6658,2.6521,2.6521,2.6521,2.6521,2.6521,2.6521,2.6521,2.6521,2.6508,2.6521,2.6521,2.6521,2.6521,2.6521,2.6521,2.6521,2.6521,2.6521,2.6496,2.6521,2.6521,2.6314,2.6025,2.5862,2.5303,2.4439,2.3369,2.235,2.141,2.1243,2.1168,2.1156,2.0725,2.039,1.9888,1.9502,1.9168,1.8436,1.83,1.8135,1.8027,1.8018,1.8008,1.8008,1.8008,1.8008,1.8008,1.8008,1.8008,1.8008,1.8008,1.8008,1.7852,1.7871,1.7793,1.7666,1.7539,1.7471,1.7451,1.7598,1.7656,1.7578,1.751,1.75,1.7471,1.7373,1.7207,1.6899,1.6135,1.4442,1.3081,1.1884,1.0869,1.0618,1.0618,1.0618,1.0624,1.0638,1.0638,1.0638,1.0561,1.0538,1.041,0.9868,1.0015,0.9746,0.9643,0.925,0.7145,0.5618,0.5658,0.5632,0.5387,0.5291,0.5155,0.5182,0.5315,0.5413,0.5414,0.5424,0.4178,0.2471,0.0,0.0,0.0,3.1467,3.1467,3.1146,3.0389,2.9254,2.8363,2.7657,2.7229,2.704,2.685,2.6521,2.6521,2.6521,2.6521,2.6521,2.6521,2.6521,2.6521,2.6521,2.6521,2.6521,2.6521,2.6521,2.6521,2.6521,2.6521,2.6521,2.6521,2.6521,2.6521,2.6521,2.6521,2.6521,2.6251,2.5807,2.5303,2.4772,2.3839,2.3027,2.2507,2.2332,2.2315,2.2174,2.1652,2.1051,2.0787,2.0331,1.953,1.916,1.8913,1.8755,1.8262,1.8203,1.8135,1.8018,1.8008,1.8008,1.8008,1.8008,1.8008,1.8008,1.8018,1.8027,1.7988,1.7988,1.79,1.7891,1.7891,1.7939,1.7988,1.7998,1.7998,1.7988,1.7978,1.793,1.7881,1.7676,1.7461,1.6067,1.432,1.2924,1.1681,1.1001,1.0742,1.0618,1.0618,1.0665,1.0732,1.0719,1.0698,1.0651,1.0575,1.0575,1.0434,1.0601,1.0584,1.0328,0.9379,0.7126,0.6002,0.6021,0.5778,0.5508,0.5391,0.5401,0.5418,0.5418,0.5411,0.5384,0.5386,0.5403,0.4148,0.2388,0.0,0.0,3.1409,3.1278,3.045,2.9192,2.7723,2.696,2.6589,2.6589,2.7162,2.7162,2.6589,2.6521,2.6521,2.6521,2.6521,2.6521,2.6521,2.6521,2.6521,2.6521,2.6521,2.6521,2.6521,2.6521,2.6521,2.6521,2.6521,2.6521,2.6521,2.6521,2.6521,2.6521,2.6521,2.6364,2.6239,2.5749,2.5382,2.5224,2.4536,2.3974,2.4325,2.4539,2.4471,2.3628,2.3261,2.2928,2.2185,2.1472,2.0896,2.0315,1.9858,1.9104,1.8745,1.832,1.8154,1.8135,1.8193,1.8232,1.8252,1.8271,1.8203,1.8164,1.8076,1.8057,1.8066,1.8018,1.8008,1.8008,1.8008,1.8008,1.8008,1.8008,1.8008,1.8008,1.7978,1.7949,1.7861,1.736,1.6202,1.4561,1.3165,1.1978,1.1114,1.0876,1.0909,1.0748,1.0748,1.092,1.0927,1.0893,1.0802,1.0742,1.0788,1.0815,1.0722,1.0684,1.0637,0.9379,0.7548,0.678,0.7071,0.6445,0.5557,0.5442,0.5393,0.5406,0.541,0.5443,0.541,0.541,0.541,0.542,0.4092,0.2333,0.0,3.0584,3.0464,2.8939,2.8051,2.7617,2.6837,2.6521,2.6521,2.6645,2.6726,2.6521,2.6521,2.6521,2.6521,2.6521,2.6521,2.6521,2.6521,2.6521,2.6521,2.6521,2.6521,2.6521,2.6521,2.6521,2.6521,2.6521,2.6521,2.6521,2.6521,2.6521,2.6521,2.6521,2.6521,2.6427,2.5912,2.5812,2.605,2.5598,2.5021,2.4971,2.4883,2.4613,2.4312,2.4049,2.3699,2.3003,2.248,2.1549,2.0832,2.1279,2.0743,1.9865,1.8934,1.8389,1.8184,1.8576,1.8724,1.9004,1.9023,1.8813,1.8605,1.8437,1.8252,1.8135,1.8057,1.8008,1.8018,1.8008,1.8008,1.8008,1.8008,1.8008,1.8008,1.8008,1.8008,1.8008,1.7147,1.6211,1.485,1.3419,1.2467,1.1573,1.1182,1.1243,1.1229,1.1236,1.1276,1.1269,1.1256,1.1283,1.1243,1.1216,1.1189,1.0963,1.0791,1.0712,1.0686,0.9497,0.8788,0.8226,0.7315,0.6463,0.5698,0.5433,0.5488,0.5493,0.5434,0.545,0.5481,0.5517,0.5549,0.5436,0.4097,0.4185,2.9704,2.958,2.8312,2.7484,2.7095,2.6658,2.6521,2.6521,2.6521,2.6521,2.6521,2.6521,2.6521,2.6521,2.6521,2.6521,2.6521,2.6521,2.6521,2.6521,2.6521,2.6521,2.6521,2.6521,2.6521,2.6521,2.6521,2.6521,2.6521,2.6521,2.6521,2.6521,2.6521,2.6508,2.6414,2.6151,2.6101,2.6471,2.6076,2.5799,2.5485,2.5498,2.5536,2.5324,2.5098,2.4725,2.449,2.3999,2.3293,2.2559,2.261,2.1998,2.1025,2.017,1.929,1.8794,1.8854,1.9344,2.0162,2.0205,1.9726,1.9454,1.8762,1.8536,1.8418,1.833,1.8164,1.8144,1.8027,1.8008,1.8008,1.8008,1.8008,1.8008,1.8008,1.8008,1.7998,1.761,1.6264,1.4739,1.3592,1.2853,1.1991,1.1328,1.1383,1.1506,1.1498,1.157,1.159,1.163,1.167,1.1677,1.1617,1.147,1.1202,1.0994,1.0779,1.0814,1.0976,0.9928,0.8851,0.815,0.7333,0.6519,0.5866,0.5577,0.5583,0.5653,0.5639,0.5661,0.5708,0.5758,0.5644,0.554,0.5365,2.8748,2.857,2.7868,2.7162,2.6589,2.6521,2.6521,2.6521,2.6521,2.6521,2.6521,2.6521,2.6521,2.6521,2.6521,2.6521,2.6521,2.6521,2.6521,2.6521,2.6521,2.6521,2.6521,2.6521,2.6521,2.6521,2.6521,2.6521,2.6521,2.6521,2.6521,2.6521,2.6521,2.6521,2.6521,2.6508,2.6521,2.6521,2.6339,2.6471,2.6483,2.6521,2.6339,2.6445,2.6521,2.6521,2.6164,2.5791,2.5205,2.4507,2.3663,2.2912,2.2329,2.1567,2.0711,2.0059,1.9885,2.1237,2.2464,2.1773,2.1087,2.0379,1.9424,1.8921,1.8831,1.8643,1.8477,1.835,1.8232,1.8076,1.8076,1.8047,1.8047,1.8047,1.8047,1.8047,1.7959,1.7872,1.6374,1.4749,1.4011,1.3244,1.2661,1.1902,1.1653,1.1771,1.1818,1.1877,1.1915,1.1904,1.1957,1.1944,1.1897,1.1724,1.1454,1.1405,1.1209,1.1191,1.1226,1.0378,0.9469,0.8646,0.785,0.7148,0.6624,0.6032,0.593,0.5988,0.5957,0.5878,0.5919,0.5981,0.5882,0.5851,0.584,2.7537,2.6973,2.6769,2.6645,2.6521,2.6521,2.6521,2.6521,2.6521,2.6521,2.6521,2.6521,2.6521,2.6521,2.6521,2.6521,2.6521,2.6521,2.6521,2.6521,2.6521,2.6521,2.6521,2.6521,2.6521,2.6521,2.6521,2.6521,2.6521,2.6521,2.6521,2.6521,2.6521,2.6521,2.6521,2.6521,2.6521,2.6521,2.6521,2.6521,2.6521,2.6521,2.6521,2.6521,2.6521,2.6521,2.6383,2.6314,2.621,2.555,2.4437,2.3781,2.3445,2.3179,2.2443,2.1838,2.1577,2.2838,2.3733,2.2822,2.198,2.1415,2.0504,1.9875,1.9578,1.916,1.9023,1.8926,1.8669,1.8329,1.8241,1.8203,1.8174,1.8174,1.8174,1.8174,1.8164,1.7703,1.6788,1.5579,1.4624,1.4128,1.3701,1.2906,1.2175,1.2226,1.2161,1.219,1.2098,1.2164,1.2211,1.2178,1.2131,1.1939,1.1759,1.1964,1.182,1.1764,1.1623,1.1051,1.0225,0.9136,0.8357,0.7834,0.6956,0.6198,0.6165,0.619,0.6167,0.6088,0.6176,0.6212,0.6113,0.6089,0.6079]}]]